[[{"header":{"parameterUnit":"m.s-1","parameterCategory":1,"la1":31.0,"la2":29.5877,"lo1":-88.7671,"lo2":-86.6584,"dy":0.0162,"dx":0.0185,"nx":115,"ny":88,"refTime":"2023-04-04T00:00:00:Z","depth":0,"parameterNumber":2,"parameterNumberName":"U-component_of_WINDS"},"data":[0.0,0.0,0.0,0.0,0.0,0.0,0.0,0.0,0.0,0.0,0.0,0.0,0.0,0.0,0.0,0.0,0.0,0.0,0.0,0.0,0.0,0.0,0.0,0.0,0.0,0.0,0.0,0.0,0.0,0.0,0.0,0.0,0.0,0.0,0.0,0.0,0.0,0.0,0.0,0.0,0.0,0.0,0.0,0.0,0.0,0.0,0.0,0.0,0.0,0.0,0.0,0.0,0.0,0.0,0.0,0.0,0.0,0.0,0.0,0.0,0.0,0.0,0.0,0.0,0.0,0.0,0.0,0.0,0.0,0.0,0.0,0.0,0.0,0.0,0.0,0.0,0.0,0.0,0.0,0.0,0.0,0.0,0.0,0.0,0.0,0.0,0.0,0.0,0.0,0.0,0.0,0.0,0.0,0.0,0.0,0.0,0.0,0.0,0.0,0.0,0.0,0.0,0.0,0.0,0.0,0.0,0.0,0.0,0.0,0.0,0.0,0.0,0.0,0.0,0.0,0.0,0.0,0.0,0.0,0.0,0.0,0.0,0.0,0.0,0.0,0.0,0.0,0.0,0.0,0.0,0.0,0.0,0.0,0.0,0.0,0.0,0.0,0.0,0.0,0.0,0.0,0.0,0.0,0.0,0.0,0.0,0.0,0.0,0.0,0.0,0.0,0.0,0.0,0.0,0.0,0.0,0.0,0.0,0.0,0.0,0.0,0.0,0.0,0.0,0.0,0.0,0.0,0.0,0.0,0.0,0.0,0.0,0.0,0.0,0.0,0.0,0.0,0.0,0.0,0.0,0.0,0.0,0.0,0.0,0.0,0.0,0.0,0.0,0.0,0.0,0.0,0.0,0.0,0.0,0.0,0.0,0.0,0.0,0.0,0.0,0.0,0.0,0.0,0.0,0.0,0.0,0.0,0.0,0.0,0.0,0.0,0.0,0.0,0.0,0.0,0.0,0.0,0.0,0.0,0.0,0.0,0.0,0.0,0.0,0.0,0.0,0.0,0.0,0.0,0.0,0.0,0.0,0.0,0.0,0.0,0.0,0.0,0.0,0.0,0.0,0.0,0.0,0.0,0.0,0.0,0.0,0.0,0.0,0.0,0.0,0.0,0.0,0.0,0.0,0.0,0.0,0.0,0.0,0.0,0.0,0.0,0.0,0.0,0.0,0.0,0.0,0.0,0.0,0.0,0.0,0.0,0.0,0.0,0.0,0.0,0.0,0.0,0.0,0.0,0.0,0.0,0.0,0.0,0.0,0.0,0.0,0.0,0.0,0.0,0.0,0.0,0.0,0.0,0.0,0.0,0.0,0.0,0.0,0.0,0.0,0.0,0.0,0.0,0.0,0.0,0.0,0.0,0.0,0.0,0.0,0.0,0.0,0.0,0.0,0.0,0.0,0.0,0.0,0.0,0.0,0.0,0.0,0.0,0.0,0.0,0.0,0.0,0.0,0.0,0.0,0.0,0.0,0.0,0.0,0.0,0.0,0.0,0.0,0.0,0.0,0.0,0.0,0.0,0.0,0.0,0.0,0.0,0.0,0.0,0.0,0.0,0.0,0.0,0.0,0.0,0.0,0.0,0.0,0.0,0.0,0.0,0.0,0.0,0.0,0.0,0.0,0.0,0.0,0.0,0.0,0.0,0.0,0.0,0.0,0.0,0.0,0.0,0.0,0.0,0.0,0.0,0.0,0.0,0.0,0.0,0.0,0.0,0.0,0.0,0.0,0.0,0.0,0.0,0.0,0.0,0.0,0.0,0.0,0.0,0.0,0.0,0.0,0.0,0.0,0.0,0.0,0.0,0.0,0.0,0.0,0.0,0.0,0.0,0.0,0.0,0.0,0.0,0.0,0.0,0.0,0.0,0.0,0.0,0.0,0.0,0.0,0.0,0.0,0.0,0.0,0.0,0.0,0.0,0.0,0.0,0.0,0.0,0.0,0.0,0.0,0.0,0.0,0.0,0.0,0.0,0.0,0.0,0.0,0.0,0.0,0.0,0.0,0.0,0.0,0.0,0.0,0.0,0.0,0.0,0.0,0.0,0.0,0.0,0.0,0.0,0.0,0.0,0.0,0.0,0.0,0.0,0.0,0.0,0.0,0.0,0.0,0.0,0.0,0.0,0.0,0.0,0.0,0.0,0.0,0.0,0.0,0.0,0.0,0.0,0.0,0.0,0.0,0.0,0.0,0.0,0.0,0.0,0.0,0.0,0.0,0.0,0.0,0.0,0.0,0.0,0.0,0.0,0.0,0.0,0.0,0.0,0.0,0.0,0.0,0.0,0.0,0.0,0.0,0.0,0.0,0.0,0.0,0.0,0.0,0.0,0.0,0.0,0.0,0.0,0.0,0.0,0.0,0.0,0.0,0.0,0.0,0.0,0.0,0.0,0.0,0.0,0.0,0.0,0.0,0.0,0.0,0.0,0.0,0.0,0.0,0.0,0.0,0.0,0.0,0.0,0.0,0.0,0.0,0.0,0.0,0.0,0.0,0.0,0.0,0.0,0.0,0.0,0.0,0.0,0.0,0.0,0.0,0.0,0.0,0.0,0.0,0.0,0.0,0.0,0.0,0.0,0.0,0.0,0.0,0.0,0.0,0.0,0.0,0.0,0.0,0.0,0.0,0.0,0.0,0.0,0.0,0.0,0.0,0.0,0.0,0.0,0.0,0.0,0.0,0.0,0.0,0.0,0.0,0.0,0.0,0.0,0.0,0.0,0.0,0.0,0.0,0.0,0.0,0.0,0.0,0.0,0.0,0.0,0.0,0.0,0.0,0.0,0.0,0.0,0.0,0.0,0.0,0.0,0.0,0.0,0.0,0.0,0.0,0.0,0.0,0.0,0.0,0.0,0.0,0.0,0.0,0.0,0.0,0.0,0.0,0.0,0.0,0.0,0.0,0.0,0.0,0.0,0.0,0.0,0.0,0.0,0.0,0.0,0.0,0.0,0.0,0.0,0.0,0.0,0.0,0.0,0.0,0.0,0.0,0.0,0.0,0.0,0.0,0.0,0.0,0.0,0.0,0.0,0.0,0.0,0.0,0.0,0.0,0.0,0.0,0.0,0.0,0.0,0.0,0.0,0.0,0.0,0.0,0.0,0.0,0.0,0.0,0.0,0.0,0.0,0.0,0.0,0.0,0.0,0.0,0.0,0.0,0.0,0.0,0.0,0.0,0.0,0.0,0.0,0.0,0.0,0.0,0.0,0.0,0.0,0.0,0.0,0.0,0.0,0.0,0.0,0.0,0.0,0.0,0.0,0.0,0.0,0.0,0.0,0.0,0.0,0.0,0.0,0.0,0.0,0.0,0.0,0.0,0.0,0.0,0.0,0.0,0.0,0.0,0.0,0.0,0.0,0.0,0.0,0.0,0.0,0.0,0.0,0.0,0.0,0.0,0.0,0.0,0.0,0.0,0.0,0.0,0.0,0.0,0.0,0.0,0.0,0.0,0.0,0.0,0.0,0.0,0.0,0.0,0.0,0.0,0.0,0.0,0.0,0.0,0.0,0.0,0.0,0.0,0.0,0.0,0.0,0.0,0.0,0.0,0.0,0.0,0.0,0.0,0.0,0.0,0.0,0.0,0.0,0.0,0.0,0.0,0.0,0.0,0.0,0.0,0.0,0.0,0.0,0.0,0.0,0.0,0.0,0.0,0.0,0.0,0.0,0.0,0.0,0.0,0.0,0.0,0.0,0.0,0.0,0.0,0.0,0.0,0.0,0.0,0.0,0.0,0.0,0.0,0.0,0.0,0.0,0.0,0.0,0.0,0.0,0.0,0.0,0.0,0.0,0.0,0.0,0.0,0.0,0.0,0.0,0.0,0.0,0.0,0.0,0.0,0.0,0.0,0.0,0.0,0.0,0.0,0.0,0.0,0.0,0.0,0.0,0.0,0.0,0.0,0.0,0.0,0.0,0.0,0.0,0.0,0.0,0.0,0.0,0.0,0.0,0.0,0.0,0.0,0.0,0.0,0.0,0.0,0.0,0.0,0.0,0.0,0.0,0.0,0.0,0.0,0.0,0.0,0.0,0.0,0.0,0.0,0.0,0.0,0.0,0.0,0.0,0.0,0.0,0.0,0.0,0.0,0.0,0.0,0.0,0.0,0.0,0.0,0.0,0.0,0.0,0.0,0.0,0.0,0.0,0.0,0.0,0.0,0.0,0.0,0.0,0.0,0.0,0.0,0.0,0.0,0.0,0.0,0.0,0.0,0.0,0.0,0.0,0.0,0.0,0.0,0.0,0.0,0.0,0.0,0.0,0.0,0.0,0.0,0.0,0.0,1.8734,0.0,0.0,0.0,0.0,0.0,0.0,0.0,0.0,0.0,0.0,0.0,0.0,0.0,0.0,0.0,0.0,0.0,0.0,0.0,0.0,0.0,0.0,0.0,0.0,0.0,0.0,0.0,0.0,0.0,0.0,0.0,0.0,0.0,0.0,0.0,0.0,0.0,0.0,0.0,0.0,0.0,0.0,0.0,0.0,0.0,0.0,0.0,0.0,0.0,0.0,0.0,0.0,0.0,0.0,0.0,0.0,0.0,0.0,0.0,0.0,0.0,0.0,0.0,0.0,0.0,0.0,0.0,0.0,0.0,0.0,0.0,0.0,0.0,0.0,0.0,0.0,0.0,0.0,0.0,0.0,0.0,0.0,0.0,0.0,0.0,0.0,0.0,0.0,0.0,0.0,0.0,0.0,0.0,0.0,0.0,0.0,0.0,0.0,0.0,0.0,0.0,0.0,0.0,0.0,0.0,0.0,0.0,0.0,0.0,0.0,1.8465,1.8487,1.8545,1.862,1.8657,0.0,0.0,0.0,0.0,0.0,0.0,0.0,0.0,0.0,0.0,0.0,0.0,0.0,0.0,0.0,0.0,0.0,0.0,0.0,0.0,0.0,0.0,0.0,0.0,0.0,0.0,0.0,0.0,0.0,0.0,0.0,0.0,0.0,0.0,0.0,0.0,0.0,0.0,0.0,0.0,0.0,0.0,0.0,0.0,0.0,0.0,0.0,0.0,0.0,0.0,0.0,0.0,0.0,0.0,0.0,0.0,0.0,0.0,0.0,0.0,0.0,0.0,0.0,0.0,0.0,0.0,0.0,0.0,0.0,0.0,0.0,0.0,0.0,0.0,0.0,0.0,0.0,0.0,0.0,0.0,0.0,0.0,0.0,0.0,0.0,0.0,0.0,0.0,0.0,0.0,0.0,0.0,0.0,0.0,0.0,0.0,0.0,0.0,0.0,0.0,0.0,0.0,0.0,0.0,0.0,0.0,0.0,0.0,0.0,0.0,0.0,0.0,1.8426,1.8485,1.8559,0.0,0.0,0.0,0.0,0.0,0.0,0.0,0.0,0.0,0.0,0.0,0.0,0.0,0.0,0.0,0.0,0.0,0.0,0.0,0.0,0.0,0.0,0.0,0.0,0.0,0.0,0.0,0.0,0.0,0.0,0.0,0.0,0.0,0.0,0.0,0.0,0.0,0.0,0.0,0.0,0.0,0.0,0.0,0.0,0.0,0.0,0.0,0.0,0.0,0.0,0.0,0.0,0.0,0.0,0.0,0.0,0.0,0.0,0.0,0.0,0.0,0.0,0.0,0.0,0.0,0.0,0.0,0.0,0.0,0.0,0.0,0.0,0.0,0.0,0.0,0.0,0.0,0.0,0.0,0.0,0.0,0.0,0.0,0.0,0.0,0.0,0.0,0.0,0.0,0.0,0.0,0.0,0.0,0.0,0.0,0.0,0.0,0.0,0.0,0.0,0.0,0.0,0.0,0.0,0.0,0.0,0.0,0.0,0.0,0.0,1.8215,1.8225,1.829,0.0,1.8406,0.0,0.0,0.0,0.0,0.0,0.0,0.0,0.0,0.0,0.0,0.0,0.0,0.0,0.0,0.0,0.0,0.0,0.0,0.0,0.0,0.0,0.0,0.0,0.0,0.0,0.0,0.0,0.0,0.0,0.0,0.0,0.0,0.0,0.0,0.0,0.0,0.0,0.0,0.0,0.0,0.0,0.0,0.0,0.0,0.0,0.0,0.0,0.0,0.0,0.0,0.0,0.0,0.0,0.0,0.0,0.0,0.0,0.0,0.0,0.0,0.0,0.0,0.0,0.0,0.0,0.0,0.0,0.0,0.0,0.0,0.0,0.0,0.0,0.0,0.0,0.0,0.0,0.0,0.0,0.0,0.0,0.0,0.0,0.0,0.0,0.0,0.0,0.0,0.0,0.0,0.0,0.0,0.0,0.0,0.0,0.0,0.0,0.0,0.0,0.0,0.0,0.0,0.0,0.0,0.0,0.0,0.0,0.0,0.0,0.0,1.807,1.8074,1.818,1.8263,0.0,0.0,0.0,0.0,0.0,0.0,0.0,0.0,0.0,0.0,0.0,0.0,0.0,0.0,0.0,0.0,0.0,0.0,0.0,0.0,0.0,0.0,0.0,0.0,0.0,0.0,0.0,0.0,0.0,0.0,0.0,0.0,0.0,0.0,0.0,0.0,0.0,0.0,0.0,0.0,0.0,0.0,0.0,0.0,0.0,0.0,0.0,0.0,0.0,0.0,0.0,0.0,0.0,0.0,0.0,0.0,0.0,0.0,0.0,0.0,0.0,0.0,0.0,0.0,0.0,0.0,0.0,0.0,0.0,0.0,0.0,0.0,0.0,0.0,0.0,0.0,0.0,0.0,0.0,0.0,0.0,0.0,0.0,0.0,0.0,0.0,0.0,0.0,0.0,0.0,0.0,0.0,0.0,0.0,0.0,0.0,0.0,0.0,0.0,0.0,0.0,0.0,0.0,0.0,0.0,0.0,0.0,0.0,0.0,0.0,1.7878,1.7922,1.7983,1.8048,1.8134,1.8159,0.0,0.0,0.0,0.0,0.0,0.0,0.0,0.0,0.0,0.0,0.0,0.0,0.0,0.0,0.0,0.0,0.0,0.0,0.0,0.0,0.0,0.0,0.0,0.0,0.0,0.0,0.0,0.0,0.0,0.0,0.0,0.0,0.0,0.0,0.0,0.0,0.0,0.0,0.0,0.0,0.0,0.0,0.0,0.0,0.0,0.0,0.0,0.0,0.0,0.0,0.0,0.0,0.0,0.0,0.0,0.0,0.0,0.0,0.0,0.0,0.0,0.0,0.0,0.0,0.0,0.0,0.0,0.0,0.0,0.0,0.0,0.0,0.0,0.0,0.0,0.0,0.0,0.0,0.0,0.0,0.0,0.0,0.0,0.0,0.0,0.0,0.0,0.0,0.0,0.0,0.0,0.0,0.0,0.0,0.0,0.0,0.0,0.0,0.0,0.0,0.0,0.0,0.0,0.0,0.0,0.0,0.0,0.0,1.7612,1.7681,1.7772,1.79,1.7905,1.7961,0.0,0.0,0.0,0.0,0.0,0.0,0.0,0.0,0.0,0.0,0.0,0.0,0.0,0.0,0.0,0.0,0.0,0.0,0.0,0.0,0.0,0.0,0.0,0.0,0.0,0.0,0.0,0.0,0.0,0.0,0.0,0.0,0.0,0.0,0.0,0.0,0.0,0.0,0.0,0.0,0.0,0.0,0.0,0.0,0.0,0.0,0.0,0.0,0.0,0.0,0.0,0.0,0.0,0.0,0.0,0.0,0.0,0.0,0.0,0.0,0.0,0.0,0.0,0.0,0.0,0.0,0.0,0.0,0.0,0.0,0.0,0.0,0.0,0.0,0.0,0.0,0.0,0.0,0.0,0.0,0.0,0.0,0.0,0.0,0.0,0.0,0.0,0.0,0.0,0.0,0.0,0.0,0.0,0.0,0.0,0.0,0.0,0.0,0.0,0.0,0.0,0.0,0.0,0.0,0.0,0.0,0.0,0.0,0.0,1.7401,1.7526,1.7579,1.7641,1.7732,1.7794,0.0,0.0,0.0,0.0,0.0,0.0,0.0,0.0,0.0,0.0,0.0,0.0,0.0,0.0,0.0,0.0,0.0,0.0,0.0,0.0,0.0,0.0,0.0,0.0,0.0,0.0,0.0,0.0,0.0,0.0,0.0,0.0,0.0,0.0,0.0,0.0,0.0,0.0,0.0,0.0,0.0,0.0,0.0,0.0,0.0,0.0,0.0,0.0,0.0,0.0,0.0,0.0,0.0,0.0,0.0,0.0,0.0,0.0,0.0,0.0,0.0,0.0,0.0,0.0,0.0,0.0,0.0,0.0,0.0,0.0,0.0,0.0,0.0,0.0,0.0,0.0,0.0,0.0,0.0,0.0,0.0,0.0,0.0,0.0,0.0,0.0,0.0,0.0,0.0,0.0,0.0,0.0,0.0,0.0,0.0,0.0,0.0,0.0,0.0,0.0,0.0,0.0,0.0,0.0,0.0,0.0,0.0,0.0,0.0,1.7265,0.0,1.7384,1.7432,1.7542,1.7612,0.0,0.0,0.0,0.0,0.0,0.0,0.0,0.0,0.0,0.0,0.0,0.0,0.0,0.0,0.0,0.0,0.0,0.0,0.0,0.0,0.0,0.0,0.0,0.0,0.0,0.0,0.0,0.0,0.0,0.0,0.0,0.0,0.0,0.0,0.0,0.0,0.0,0.0,0.0,0.0,0.0,0.0,0.0,0.0,0.0,0.0,0.0,0.0,0.0,0.0,0.0,0.0,0.0,0.0,0.0,0.0,0.0,0.0,0.0,0.0,0.0,0.0,0.0,0.0,0.0,0.0,0.0,0.0,0.0,0.0,0.0,0.0,0.0,0.0,0.0,0.0,0.0,0.0,0.0,0.0,0.0,0.0,0.0,0.0,0.0,0.0,0.0,0.0,0.0,0.0,0.0,0.0,0.0,0.0,0.0,0.0,0.0,0.0,0.0,0.0,0.0,0.0,0.0,0.0,0.0,0.0,0.0,0.0,1.7048,1.7174,1.7199,1.7232,1.7297,1.7321,1.7377,0.0,0.0,0.0,0.0,0.0,0.0,0.0,0.0,0.0,0.0,0.0,0.0,0.0,0.0,0.0,0.0,0.0,0.0,0.0,0.0,0.0,0.0,0.0,0.0,0.0,0.0,0.0,0.0,0.0,0.0,0.0,0.0,0.0,0.0,0.0,0.0,0.0,0.0,0.0,0.0,0.0,0.0,0.0,0.0,0.0,0.0,0.0,0.0,0.0,0.0,0.0,0.0,0.0,0.0,0.0,0.0,0.0,0.0,0.0,0.0,0.0,0.0,0.0,0.0,0.0,0.0,0.0,0.0,0.0,0.0,0.0,0.0,0.0,0.0,0.0,0.0,0.0,0.0,0.0,0.0,0.0,0.0,0.0,0.0,0.0,0.0,0.0,0.0,0.0,0.0,0.0,0.0,0.0,0.0,0.0,0.0,0.0,0.0,0.0,0.0,0.0,0.0,0.0,0.0,0.0,0.0,0.0,0.0,0.0,1.6857,1.7007,1.7057,1.7083,1.7183,1.724,0.0,0.0,0.0,0.0,0.0,0.0,0.0,0.0,0.0,0.0,0.0,0.0,0.0,0.0,0.0,0.0,0.0,0.0,0.0,0.0,0.0,0.0,0.0,0.0,0.0,0.0,0.0,0.0,0.0,0.0,0.0,0.0,0.0,0.0,0.0,0.0,0.0,0.0,0.0,0.0,0.0,0.0,0.0,0.0,0.0,0.0,0.0,0.0,0.0,0.0,0.0,0.0,0.0,0.0,0.0,0.0,0.0,0.0,0.0,0.0,0.0,0.0,0.0,0.0,0.0,0.0,0.0,0.0,0.0,0.0,0.0,0.0,0.0,0.0,0.0,0.0,0.0,0.0,0.0,0.0,0.0,0.0,0.0,0.0,0.0,0.0,0.0,0.0,0.0,0.0,0.0,0.0,0.0,0.0,0.0,0.0,0.0,0.0,0.0,0.0,0.0,0.0,0.0,0.0,0.0,0.0,0.0,0.0,0.0,1.6474,1.6691,1.6811,1.6837,1.694,1.7025,1.7043,0.0,0.0,0.0,0.0,0.0,0.0,0.0,0.0,0.0,0.0,0.0,0.0,0.0,0.0,0.0,0.0,0.0,0.0,0.0,0.0,0.0,0.0,0.0,0.0,0.0,0.0,0.0,0.0,0.0,0.0,0.0,0.0,0.0,0.0,0.0,0.0,0.0,0.0,0.0,0.0,0.0,0.0,0.0,0.0,0.0,0.0,0.0,0.0,0.0,0.0,0.0,0.0,0.0,0.0,0.0,0.0,0.0,0.0,0.0,0.0,0.0,0.0,0.0,0.0,0.0,0.0,0.0,0.0,0.0,0.0,0.0,0.0,0.0,0.0,0.0,0.0,0.0,0.0,0.0,0.0,0.0,0.0,0.0,0.0,0.0,0.0,0.0,0.0,0.0,0.0,0.0,0.0,0.0,0.0,0.0,0.0,0.0,0.0,0.0,0.0,0.0,0.0,0.0,0.0,0.0,0.0,0.0,0.0,1.6067,1.6328,1.6501,1.6581,1.6659,1.6722,0.0,0.0,0.0,0.0,0.0,0.0,0.0,0.0,0.0,0.0,0.0,0.0,0.0,0.0,0.0,0.0,0.0,0.0,0.0,0.0,0.0,0.0,0.0,0.0,0.0,0.0,0.0,0.0,0.0,0.0,0.0,0.0,0.0,0.0,0.0,0.0,0.0,0.0,0.0,0.0,0.0,0.0,0.0,0.0,0.0,0.0,0.0,0.0,0.0,0.0,0.0,0.0,0.0,0.0,0.0,0.0,0.0,0.0,0.0,0.0,0.0,0.0,0.0,0.0,0.0,0.0,0.0,0.0,0.0,0.0,0.0,0.0,0.0,0.0,0.0,0.0,0.0,0.0,0.0,0.0,0.0,0.0,0.0,0.0,0.0,0.0,0.0,0.0,0.0,0.0,0.0,0.0,0.0,0.0,0.0,0.0,0.0,0.0,0.0,0.0,0.0,0.0,0.0,0.0,0.0,0.0,0.0,0.0,0.0,1.5726,1.5898,1.6108,1.6382,1.6463,1.6501,0.0,0.0,0.0,0.0,0.0,0.0,0.0,0.0,0.0,0.0,0.0,0.0,0.0,0.0,0.0,0.0,0.0,0.0,0.0,0.0,0.0,0.0,0.0,0.0,0.0,0.0,0.0,0.0,0.0,0.0,0.0,0.0,0.0,0.0,0.0,0.0,0.0,0.0,0.0,0.0,0.0,0.0,0.0,0.0,0.0,0.0,0.0,0.0,0.0,0.0,0.0,0.0,0.0,0.0,0.0,0.0,0.0,0.0,0.0,0.0,0.0,0.0,0.0,0.0,0.0,0.0,0.0,0.0,0.0,0.0,0.0,0.0,0.0,0.0,0.0,0.0,0.0,0.0,0.0,0.0,0.0,0.0,0.0,0.0,0.0,0.0,0.0,0.0,0.0,0.0,0.0,0.0,0.0,0.0,0.0,0.0,0.0,0.0,0.0,0.0,0.0,0.0,0.0,0.0,0.0,0.0,0.0,0.0,1.5374,1.5463,1.5536,1.5697,1.5968,1.6136,1.6246,0.0,0.0,0.0,0.0,0.0,0.0,0.0,0.0,0.0,0.0,0.0,0.0,0.0,0.0,0.0,0.0,0.0,0.0,0.0,0.0,0.0,0.0,0.0,0.0,0.0,0.0,0.0,0.0,0.0,0.0,0.0,0.0,0.0,0.0,0.0,0.0,0.0,0.0,0.0,0.0,0.0,0.0,0.0,0.0,0.0,0.0,0.0,0.0,0.0,0.0,0.0,0.0,0.0,0.0,0.0,0.0,0.0,0.0,0.0,0.0,0.0,0.0,0.0,0.0,0.0,0.0,0.0,0.0,0.0,0.0,0.0,0.0,0.0,0.0,0.0,0.0,0.0,0.0,0.0,0.0,0.0,0.0,0.0,0.0,0.0,0.0,0.0,0.0,0.0,0.0,0.0,0.0,0.0,0.0,0.0,0.0,0.0,0.0,0.0,0.0,0.0,0.0,0.0,0.0,0.0,0.0,0.0,0.0,1.5043,1.5253,1.5238,1.5328,1.5448,1.5784,1.5996,0.0,0.0,0.0,0.0,0.0,0.0,0.0,0.0,0.0,0.0,0.0,0.0,0.0,0.0,0.0,0.0,0.0,0.0,0.0,0.0,0.0,0.0,0.0,0.0,0.0,0.0,0.0,0.0,0.0,0.0,0.0,0.0,0.0,0.0,0.0,0.0,0.0,0.0,0.0,0.0,0.0,0.0,0.0,0.0,0.0,0.0,0.0,0.0,0.0,0.0,0.0,0.0,0.0,0.0,0.0,0.0,0.0,0.0,0.0,0.0,0.0,0.0,0.0,0.0,0.0,0.0,0.0,0.0,0.0,0.0,0.0,0.0,0.0,0.0,0.0,0.0,0.0,0.0,0.0,0.0,0.0,0.0,0.0,0.0,0.0,0.0,0.0,0.0,0.0,0.0,0.0,0.0,0.0,0.0,0.0,0.0,0.0,0.0,0.0,0.0,0.0,0.0,0.0,0.0,0.0,0.0,0.0,0.0,1.4794,1.4902,1.4963,1.5056,1.5104,1.5448,1.5726,0.0,0.0,0.0,0.0,0.0,0.0,0.0,0.0,0.0,0.0,0.0,0.0,0.0,0.0,0.0,0.0,0.0,0.0,0.0,0.0,0.0,0.0,0.0,0.0,0.0,0.0,0.0,0.0,0.0,0.0,0.0,0.0,0.0,0.0,0.0,0.0,0.0,0.0,0.0,0.0,0.0,0.0,0.0,0.0,0.0,0.0,0.0,0.0,1.5955,0.0,0.0,0.0,0.0,0.0,0.0,0.0,0.0,0.0,0.0,0.0,0.0,0.0,0.0,0.0,0.0,0.0,0.0,0.0,0.0,0.0,0.0,0.0,0.0,0.0,0.0,0.0,0.0,0.0,0.0,0.0,0.0,0.0,0.0,0.0,0.0,0.0,0.0,0.0,0.0,0.0,0.0,0.0,0.0,0.0,0.0,0.0,0.0,0.0,0.0,0.0,0.0,0.0,0.0,0.0,0.0,0.0,0.0,0.0,1.4493,1.4588,1.4651,1.4686,1.4783,1.4996,1.5299,0.0,0.0,0.0,0.0,0.0,0.0,0.0,0.0,0.0,0.0,0.0,0.0,0.0,0.0,0.0,0.0,0.0,0.0,0.0,0.0,0.0,0.0,0.0,0.0,0.0,0.0,0.0,0.0,0.0,0.0,0.0,0.0,0.0,0.0,0.0,0.0,0.0,0.0,0.0,0.0,0.0,0.0,0.0,0.0,0.0,0.0,0.0,0.0,0.0,0.0,0.0,0.0,0.0,0.0,0.0,0.0,0.0,0.0,0.0,0.0,0.0,0.0,0.0,0.0,0.0,0.0,0.0,0.0,0.0,0.0,0.0,0.0,0.0,0.0,0.0,0.0,0.0,0.0,0.0,0.0,0.0,0.0,0.0,0.0,0.0,0.0,0.0,0.0,0.0,0.0,0.0,0.0,0.0,0.0,0.0,0.0,0.0,0.0,0.0,0.0,0.0,0.0,0.0,0.0,0.0,0.0,0.0,1.4092,1.4157,1.4222,1.43,1.4369,1.4406,1.456,1.4811,1.5225,0.0,0.0,0.0,0.0,0.0,0.0,0.0,0.0,0.0,0.0,0.0,0.0,0.0,0.0,0.0,0.0,0.0,0.0,0.0,0.0,0.0,0.0,0.0,0.0,0.0,0.0,0.0,0.0,0.0,0.0,0.0,0.0,0.0,0.0,0.0,0.0,0.0,0.0,1.4848,1.4812,0.0,0.0,0.0,0.0,0.0,0.0,0.0,0.0,1.757,0.0,0.0,0.0,0.0,0.0,0.0,0.0,0.0,0.0,0.0,0.0,0.0,0.0,0.0,0.0,0.0,0.0,0.0,0.0,0.0,0.0,0.0,0.0,0.0,0.0,0.0,0.0,0.0,0.0,0.0,0.0,0.0,0.0,0.0,0.0,0.0,0.0,0.0,0.0,0.0,0.0,0.0,0.0,0.0,0.0,0.0,0.0,0.0,0.0,0.0,0.0,0.0,0.0,0.0,0.0,0.0,1.3669,1.3795,1.3888,1.3874,1.398,1.4065,1.4084,1.4273,1.4433,1.4672,0.0,0.0,0.0,0.0,0.0,0.0,0.0,0.0,0.0,0.0,0.0,0.0,0.0,0.0,0.0,0.0,0.0,0.0,0.0,0.0,0.0,0.0,0.0,0.0,0.0,0.0,0.0,0.0,0.0,0.0,0.0,0.0,0.0,0.0,0.0,0.0,0.0,0.0,0.0,1.6331,1.6345,0.0,0.0,0.0,0.0,0.0,0.0,0.0,0.0,1.9194,0.0,0.0,0.0,0.0,0.0,0.0,0.0,0.0,0.0,0.0,0.0,0.0,0.0,0.0,0.0,0.0,0.0,0.0,0.0,0.0,0.0,0.0,0.0,0.0,0.0,0.0,0.0,0.0,0.0,0.0,0.0,0.0,0.0,0.0,0.0,0.0,0.0,0.0,0.0,0.0,0.0,0.0,0.0,0.0,0.0,0.0,0.0,0.0,0.0,0.0,0.0,0.0,0.0,0.0,0.0,1.3323,1.3438,1.3484,1.3472,1.3648,1.3749,1.3735,1.3941,1.4092,0.0,0.0,0.0,0.0,0.0,0.0,0.0,0.0,0.0,0.0,0.0,0.0,0.0,0.0,0.0,0.0,0.0,0.0,0.0,0.0,0.0,0.0,0.0,0.0,0.0,0.0,0.0,0.0,0.0,0.0,0.0,0.0,0.0,0.0,0.0,0.0,0.0,0.0,0.0,0.0,1.6545,1.6561,1.6594,0.0,0.0,0.0,0.0,0.0,0.0,1.9092,1.9438,0.0,0.0,0.0,0.0,0.0,0.0,0.0,0.0,0.0,0.0,0.0,0.0,0.0,0.0,0.0,0.0,0.0,0.0,0.0,0.0,0.0,0.0,0.0,0.0,0.0,0.0,0.0,0.0,0.0,0.0,0.0,0.0,0.0,0.0,0.0,0.0,0.0,0.0,0.0,0.0,0.0,0.0,0.0,0.0,0.0,0.0,0.0,0.0,0.0,0.0,0.0,0.0,0.0,0.0,0.0,1.3037,1.306,1.3094,1.3129,1.3276,1.3378,1.3378,1.3573,1.3762,0.0,0.0,0.0,0.0,0.0,0.0,0.0,0.0,0.0,0.0,0.0,0.0,0.0,0.0,0.0,0.0,0.0,0.0,0.0,0.0,0.0,0.0,0.0,0.0,0.0,0.0,0.0,0.0,0.0,0.0,0.0,0.0,0.0,0.0,0.0,0.0,0.0,0.0,0.0,0.0,0.0,1.6832,1.6901,1.7469,0.0,0.0,0.0,0.0,1.9102,1.9182,0.0,0.0,0.0,0.0,0.0,0.0,0.0,0.0,0.0,0.0,0.0,0.0,0.0,0.0,0.0,0.0,0.0,0.0,0.0,0.0,0.0,0.0,0.0,0.0,0.0,0.0,0.0,0.0,0.0,0.0,0.0,0.0,0.0,0.0,0.0,0.0,0.0,0.0,0.0,0.0,0.0,0.0,0.0,0.0,0.0,0.0,0.0,0.0,0.0,0.0,0.0,0.0,0.0,0.0,0.0,0.0,1.2745,1.2757,1.2745,1.2745,1.2896,1.2965,1.2965,1.3151,1.3369,0.0,0.0,0.0,0.0,0.0,0.0,0.0,0.0,0.0,0.0,0.0,0.0,0.0,0.0,0.0,0.0,0.0,0.0,0.0,0.0,0.0,0.0,0.0,0.0,0.0,0.0,0.0,0.0,0.0,0.0,0.0,0.0,0.0,0.0,0.0,0.0,0.0,0.0,0.0,0.0,0.0,1.8183,1.8278,1.8388,1.8497,0.0,0.0,1.877,1.8843,1.8896,0.0,0.0,0.0,0.0,0.0,0.0,0.0,0.0,0.0,0.0,0.0,0.0,0.0,0.0,0.0,0.0,0.0,0.0,0.0,0.0,0.0,0.0,0.0,0.0,0.0,0.0,0.0,0.0,0.0,0.0,0.0,0.0,0.0,0.0,0.0,0.0,0.0,0.0,0.0,0.0,0.0,0.0,0.0,0.0,0.0,0.0,0.0,0.0,0.0,0.0,0.0,0.0,0.0,0.0,0.0,1.2294,1.2341,1.2365,1.2365,1.2377,1.2473,1.2544,1.2615,1.2733,1.2896,0.0,0.0,0.0,0.0,0.0,0.0,0.0,0.0,0.0,0.0,0.0,0.0,0.0,0.0,0.0,0.0,0.0,0.0,0.0,0.0,0.0,0.0,0.0,0.0,0.0,0.0,0.0,0.0,0.0,0.0,0.0,0.0,0.0,0.0,0.0,0.0,0.0,0.0,0.0,0.0,0.0,0.0,1.8201,1.8263,0.0,0.0,0.0,1.8467,1.8601,0.0,0.0,0.0,0.0,0.0,0.0,0.0,0.0,0.0,0.0,0.0,0.0,0.0,0.0,0.0,0.0,0.0,0.0,0.0,0.0,0.0,0.0,0.0,0.0,0.0,0.0,0.0,0.0,0.0,0.0,0.0,0.0,0.0,0.0,0.0,0.0,0.0,0.0,0.0,0.0,0.0,0.0,0.0,0.0,0.0,0.0,0.0,0.0,0.0,0.0,0.0,0.0,0.0,0.0,0.0,0.0,0.0,1.1968,1.1968,1.1957,1.1957,1.2018,1.2102,1.2258,1.2318,0.0,0.0,0.0,0.0,0.0,0.0,0.0,0.0,0.0,0.0,0.0,0.0,0.0,0.0,0.0,0.0,0.0,0.0,0.0,0.0,0.0,0.0,0.0,0.0,0.0,0.0,0.0,1.5668,0.0,0.0,0.0,0.0,0.0,0.0,0.0,0.0,0.0,0.0,0.0,0.0,0.0,0.0,1.7878,1.7895,1.7944,1.7971,0.0,0.0,1.8163,1.8363,1.8368,1.8448,0.0,0.0,0.0,0.0,0.0,0.0,0.0,0.0,0.0,0.0,0.0,0.0,0.0,0.0,0.0,0.0,0.0,0.0,0.0,0.0,0.0,0.0,0.0,0.0,0.0,0.0,0.0,0.0,0.0,0.0,0.0,0.0,0.0,0.0,0.0,0.0,0.0,0.0,0.0,0.0,0.0,0.0,0.0,0.0,0.0,0.0,0.0,0.0,0.0,0.0,0.0,0.0,0.0,0.0,0.0,1.1575,1.1553,1.1553,1.1553,1.1616,1.1689,1.1847,1.1909,1.2102,0.0,0.0,0.0,0.0,0.0,0.0,0.0,0.0,0.0,0.0,0.0,0.0,0.0,0.0,0.0,0.0,0.0,0.0,0.0,0.0,0.0,0.0,0.0,0.0,0.0,0.0,0.0,0.0,0.0,0.0,0.0,0.0,0.0,0.0,0.0,0.0,0.0,0.0,0.0,0.0,0.0,1.7532,1.7612,1.7635,1.7658,0.0,0.0,1.7878,1.8005,1.8082,1.8153,1.831,0.0,0.0,0.0,0.0,0.0,0.0,0.0,0.0,0.0,0.0,0.0,0.0,0.0,0.0,0.0,0.0,0.0,0.0,0.0,0.0,0.0,0.0,0.0,0.0,0.0,0.0,0.0,0.0,0.0,0.0,0.0,0.0,0.0,0.0,0.0,0.0,0.0,0.0,0.0,0.0,0.0,0.0,0.0,0.0,0.0,0.0,0.0,0.0,0.0,0.0,0.0,0.0,0.0,1.1699,1.1499,1.1253,1.1142,1.1132,1.1169,1.1255,1.1442,1.1431,1.1616,0.0,0.0,0.0,0.0,0.0,0.0,0.0,0.0,0.0,0.0,0.0,0.0,0.0,0.0,0.0,0.0,0.0,0.0,0.0,0.0,0.0,0.0,0.0,0.0,0.0,0.0,0.0,0.0,1.5711,1.5797,1.6026,0.0,0.0,0.0,0.0,0.0,0.0,0.0,0.0,0.0,0.0,1.7101,1.715,1.7216,0.0,0.0,1.7415,1.7526,1.7612,1.771,1.7844,1.7971,1.8138,0.0,0.0,0.0,0.0,0.0,0.0,0.0,0.0,0.0,0.0,0.0,0.0,0.0,0.0,0.0,0.0,0.0,0.0,0.0,0.0,0.0,0.0,0.0,0.0,0.0,0.0,0.0,0.0,0.0,0.0,0.0,0.0,0.0,0.0,0.0,0.0,0.0,0.0,0.0,0.0,0.0,0.0,0.0,0.0,0.0,0.0,0.0,0.0,0.0,0.0,0.0,0.0,1.157,1.1338,1.1064,1.0858,1.0725,1.0736,1.0802,1.0992,1.104,1.1169,0.0,0.0,0.0,0.0,0.0,0.0,0.0,0.0,0.0,0.0,0.0,0.0,0.0,0.0,0.0,0.0,0.0,0.0,0.0,0.0,0.0,0.0,0.0,0.0,0.0,0.0,0.0,0.0,1.5388,1.5492,1.5726,0.0,0.0,0.0,0.0,0.0,0.0,0.0,0.0,0.0,0.0,1.6686,1.6722,1.6789,1.6841,1.6926,1.7027,1.7126,1.7264,1.7361,1.7496,1.7658,0.0,0.0,0.0,0.0,0.0,0.0,0.0,0.0,0.0,0.0,0.0,0.0,0.0,0.0,0.0,0.0,0.0,0.0,0.0,0.0,0.0,0.0,0.0,0.0,0.0,0.0,0.0,0.0,0.0,0.0,1.325,0.0,0.0,0.0,0.0,0.0,0.0,0.0,0.0,0.0,0.0,0.0,0.0,0.0,0.0,0.0,0.0,0.0,0.0,0.0,0.0,0.0,0.0,1.1777,1.0937,1.0908,1.0693,1.0342,1.0322,1.04,1.0582,1.0621,1.0764,1.1019,0.0,0.0,0.0,0.0,0.0,0.0,0.0,0.0,0.0,0.0,0.0,0.0,0.0,0.0,0.0,0.0,0.0,0.0,0.0,0.0,0.0,0.0,0.0,0.0,0.0,0.0,1.4902,1.5086,1.5268,0.0,0.0,0.0,0.0,0.0,0.0,0.0,0.0,0.0,0.0,1.6425,1.6398,1.6409,1.6409,1.6463,1.6565,1.6591,1.6712,1.6935,1.7002,1.7093,0.0,0.0,0.0,0.0,0.0,0.0,0.0,0.0,0.0,0.0,0.0,0.0,0.0,0.0,0.0,0.0,0.0,0.0,0.0,0.0,0.0,0.0,0.0,0.0,0.0,0.0,0.0,1.3733,1.362,0.0,0.0,0.0,0.0,0.0,0.0,0.0,0.0,0.0,0.0,0.0,1.0777,1.0769,0.0,0.0,0.0,0.0,0.0,0.0,0.0,0.0,0.0,0.0,0.0,0.0,1.138,1.1094,1.0646,1.0354,1.0255,1.0042,0.9941,1.004,1.0166,1.0361,1.0725,0.0,0.0,0.0,0.0,0.0,0.0,0.0,0.0,0.0,0.0,0.0,0.0,0.0,0.0,0.0,0.0,0.0,0.0,0.0,0.0,0.0,0.0,0.0,0.0,0.0,1.4447,0.0,0.0,0.0,0.0,0.0,0.0,0.0,0.0,0.0,0.0,0.0,1.5826,1.5854,1.587,1.5926,1.6039,1.6055,1.5943,0.0,0.0,0.0,0.0,0.0,0.0,0.0,0.0,0.0,0.0,0.0,0.0,0.0,0.0,1.8132,1.8526,1.8697,1.8771,1.8789,0.0,0.0,0.0,0.0,0.0,0.0,0.0,0.0,0.0,0.0,0.0,0.0,0.0,0.0,1.3147,0.0,1.3147,0.0,0.0,0.0,0.0,0.0,0.0,0.0,0.0,1.0655,1.0539,1.0323,1.026,1.0198,0.0,1.0198,1.0352,0.0,0.0,0.0,0.0,0.0,0.0,0.0,0.0,1.1081,1.0941,1.0587,1.0241,0.9965,0.9766,0.9609,0.9585,0.9744,1.001,1.04,1.0515,1.0687,0.0,0.0,0.0,0.0,0.0,0.0,0.0,0.0,0.0,0.0,0.0,0.0,0.0,0.0,0.0,0.0,0.0,0.0,0.0,0.0,0.0,0.0,0.0,1.4105,0.0,0.0,0.0,0.0,0.0,0.0,0.0,0.0,0.0,1.5285,1.5315,1.5344,1.5389,1.5389,1.5418,1.558,0.0,0.0,0.0,0.0,0.0,0.0,0.0,1.5193,1.5681,1.588,1.6069,1.6424,1.6774,1.7126,1.7288,0.0,0.0,1.8095,1.8304,1.8388,1.8388,1.8452,1.8478,1.8231,1.7826,1.7363,0.0,0.0,0.0,0.0,0.0,0.0,0.0,0.0,1.249,1.2482,0.0,1.249,0.0,0.0,0.0,0.0,0.0,1.1137,0.0,0.0,1.0239,1.0133,1.0089,0.9737,0.9584,0.9584,0.9569,0.9562,0.9614,1.0154,0.0,0.0,0.0,0.0,0.0,0.0,1.0847,1.0521,1.0624,1.0314,0.958,0.9477,0.9384,0.922,0.9377,0.9646,0.9941,0.998,1.0088,1.0341,1.0495,0.0,0.0,0.0,0.0,0.0,0.0,0.0,0.0,0.0,0.0,0.0,0.0,0.0,0.0,0.0,0.0,0.0,0.0,0.0,0.0,1.3674,0.0,0.0,0.0,0.0,0.0,0.0,0.0,0.0,0.0,0.0,1.489,1.4968,1.4968,1.4968,0.0,0.0,0.0,0.0,1.4227,1.4254,1.3797,1.3543,1.3805,1.383,1.392,1.4148,0.0,0.0,1.5283,1.6034,1.6522,1.67,1.6696,1.7011,1.7535,1.7776,1.7915,1.7915,1.792,1.7745,1.7142,1.6945,1.6585,1.2877,0.0,0.0,0.0,0.0,1.225,1.2153,1.2138,1.1962,1.1872,1.1872,1.1872,0.0,0.0,0.0,0.0,0.0,0.0,1.0513,1.0233,1.0137,0.998,0.971,0.9467,0.933,0.9316,0.9104,0.9008,0.9008,0.9225,0.9472,0.9829,0.0,0.0,0.0,0.0,1.0254,1.016,1.0106,1.0027,0.977,0.9482,0.9318,0.9207,0.9021,0.9088,0.9417,0.9487,0.9597,0.9815,1.004,0.0,0.0,0.0,0.0,0.0,0.0,0.0,0.0,0.0,0.0,0.0,0.0,0.0,0.0,0.0,0.0,0.0,0.0,0.0,1.3069,1.3185,1.3301,0.0,0.0,0.0,0.0,0.0,0.0,0.0,0.0,0.0,1.3934,1.4259,1.4497,0.0,0.0,1.4592,1.4627,1.4186,1.3698,1.3277,1.2765,0.0,1.2661,1.276,1.3035,1.3619,1.382,1.4021,1.4253,1.4546,1.4769,1.486,1.4934,1.5041,1.5296,1.6095,1.6658,1.6681,1.639,1.6055,1.5819,1.546,1.501,1.2308,1.2102,1.2269,1.2218,1.2084,1.1833,1.1755,1.1727,1.1432,1.1298,1.1291,1.1241,1.1185,1.1185,1.1122,0.0,0.0,0.0,1.0147,0.9842,0.9733,0.9586,0.9419,0.9138,0.8952,0.8837,0.8677,0.8543,0.8415,0.8421,0.8626,0.8928,0.0,0.0,0.9316,0.9524,0.9681,0.9673,0.9736,0.9719,0.9581,0.9211,0.9082,0.9088,0.8789,0.8773,0.9106,0.9084,0.911,0.927,0.9527,0.9734,0.0,0.0,0.0,0.0,0.0,0.0,0.0,0.0,0.0,0.0,0.0,1.1884,1.1945,0.0,0.0,0.0,1.2401,1.2544,1.2615,1.2768,0.0,0.0,0.0,0.0,0.0,0.0,0.0,1.3207,1.3242,1.3276,1.3288,1.3547,1.3815,1.4046,1.4078,1.4124,1.4208,0.0,1.2945,1.2565,1.1883,1.1449,1.1598,1.1696,1.1897,1.2417,1.2856,1.3132,1.3182,1.3475,1.3765,1.3805,1.388,1.3945,1.4004,1.446,1.4961,1.5411,1.5255,1.495,1.4656,1.4328,1.3991,1.1626,1.1681,1.1932,1.1884,1.1627,1.1388,1.1237,1.1224,1.0942,1.0817,1.0797,1.0651,1.0518,1.0498,1.0301,0.0,0.9919,0.9798,0.9664,0.9448,0.9146,0.9039,0.9027,0.8771,0.8521,0.8294,0.8277,0.8122,0.7866,0.7854,0.7842,0.7871,0.8427,0.8699,0.8758,0.9008,0.9159,0.9159,0.9413,0.938,0.9055,0.8731,0.8714,0.898,0.8656,0.8658,0.8957,0.8822,0.8766,0.8815,0.9035,0.922,0.9283,0.0,0.0,0.0,0.0,0.0,0.0,0.0,0.0,0.0,0.0,0.0,0.0,0.0,0.0,0.0,1.2018,0.0,1.2162,1.2246,0.0,0.0,0.0,1.252,1.2627,1.2697,1.2733,1.2733,0.0,0.0,1.2838,1.2826,1.3,1.3433,1.3514,1.3594,1.3708,1.2794,1.2066,1.2053,1.1163,1.0512,1.0699,1.0721,1.0821,1.1021,1.1514,1.1964,1.2081,1.2607,1.3098,1.3095,1.3234,1.3271,1.3377,1.2898,1.2835,1.3977,1.4263,1.4133,1.3531,1.3457,1.3311,1.1267,1.1254,1.1193,1.1346,1.1636,1.128,1.1049,1.1024,1.0547,1.0361,1.0343,1.0159,0.9919,0.9779,0.9594,0.953,0.9466,0.928,0.9087,0.8952,0.8901,0.8809,0.8606,0.8364,0.8215,0.8144,0.7908,0.7706,0.7533,0.7527,0.7428,0.7306,0.7521,0.7901,0.8321,0.848,0.8626,0.8732,0.8903,0.8974,0.8854,0.8655,0.8595,0.8784,0.8533,0.8514,0.8691,0.8837,0.8935,0.8972,0.8992,0.9096,0.9215,0.9079,0.0,0.0,0.0,0.0,0.0,0.0,0.0,0.0,0.0,1.0943,1.1067,0.0,1.1169,0.0,1.142,1.1568,1.1726,1.1763,0.0,0.0,1.1957,1.1957,1.2004,1.2066,1.209,1.2102,1.221,1.2294,1.2282,1.2294,1.2365,1.252,1.2814,1.3057,1.3079,1.2234,1.158,1.1551,1.0799,1.0161,1.0223,1.0298,1.0361,1.0474,1.0668,1.0809,1.0897,1.108,1.1275,1.1325,1.1399,1.1462,1.1587,1.1428,1.1471,1.1788,1.2163,1.2445,1.2305,1.2364,1.2365,1.0773,1.0663,1.0519,1.0588,1.0875,1.0813,1.0748,1.073,1.0325,1.0149,1.0131,0.9817,0.9489,0.9177,0.9111,0.8989,0.8823,0.8689,0.8565,0.8447,0.8441,0.8376,0.8247,0.8111,0.7991,0.7768,0.7711,0.7535,0.7206,0.7312,0.7255,0.7025,0.7141,0.7307,0.7634,0.7949,0.815,0.8203,0.8362,0.8421,0.8415,0.8378,0.8448,0.8537,0.8362,0.8352,0.8456,0.85,0.8562,0.8648,0.8716,0.8806,0.897,0.8929,0.8891,0.0,0.0,0.0,0.0,0.0,0.0,0.0,0.0,0.0,0.0,0.0,1.0649,1.0715,1.0905,1.1094,1.1207,1.1234,1.1319,1.1431,1.1442,1.1468,1.1516,1.1579,1.1579,1.1579,1.1653,1.17,1.1726,1.1726,1.1774,1.1884,1.2126,1.2366,1.2567,1.1959,1.1462,1.1463,1.0656,0.9944,0.9853,0.9919,1.0008,1.0046,1.0097,1.0135,1.0186,1.0261,1.0361,1.0373,1.046,1.0496,1.057,1.0619,1.0681,1.0753,1.0954,1.1256,1.1541,1.1645,1.1753,1.0341,1.0111,0.9965,0.9868,0.9841,1.0218,1.0363,1.0351,1.007,0.9958,0.9913,0.9493,0.913,0.8763,0.8769,0.8503,0.8153,0.8148,0.8072,0.7922,0.7917,0.7857,0.7857,0.7857,0.7693,0.7317,0.7448,0.7335,0.6945,0.712,0.7072,0.6932,0.6922,0.6925,0.6827,0.729,0.7538,0.7616,0.7711,0.7771,0.7818,0.8002,0.8168,0.8309,0.8178,0.8151,0.8259,0.8114,0.8071,0.8208,0.8324,0.8452,0.8667,0.8825,0.8776,0.0,0.8782,0.0,0.0,0.0,0.0,0.0,0.0,0.0,0.0,1.0,1.0118,1.0302,1.0495,1.0572,1.0601,1.0715,1.0802,1.0867,1.0895,1.0943,1.1078,1.1105,1.1094,1.1105,1.1105,1.1142,1.1196,1.1196,1.1234,1.1356,1.1409,1.1583,1.2018,1.1725,1.1395,1.1422,1.0584,0.981,0.9595,0.9548,0.9593,0.9632,0.9684,0.9724,0.9762,0.9828,0.9919,0.9919,0.997,1.0034,1.011,1.0122,1.0173,1.0286,1.0336,1.0534,1.0991,1.1224,1.133,0.9866,0.9735,0.9657,0.956,0.9392,0.9473,0.962,0.9765,0.9578,0.9378,0.9197,0.9078,0.8934,0.8664,0.8449,0.826,0.8048,0.7851,0.7621,0.7335,0.733,0.7269,0.7143,0.7138,0.7055,0.7019,0.7019,0.6916,0.6653,0.6719,0.6616,0.6433,0.6547,0.656,0.6435,0.0,0.0,0.0,0.7246,0.73,0.7413,0.7574,0.7681,0.783,0.7882,0.0,0.7958,0.8084,0.8215,0.8359,0.8239,0.0,0.0,0.0,0.0,0.0,0.0,0.0,0.0,0.0,0.0,0.0,0.8455,0.8814,0.9399,0.9558,0.9686,0.9892,0.9941,1.001,1.0137,1.0196,1.0264,1.0273,1.038,1.0428,1.0477,1.0505,1.0534,1.0534,1.0659,1.0725,1.0736,1.0725,1.0725,1.0764,1.0819,1.0874,1.1019,1.1058,1.1002,1.0953,1.0239,0.9608,0.9491,0.9226,0.9092,0.9151,0.9217,0.9271,0.9366,0.9408,0.9461,0.9514,0.954,0.9593,0.971,0.9722,0.9736,0.9814,0.988,1.0059,1.0608,1.0777,1.0849,0.9442,0.0,0.9167,0.9053,0.0,0.8859,0.888,0.8861,0.9084,0.8949,0.8702,0.8697,0.8503,0.8164,0.8092,0.7914,0.772,0.7655,0.7409,0.702,0.7082,0.6901,0.6618,0.6618,0.6613,0.6548,0.6618,0.6567,0.6407,0.6471,0.6379,0.6195,0.6252,0.6228,0.6049,0.6062,0.6257,0.6647,0.6701,0.6766,0.6879,0.709,0.7252,0.73,0.7402,0.0,0.0,0.0,0.0,0.0,0.0,0.0,0.0,0.0,0.0,0.8143,0.8078,0.7948,0.7891,0.7773,0.7795,0.781,0.7878,0.8242,0.8846,0.9039,0.9168,0.9306,0.9417,0.9545,0.9585,0.9637,0.9716,0.9725,0.9834,0.9922,0.9922,0.9971,1.0049,1.0059,1.0127,1.0166,1.0205,1.0205,1.0235,1.0273,1.0341,1.0331,1.039,1.0687,1.0824,1.0584,1.025,0.9745,0.9282,0.9042,0.8847,0.8817,0.8767,0.8795,0.8839,0.8921,0.8949,0.9003,0.9046,0.9128,0.9193,0.922,0.9235,0.9366,0.9458,0.9552,0.9905,1.0173,1.0398,0.9158,0.8886,0.8721,0.8534,0.8436,0.8356,0.8247,0.7996,0.0,0.0,0.0,0.8322,0.8085,0.7777,0.7707,0.7604,0.7364,0.7364,0.7116,0.6802,0.6802,0.6635,0.634,0.6332,0.625,0.6148,0.6284,0.6218,0.6148,0.6284,0.6213,0.6073,0.6062,0.5978,0.5807,0.5632,0.5739,0.6,0.6182,0.6277,0.6327,0.6603,0.6766,0.6766,0.6864,0.6923,0.6923,0.6918,0.7085,0.7359,0.7354,0.7461,0.7771,0.7889,0.7951,0.7782,0.7866,0.7781,0.7419,0.7432,0.7392,0.7307,0.7468,0.7795,0.8357,0.8561,0.8651,0.8692,0.8935,0.9065,0.9056,0.9128,0.9151,0.9151,0.9279,0.9359,0.9359,0.9457,0.9515,0.9554,0.9554,0.9594,0.9655,0.9655,0.9704,0.9783,0.9823,0.9862,0.9941,1.0351,1.0588,1.0281,1.0072,0.9791,0.924,0.8963,0.8838,0.85,0.8416,0.8364,0.8347,0.8421,0.8488,0.8505,0.8578,0.8651,0.869,0.8717,0.8745,0.8933,0.8999,0.9015,0.9139,0.9475,0.9803,0.9099,0.8915,0.883,0.8721,0.8552,0.8393,0.8044,0.7541,0.8013,0.8178,0.8102,0.794,0.7846,0.7821,0.7443,0.7199,0.6962,0.6811,0.6572,0.6414,0.641,0.6324,0.6108,0.6177,0.6098,0.5962,0.5954,0.5958,0.5954,0.5954,0.5943,0.592,0.592,0.5834,0.5605,0.5506,0.5403,0.5285,0.5532,0.5837,0.6055,0.6109,0.6164,0.6268,0.6317,0.6317,0.6317,0.6317,0.6485,0.681,0.681,0.6923,0.7187,0.7241,0.7278,0.7388,0.731,0.7261,0.7324,0.7007,0.6811,0.6806,0.695,0.7293,0.7912,0.807,0.8152,0.825,0.8414,0.8496,0.8496,0.857,0.8626,0.861,0.8748,0.8797,0.8797,0.8895,0.8935,0.8943,0.9024,0.9105,0.9096,0.9096,0.9145,0.9136,0.9257,0.9337,0.9457,0.9823,1.0079,1.0012,0.9723,0.9491,0.9249,0.9067,0.8773,0.8446,0.8397,0.8278,0.8037,0.8016,0.8025,0.8013,0.8042,0.8099,0.8262,0.8301,0.8347,0.8449,0.8505,0.8533,0.8623,0.8734,0.8981,0.8507,0.8344,0.834,0.8239,0.807,0.7816,0.7648,0.7322,0.7572,0.7584,0.7488,0.7326,0.7322,0.7322,0.7096,0.6904,0.6757,0.6681,0.6368,0.5998,0.5995,0.584,0.5641,0.5631,0.5557,0.5423,0.5416,0.5373,0.5302,0.5296,0.5292,0.5296,0.5296,0.5219,0.5071,0.5004,0.49,0.4809,0.5239,0.5445,0.5513,0.5559,0.5668,0.5714,0.5714,0.5719,0.5714,0.5832,0.5996,0.6209,0.6268,0.6431,0.6593,0.6593,0.6647,0.681,0.6876,0.6864,0.6832,0.6698,0.6574,0.6502,0.6611,0.6774,0.7054,0.737,0.7621,0.7753,0.787,0.7946,0.8002,0.8036,0.8077,0.8062,0.8193,0.8275,0.8275,0.8308,0.8357,0.8398,0.8488,0.8578,0.8578,0.8618,0.87,0.8659,0.8732,0.8773,0.8814,0.8975,0.9257,0.9518,0.9472,0.9279,0.905,0.8903,0.8636,0.8259,0.8228,0.8117,0.7835,0.7802,0.7799,0.7656,0.7637,0.7715,0.7812,0.7841,0.7889,0.7984,0.8013,0.806,0.8145,0.8231,0.8484,0.7856,0.7764,0.7764,0.7687,0.7393,0.7274,0.7119,0.7087,0.7083,0.6926,0.6759,0.6783,0.6743,0.671,0.6633,0.656,0.6409,0.6409,0.611,0.5705,0.5698,0.5547,0.5283,0.5198,0.5135,0.4953,0.4938,0.487,0.4686,0.4739,0.4721,0.4697,0.4691,0.4644,0.4543,0.454,0.4541,0.4535,0.485,0.4991,0.4971,0.5064,0.5159,0.5117,0.5117,0.5171,0.5171,0.5344,0.5454,0.5668,0.5723,0.5837,0.5991,0.5991,0.605,0.6218,0.6376,0.644,0.638,0.6357,0.6304,0.6214,0.6287,0.6316,0.6351,0.6649,0.6956,0.7202,0.7321,0.7405,0.7538,0.7538,0.7538,0.7545,0.7621,0.7704,0.7712,0.7787,0.7814,0.7814,0.7919,0.801,0.8044,0.8085,0.8167,0.8167,0.8201,0.8209,0.8209,0.8209,0.8447,0.8805,0.9047,0.9015,0.869,0.8694,0.8529,0.8119,0.8113,0.7983,0.7738,0.7661,0.7612,0.7384,0.728,0.7312,0.7333,0.7372,0.7421,0.752,0.754,0.7579,0.7715,0.7801,0.806,0.776,0.758,0.7492,0.7309,0.6854,0.6841,0.6673,0.6313,0.6306,0.6223,0.615,0.6431,0.6297,0.6025,0.5796,0.5721,0.5715,0.5715,0.5628,0.5616,0.5619,0.5545,0.5343,0.5184,0.5043,0.487,0.4709,0.4572,0.4458,0.4447,0.4395,0.4367,0.4353,0.435,0.4337,0.4334,0.4276,0.4165,0.4215,0.4341,0.4626,0.4667,0.4659,0.4577,0.4574,0.4629,0.4743,0.4743,0.4908,0.5124,0.5179,0.5238,0.5352,0.5395,0.5449,0.5677,0.5832,0.5905,0.593,0.5944,0.5945,0.5931,0.5783,0.58,0.5986,0.593,0.6099,0.6617,0.6872,0.695,0.7063,0.707,0.707,0.707,0.707,0.7076,0.7132,0.7223,0.73,0.7251,0.7377,0.7454,0.7461,0.7496,0.7503,0.7538,0.7572,0.7614,0.7607,0.7663,0.7746,0.7912,0.8234,0.8504,0.8472,0.8617,0.8444,0.8125,0.8097,0.7941,0.7608,0.7295,0.7074,0.7164,0.6893,0.6824,0.692,0.6945,0.6966,0.7056,0.7077,0.7107,0.7255,0.7373,0.7637,0.6962,0.6874,0.6871,0.6786,0.6523,0.6438,0.6319,0.6095,0.6002,0.5757,0.5559,0.5672,0.5785,0.5829,0.5671,0.5474,0.5243,0.5168,0.501,0.4932,0.4932,0.4828,0.4786,0.4704,0.4644,0.4474,0.439,0.4262,0.4156,0.4087,0.4099,0.4051,0.4059,0.4023,0.4023,0.4023,0.4,0.3893,0.3891,0.3947,0.4047,0.4203,0.4277,0.4155,0.4254,0.4326,0.4311,0.4359,0.447,0.4577,0.4684,0.4798,0.4849,0.4904,0.5014,0.5069,0.5289,0.5416,0.5556,0.5663,0.569,0.5594,0.5603,0.5658,0.5663,0.5508,0.556,0.5857,0.6191,0.6398,0.6526,0.6611,0.666,0.666,0.666,0.6617,0.6666,0.6708,0.6708,0.6751,0.6781,0.6865,0.6907,0.6943,0.6985,0.6985,0.7021,0.7021,0.7021,0.7063,0.7112,0.7112,0.7314,0.7607,0.7912,0.8085,0.8,0.7916,0.7918,0.7834,0.7471,0.7369,0.7264,0.7037,0.6741,0.6561,0.6666,0.6535,0.6443,0.6565,0.6665,0.6725,0.6786,0.6867,0.7077,0.6254,0.6166,0.6077,0.5985,0.5985,0.5902,0.5813,0.5813,0.5633,0.5409,0.5162,0.5073,0.5225,0.538,0.5336,0.5092,0.4828,0.4742,0.457,0.4387,0.4307,0.4309,0.4307,0.4148,0.4115,0.3982,0.3897,0.3847,0.3752,0.3654,0.3593,0.3561,0.3564,0.3515,0.3493,0.3489,0.3489,0.3489,0.3491,0.3458,0.3387,0.3636,0.3779,0.3765,0.3867,0.3929,0.386,0.3969,0.4008,0.403,0.419,0.4242,0.4298,0.4408,0.4467,0.4577,0.4798,0.5014,0.512,0.5285,0.5345,0.5324,0.5375,0.5388,0.5335,0.5197,0.5142,0.5264,0.55,0.5755,0.597,0.611,0.6196,0.6196,0.6196,0.6202,0.6196,0.6202,0.6239,0.6239,0.6227,0.627,0.6313,0.6349,0.6435,0.6392,0.6428,0.6471,0.6471,0.6471,0.6513,0.652,0.652,0.6774,0.7286,0.7461,0.7461,0.7503,0.7558,0.7512,0.7241,0.727,0.7246,0.6819,0.6578,0.6412,0.6312,0.6169,0.6051,0.6137,0.6237,0.6329,0.636,0.6413,0.6474,0.5813,0.546,0.5188,0.5097,0.5099,0.501,0.501,0.5008,0.501,0.5003,0.4907,0.4734,0.4682,0.4574,0.4657,0.4641,0.4544,0.4454,0.4405,0.4323,0.4162,0.4081,0.4079,0.3682,0.3522,0.3511,0.3357,0.3168,0.3097,0.302,0.2943,0.2875,0.2938,0.2828,0.2838,0.2827,0.2755,0.2822,0.282,0.275,0.2813,0.2941,0.3184,0.3409,0.3444,0.3455,0.3477,0.3521,0.3532,0.3593,0.3646,0.3697,0.3796,0.3852,0.3965,0.419,0.4408,0.4574,0.4688,0.4743,0.4846,0.5035,0.4961,0.492,0.5008,0.4847,0.4796,0.4943,0.4918,0.5056,0.5443,0.5658,0.5723,0.5723,0.5723,0.5723,0.5723,0.5723,0.5723,0.5723,0.5717,0.5761,0.5723,0.5723,0.5766,0.5766,0.5798,0.583,0.5879,0.5927,0.6019,0.6019,0.6019,0.619,0.6647,0.6865,0.6914,0.6956,0.6985,0.7014,0.6914,0.6848,0.6753,0.6611,0.6382,0.6174,0.5985,0.586,0.5793,0.5823,0.5826,0.589,0.5859,0.5983,0.6044,0.5343,0.5102,0.4926,0.4837,0.4746,0.4474,0.4295,0.4295,0.4121,0.4121,0.4121,0.4034,0.3927,0.3897,0.3957,0.3951,0.3906,0.3816,0.3689,0.3618,0.3532,0.3504,0.3456,0.3295,0.3215,0.3217,0.3141,0.3049,0.3018,0.3023,0.2972,0.2941,0.2894,0.2764,0.2633,0.2551,0.2532,0.2426,0.2353,0.2421,0.2488,0.2555,0.2729,0.2935,0.3071,0.3126,0.3151,0.3088,0.3164,0.3237,0.3232,0.3258,0.3363,0.3466,0.3635,0.3805,0.386,0.3968,0.4128,0.4187,0.4301,0.4519,0.4583,0.4591,0.4624,0.4512,0.4466,0.4539,0.4515,0.4626,0.4824,0.5101,0.5251,0.5251,0.5246,0.5246,0.5251,0.5246,0.5246,0.5246,0.5246,0.5246,0.5241,0.5246,0.5246,0.5246,0.529,0.5285,0.528,0.5333,0.5376,0.5376,0.5376,0.5415,0.5539,0.6056,0.6319,0.6355,0.6392,0.6465,0.6409,0.6487,0.6435,0.6391,0.6163,0.5982,0.5826,0.5554,0.5495,0.5378,0.5399,0.5414,0.5383,0.5515,0.5571,0.4654,0.4574,0.4391,0.4302,0.4302,0.3942,0.376,0.3762,0.3585,0.3496,0.3408,0.3318,0.3229,0.323,0.3229,0.3183,0.3178,0.3153,0.3189,0.313,0.2961,0.2843,0.2788,0.2779,0.2689,0.2752,0.2749,0.2749,0.2744,0.2703,0.2671,0.2571,0.2527,0.2402,0.2277,0.2251,0.2149,0.205,0.203,0.2018,0.2153,0.2153,0.222,0.2345,0.2505,0.2641,0.2816,0.2812,0.2772,0.2817,0.2779,0.2779,0.2921,0.3079,0.3249,0.336,0.336,0.3469,0.3633,0.3744,0.3858,0.3971,0.4135,0.4187,0.4236,0.4101,0.416,0.4227,0.4227,0.4238,0.4396,0.4582,0.4707,0.4781,0.4807,0.4767,0.4762,0.4762,0.4767,0.4767,0.4762,0.4762,0.4714,0.4714,0.4675,0.4631,0.4635,0.4631,0.467,0.4718,0.4718,0.4762,0.4806,0.4806,0.4888,0.5188,0.5577,0.5663,0.583,0.5867,0.591,0.6007,0.6093,0.607,0.5989,0.5844,0.5595,0.5284,0.5121,0.4937,0.4927,0.4941,0.4973,0.5042,0.5137,0.3656,0.3595,0.3588,0.3587,0.3587,0.3497,0.3587,0.3497,0.3227,0.3138,0.305,0.2691,0.2603,0.2513,0.2424,0.224,0.2402,0.2712,0.2919,0.2866,0.2524,0.2326,0.2277,0.2113,0.2009,0.2051,0.1967,0.1965,0.1964,0.2037,0.2015,0.1828,0.1897,0.187,0.1678,0.1715,0.1689,0.1606,0.1574,0.1552,0.1614,0.1616,0.1614,0.1613,0.1677,0.192,0.252,0.2516,0.2481,0.241,0.2342,0.2382,0.2492,0.2645,0.2749,0.2852,0.2907,0.3077,0.3302,0.3357,0.3416,0.3527,0.3583,0.3638,0.3633,0.3732,0.3834,0.3926,0.3952,0.4033,0.4121,0.4043,0.4136,0.4424,0.4369,0.4308,0.4296,0.428,0.4276,0.4276,0.4276,0.4228,0.4136,0.4092,0.4052,0.3968,0.3968,0.3965,0.4049,0.4096,0.414,0.4228,0.4228,0.4188,0.4232,0.432,0.4622,0.4923,0.5135,0.5308,0.5308,0.5399,0.5448,0.548,0.5567,0.5439,0.5262,0.4963,0.4801,0.4658,0.4616,0.4528,0.4564,0.4628,0.473,0.3316,0.3109,0.2887,0.2872,0.2781,0.2691,0.2602,0.2603,0.2512,0.2512,0.2512,0.2333,0.2334,0.2244,0.2064,0.1885,0.1883,0.178,0.1932,0.233,0.2237,0.2125,0.2003,0.1995,0.1973,0.193,0.1899,0.1887,0.1888,0.1888,0.18,0.1712,0.1631,0.1457,0.1199,0.1113,0.1101,0.0863,0.0842,0.0899,0.1036,0.1086,0.1143,0.121,0.1277,0.1405,0.1595,0.1793,0.1899,0.191,0.1891,0.1959,0.2169,0.2259,0.2293,0.2413,0.2406,0.2519,0.2745,0.28,0.2856,0.2968,0.3077,0.3132,0.3132,0.3244,0.3411,0.3524,0.36,0.3632,0.3724,0.3629,0.3709,0.4063,0.4001,0.3947,0.3925,0.3857,0.3803,0.3704,0.3707,0.3615,0.3524,0.3476,0.348,0.3391,0.3391,0.3435,0.3476,0.348,0.348,0.3524,0.3568,0.3612,0.3656,0.3704,0.388,0.4184,0.4443,0.4661,0.4705,0.4787,0.4836,0.4932,0.5024,0.5033,0.4834,0.469,0.4517,0.4356,0.4247,0.4218,0.4193,0.4248,0.435,0.2824,0.2614,0.2473,0.2362,0.2359,0.2163,0.2064,0.1974,0.1885,0.1795,0.1795,0.1705,0.1615,0.1615,0.1436,0.1436,0.1346,0.1076,0.1158,0.1497,0.1583,0.1564,0.1534,0.1519,0.1504,0.1398,0.1448,0.1433,0.1432,0.1421,0.1336,0.1258,0.1258,0.1092,0.0844,0.0761,0.0675,0.0517,0.0504,0.0566,0.063,0.0689,0.0748,0.0877,0.0875,0.0875,0.0875,0.1077,0.1335,0.1509,0.1622,0.1698,0.1806,0.1836,0.1865,0.1947,0.1974,0.2073,0.224,0.224,0.2296,0.2408,0.2519,0.2573,0.2629,0.2798,0.2965,0.3023,0.3132,0.3193,0.3236,0.3192,0.3273,0.3415,0.35,0.3525,0.3463,0.3345,0.323,0.3129,0.3087,0.2993,0.2904,0.2857,0.286,0.2815,0.2818,0.2815,0.286,0.286,0.286,0.2904,0.2948,0.304,0.3084,0.3132,0.3176,0.3486,0.3792,0.4012,0.4144,0.418,0.4268,0.4403,0.4495,0.453,0.4422,0.4363,0.4244,0.4071,0.3935,0.3862,0.3841,0.386,0.3933,0.2232,0.2099,0.215,0.2037,0.203,0.1815,0.1709,0.1615,0.1346,0.1077,0.1076,0.0897,0.0807,0.0718,0.0718,0.0718,0.0628,0.0538,0.0538,0.0626,0.0625,0.0708,0.0871,0.0855,0.0761,0.0757,0.0742,0.0652,0.0733,0.0719,0.0551,0.0632,0.0551,0.055,0.0468,0.0537,0.0456,0.0378,0.037,0.0361,0.0354,0.042,0.0415,0.0406,0.0405,0.0404,0.0404,0.0472,0.0741,0.1205,0.1312,0.1344,0.1365,0.1385,0.1428,0.1526,0.1543,0.1635,0.1738,0.1792,0.1847,0.1961,0.2015,0.2015,0.2184,0.2352,0.2464,0.2465,0.2577,0.2635,0.2633,0.2625,0.2672,0.2662,0.2937,0.3043,0.2966,0.2814,0.2678,0.2663,0.2561,0.2413,0.2279,0.2235,0.2192,0.2105,0.2107,0.215,0.2192,0.2237,0.2326,0.2326,0.2326,0.2415,0.2415,0.2462,0.2551,0.2776,0.3084,0.3309,0.353,0.366,0.3697,0.3832,0.3921,0.3997,0.4057,0.4006,0.3961,0.3834,0.371,0.3565,0.3533,0.353,0.3572,0.137,0.1167,0.1145,0.1126,0.1111,0.1011,0.1,0.0987,0.0897,0.0718,0.0718,0.0718,0.0538,0.0448,0.0269,0.009,-0.009,-0.0269,-0.0359,-0.0359,-0.0359,0.0089,0.0621,0.0697,0.0604,0.0602,0.0506,0.0584,0.0583,0.0408,0.0322,0.0161,0.0,-0.0157,-0.0235,-0.0234,-0.0311,-0.031,-0.0304,-0.0299,-0.0295,-0.0285,-0.0349,-0.0277,-0.0273,-0.0203,-0.0202,-0.0135,0.0135,0.0674,0.0737,0.0789,0.0896,0.0885,0.0988,0.1071,0.1171,0.1265,0.1298,0.1347,0.1459,0.1514,0.1625,0.1682,0.174,0.1905,0.1959,0.1959,0.2015,0.2015,0.2015,0.2015,0.2071,0.2115,0.2366,0.2583,0.2488,0.2351,0.2201,0.2104,0.1967,0.1803,0.1706,0.1657,0.1658,0.1614,0.1569,0.1614,0.1657,0.1657,0.1701,0.1657,0.1657,0.1746,0.1791,0.1835,0.1971,0.215,0.2375,0.2553,0.2865,0.3087,0.3173,0.3214,0.3391,0.3473,0.3565,0.3618,0.3591,0.3559,0.3453,0.3303,0.3228,0.3208,0.3261,0.0894,0.0794,0.0681,0.0575,0.0568,0.0373,0.0276,0.0182,0.018,0.009,0.009,0.009,0.009,-0.009,-0.0269,-0.0359,-0.0538,-0.0628,-0.0718,-0.0718,-0.0628,-0.0359,0.0,0.0088,0.0088,0.0088,0.0086,0.0,0.0,-0.0083,-0.0164,-0.0325,-0.0402,-0.0556,-0.055,-0.0629,-0.0629,-0.0627,-0.0619,-0.0613,-0.0604,-0.0589,-0.0577,-0.0569,-0.0556,-0.0546,-0.0473,-0.0405,-0.0135,0.027,0.0404,0.0468,0.0593,0.0649,0.0636,0.0736,0.0788,0.083,0.0808,0.0859,0.0967,0.1069,0.1178,0.1234,0.129,0.1401,0.14,0.14,0.14,0.14,0.1456,0.1456,0.14,0.1453,0.165,0.1876,0.202,0.1896,0.1713,0.1548,0.1417,0.1241,0.1148,0.1134,0.1123,0.1121,0.1077,0.1122,0.1121,0.1121,0.1076,0.1076,0.1076,0.1166,0.1211,0.13,0.1389,0.1569,0.1748,0.1973,0.2243,0.2511,0.2598,0.264,0.2815,0.2948,0.304,0.3173,0.3234,0.3169,0.311,0.3064,0.2982,0.2897,0.2961,0.0606,0.0605,0.0397,0.0295,0.0195,-0.0189,-0.0371,-0.0461,-0.0543,-0.0628,-0.0628,-0.0718,-0.0718,-0.0807,-0.0807,-0.0807,-0.0897,-0.0987,-0.0987,-0.0987,-0.0987,-0.0897,-0.0896,-0.0626,-0.0536,-0.0535,-0.0704,-0.0612,-0.0608,-0.0683,-0.0754,-0.0825,-0.0818,-0.0804,-0.0951,-0.0867,-0.0786,-0.0864,-0.0862,-0.0931,-0.0918,-0.0905,-0.0893,-0.0876,-0.085,-0.0831,-0.0749,-0.0676,-0.0404,0.0067,0.0202,0.0202,0.0335,0.0394,0.0388,0.0385,0.0314,0.0306,0.0358,0.0355,0.0468,0.0572,0.0623,0.0674,0.0787,0.0785,0.0785,0.0841,0.0841,0.0785,0.0785,0.0785,0.0785,0.084,0.0839,0.1049,0.1344,0.135,0.1167,0.1063,0.0932,0.0769,0.0709,0.0648,0.0633,0.0629,0.0629,0.0629,0.0629,0.0629,0.0629,0.0629,0.0629,0.0629,0.0674,0.0718,0.0852,0.1031,0.1211,0.1435,0.166,0.1884,0.1975,0.2107,0.2284,0.2415,0.2462,0.2593,0.2724,0.2752,0.2654,0.2689,0.2741,0.264,0.2619,-0.0505,-0.0505,-0.0503,-0.0498,-0.0588,-0.067,-0.0751,-0.0739,-0.0724,-0.0808,-0.0807,-0.0897,-0.1076,-0.1256,-0.1436,-0.1705,-0.1795,-0.1795,-0.1885,-0.1885,-0.1885,-0.1885,-0.1705,-0.1166,-0.0718,-0.0806,-0.0715,-0.0712,-0.0797,-0.1134,-0.1205,-0.128,-0.1492,-0.1702,-0.161,-0.1507,-0.1651,-0.1573,-0.1573,-0.1568,-0.1554,-0.1454,-0.1437,-0.1494,-0.144,-0.1403,-0.1456,-0.1429,-0.1212,-0.0942,-0.0539,-0.0337,-0.0269,-0.0268,-0.0264,-0.0195,-0.0129,-0.0126,-0.0123,-0.0061,0.0061,0.0118,0.0175,0.0173,0.0168,0.0224,0.0224,0.0224,0.0224,0.0224,0.0224,0.0224,0.0168,0.0224,0.0224,0.0224,0.0387,0.0591,0.0738,0.0627,0.0459,0.0296,0.0288,0.0191,0.0186,0.0136,0.0135,0.0135,0.0135,0.0135,0.0135,0.0135,0.0135,0.0135,0.018,0.0225,0.0359,0.0538,0.0718,0.0852,0.1077,0.1257,0.1391,0.157,0.1794,0.1882,0.1971,0.2107,0.2284,0.2273,0.2264,0.231,0.2336,0.229,0.2349,-0.0909,-0.101,-0.1111,-0.1205,-0.1389,-0.1461,-0.153,-0.15,-0.147,-0.1448,-0.1438,-0.1615,-0.1705,-0.1795,-0.1885,-0.2064,-0.2155,-0.2155,-0.2155,-0.2155,-0.2155,-0.2155,-0.2155,-0.1705,-0.1436,-0.1436,-0.1435,-0.1436,-0.1519,-0.1596,-0.1754,-0.1738,-0.1949,-0.199,-0.2036,-0.2006,-0.1906,-0.189,-0.1887,-0.1887,-0.1881,-0.1865,-0.1835,-0.1821,-0.1768,-0.1732,-0.1683,-0.1661,-0.1568,-0.1419,-0.1144,-0.0942,-0.0808,-0.0673,-0.0667,-0.0595,-0.0461,-0.039,-0.0382,-0.0315,-0.025,-0.0243,-0.0239,-0.0232,-0.0227,-0.0224,-0.0168,-0.0168,-0.0168,-0.0168,-0.0168,-0.028,-0.0336,-0.0336,-0.0393,-0.0393,-0.0335,0.0,0.0273,0.0217,0.0053,-0.0052,-0.0101,-0.0247,-0.0288,-0.0281,-0.0371,-0.0369,-0.0315,-0.0315,-0.0315,-0.0315,-0.0315,-0.0315,-0.027,-0.0225,-0.009,0.0045,0.0225,0.0314,0.0449,0.0629,0.0763,0.1032,0.13,0.1435,0.1523,0.1658,0.1794,0.1789,0.1823,0.1895,0.1953,0.1939,0.2026,-0.1212,-0.1414,-0.1616,-0.1817,-0.2112,-0.2272,-0.2326,-0.2286,-0.2242,-0.21,-0.216,-0.2244,-0.2155,-0.2244,-0.2334,-0.2334,-0.2424,-0.2512,-0.2602,-0.2602,-0.2602,-0.2602,-0.2512,-0.2423,-0.2423,-0.2423,-0.2154,-0.2064,-0.2064,-0.2242,-0.2131,-0.2188,-0.2259,-0.23,-0.2234,-0.2114,-0.2254,-0.2225,-0.2207,-0.2201,-0.2201,-0.2196,-0.2172,-0.2146,-0.2114,-0.2075,-0.201,-0.1972,-0.1871,-0.1763,-0.1753,-0.1614,-0.1412,-0.1076,-0.0941,-0.094,-0.0805,-0.0797,-0.0784,-0.0714,-0.0707,-0.0688,-0.0671,-0.0652,-0.0696,-0.0628,-0.0625,-0.0565,-0.0621,-0.0561,-0.0561,-0.0673,-0.0785,-0.0785,-0.0897,-0.0954,-0.0898,-0.0561,-0.0391,-0.0278,-0.0382,-0.0481,-0.0577,-0.0669,-0.0698,-0.0727,-0.0815,-0.085,-0.0827,-0.081,-0.0765,-0.0808,-0.0808,-0.0763,-0.0763,-0.0583,-0.0494,-0.0404,-0.0225,-0.018,-0.009,0.0045,0.0269,0.0584,0.0807,0.0942,0.1076,0.1211,0.1257,0.13,0.1386,0.1465,0.1538,0.1603,0.1712,-0.2118,-0.222,-0.222,-0.2321,-0.2314,-0.2374,-0.2429,-0.2287,-0.2337,-0.2197,-0.2248,-0.2334,-0.2513,-0.2515,-0.2694,-0.2872,-0.296,-0.3138,-0.3227,-0.3227,-0.3227,-0.3229,-0.3229,-0.3139,-0.3227,-0.3138,-0.2691,-0.2333,-0.2334,-0.2333,-0.2505,-0.249,-0.2634,-0.2762,-0.2803,-0.2825,-0.2769,-0.2893,-0.2859,-0.2838,-0.275,-0.2747,-0.2823,-0.2718,-0.2683,-0.2715,-0.2669,-0.2652,-0.2584,-0.2569,-0.2517,-0.2493,-0.2217,-0.1814,-0.1546,-0.148,-0.1412,-0.1339,-0.1332,-0.1399,-0.14,-0.1386,-0.1349,-0.1387,-0.1295,-0.1258,-0.1171,-0.1157,-0.114,-0.1124,-0.1122,-0.1178,-0.1178,-0.1234,-0.1234,-0.129,-0.1402,-0.1346,-0.1121,-0.0952,-0.0944,-0.0936,-0.1026,-0.1115,-0.1141,-0.1209,-0.1235,-0.1257,-0.1222,-0.1191,-0.1217,-0.1258,-0.1256,-0.1254,-0.121,-0.0986,-0.0851,-0.0807,-0.0717,-0.0629,-0.0539,-0.045,-0.0225,0.0045,0.0314,0.0494,0.0629,0.0718,0.0808,0.0853,0.0942,0.1031,0.1111,0.1233,0.137,-0.2725,-0.2826,-0.2924,-0.3126,-0.3221,-0.3198,-0.3134,-0.3055,-0.3019,-0.2956,-0.2983,-0.305,-0.3051,-0.3141,-0.3141,-0.332,-0.3408,-0.3496,-0.3587,-0.3587,-0.3587,-0.3587,-0.3587,-0.3587,-0.3587,-0.3497,-0.3139,-0.296,-0.296,-0.305,-0.3051,-0.3133,-0.3194,-0.3252,-0.3298,-0.3238,-0.3237,-0.3267,-0.3214,-0.3175,-0.3144,-0.3141,-0.3141,-0.3127,-0.3105,-0.3069,-0.3016,-0.2972,-0.2877,-0.281,-0.2764,-0.2725,-0.2632,-0.242,-0.2151,-0.2017,-0.1951,-0.1884,-0.1884,-0.1884,-0.1882,-0.1877,-0.19,-0.1862,-0.1834,-0.1784,-0.1741,-0.165,-0.1634,-0.1597,-0.1573,-0.1626,-0.1681,-0.1681,-0.1737,-0.1794,-0.1906,-0.1908,-0.1794,-0.1568,-0.1505,-0.1497,-0.1491,-0.1521,-0.1608,-0.1625,-0.1685,-0.1638,-0.1641,-0.1649,-0.166,-0.1626,-0.1666,-0.1612,-0.1567,-0.1389,-0.121,-0.121,-0.1165,-0.1076,-0.0988,-0.0898,-0.0718,-0.0493,-0.0224,0.0,0.0135,0.0269,0.0315,0.0405,0.0494,0.0583,0.0718,0.0852,0.0987,-0.3128,-0.333,-0.3629,-0.3831,-0.3934,-0.4034,-0.3849,-0.3833,-0.3813,-0.3633,-0.36,-0.3587,-0.3587,-0.3587,-0.3587,-0.3676,-0.3676,-0.3676,-0.3764,-0.3765,-0.3764,-0.3764,-0.3765,-0.3765,-0.3857,-0.3944,-0.3942,-0.3765,-0.3497,-0.3497,-0.3587,-0.3494,-0.3585,-0.365,-0.3592,-0.3556,-0.3474,-0.3496,-0.3415,-0.3372,-0.3236,-0.3217,-0.3297,-0.3297,-0.3297,-0.3339,-0.3366,-0.3325,-0.3329,-0.3237,-0.3098,-0.3046,-0.299,-0.2963,-0.2822,-0.269,-0.249,-0.2354,-0.2287,-0.2287,-0.2287,-0.2284,-0.2241,-0.2207,-0.2181,-0.2211,-0.2153,-0.2035,-0.1999,-0.1979,-0.194,-0.2024,-0.2073,-0.2128,-0.2184,-0.2296,-0.2352,-0.2352,-0.2406,-0.2237,-0.2125,-0.2065,-0.2,-0.2052,-0.2135,-0.2108,-0.216,-0.2168,-0.2111,-0.2106,-0.21,-0.2029,-0.1994,-0.193,-0.1835,-0.1792,-0.1658,-0.1614,-0.1569,-0.1526,-0.1435,-0.1345,-0.1165,-0.0985,-0.0807,-0.0538,-0.0404,-0.0225,-0.009,0.0,0.009,0.018,0.0314,0.0449,0.0584,-0.3932,-0.3932,-0.3932,-0.3934,-0.4034,-0.4034,-0.3949,-0.3823,-0.391,-0.3728,-0.3765,-0.3674,-0.3674,-0.3765,-0.3857,-0.3857,-0.3944,-0.4121,-0.421,-0.421,-0.421,-0.4208,-0.421,-0.448,-0.448,-0.448,-0.4654,-0.4297,-0.3942,-0.3764,-0.3676,-0.3676,-0.3764,-0.3669,-0.3912,-0.3953,-0.3902,-0.4024,-0.3896,-0.3776,-0.3706,-0.369,-0.3843,-0.3923,-0.3921,-0.399,-0.4033,-0.3984,-0.3991,-0.4027,-0.3868,-0.3786,-0.3746,-0.3668,-0.3701,-0.3422,-0.3088,-0.2686,-0.2688,-0.2688,-0.2688,-0.2755,-0.2671,-0.2671,-0.2642,-0.2662,-0.2598,-0.246,-0.2404,-0.2423,-0.2394,-0.2395,-0.2424,-0.2525,-0.2583,-0.2689,-0.274,-0.2685,-0.274,-0.2852,-0.274,-0.2629,-0.2567,-0.2571,-0.2625,-0.2593,-0.2611,-0.2611,-0.2598,-0.2572,-0.2536,-0.2443,-0.2386,-0.2316,-0.2192,-0.2105,-0.2061,-0.2018,-0.1973,-0.1884,-0.1792,-0.1701,-0.1612,-0.1433,-0.1254,-0.1076,-0.0852,-0.0674,-0.0494,-0.0359,-0.0314,-0.0225,-0.0135,0.0,0.0225,-0.4636,-0.4236,-0.4535,-0.4638,-0.4736,-0.4834,-0.4833,-0.4691,-0.4666,-0.4562,-0.4412,-0.4389,-0.4389,-0.4389,-0.4478,-0.4567,-0.4567,-0.4656,-0.4654,-0.4654,-0.4654,-0.4652,-0.4743,-0.4832,-0.4832,-0.4924,-0.4924,-0.483,-0.4476,-0.4389,-0.4389,-0.4389,-0.4387,-0.4478,-0.448,-0.4438,-0.4563,-0.4561,-0.4417,-0.4288,-0.4234,-0.4184,-0.4153,-0.4231,-0.4231,-0.4309,-0.4373,-0.4353,-0.4363,-0.4317,-0.4125,-0.407,-0.4001,-0.3916,-0.3849,-0.3776,-0.3515,-0.3357,-0.3355,-0.3288,-0.3288,-0.3291,-0.3291,-0.3351,-0.3347,-0.3253,-0.3193,-0.317,-0.313,-0.3081,-0.2955,-0.2993,-0.2954,-0.2985,-0.301,-0.2983,-0.303,-0.3021,-0.3021,-0.3188,-0.3302,-0.3188,-0.3074,-0.3019,-0.3021,-0.3005,-0.303,-0.3044,-0.3011,-0.3014,-0.2962,-0.29,-0.2802,-0.272,-0.258,-0.2464,-0.2417,-0.2373,-0.2328,-0.2237,-0.2148,-0.2059,-0.1969,-0.1882,-0.1705,-0.1526,-0.13,-0.1121,-0.0897,-0.0763,-0.0672,-0.0583,-0.0494,-0.036,-0.0135,-0.5238,-0.4738,-0.514,-0.5338,-0.534,-0.5539,-0.5517,-0.5339,-0.5235,-0.5208,-0.5053,-0.501,-0.501,-0.501,-0.4919,-0.4921,-0.501,-0.501,-0.501,-0.501,-0.501,-0.501,-0.501,-0.501,-0.5099,-0.5099,-0.5191,-0.5191,-0.5191,-0.5102,-0.5102,-0.501,-0.4832,-0.4921,-0.501,-0.4907,-0.4868,-0.4853,-0.4722,-0.463,-0.4572,-0.448,-0.452,-0.4499,-0.4482,-0.4543,-0.4543,-0.454,-0.4568,-0.4599,-0.4535,-0.4543,-0.4549,-0.4446,-0.4354,-0.4319,-0.418,-0.4128,-0.3974,-0.3892,-0.3825,-0.3825,-0.3825,-0.3692,-0.3758,-0.3823,-0.3739,-0.3584,-0.3537,-0.3554,-0.3616,-0.3512,-0.3522,-0.347,-0.3475,-0.3429,-0.3332,-0.338,-0.3418,-0.3522,-0.3633,-0.3691,-0.3577,-0.3463,-0.3408,-0.3355,-0.3392,-0.3476,-0.35,-0.3439,-0.3411,-0.3355,-0.3195,-0.3102,-0.3001,-0.2863,-0.2757,-0.2682,-0.2637,-0.2593,-0.2504,-0.2415,-0.2284,-0.2196,-0.2109,-0.2018,-0.1791,-0.1567,-0.1299,-0.1165,-0.1031,-0.0896,-0.0807,-0.0674,-0.0494,-0.5534,-0.5534,-0.5536,-0.5634,-0.5534,-0.5636,-0.5517,-0.5429,-0.5327,-0.5298,-0.5203,-0.5099,-0.5097,-0.5099,-0.5188,-0.5099,-0.501,-0.501,-0.5099,-0.5099,-0.501,-0.5099,-0.5188,-0.5366,-0.5458,-0.546,-0.5549,-0.5641,-0.5641,-0.5638,-0.5369,-0.5099,-0.5188,-0.5099,-0.5099,-0.5272,-0.5235,-0.5155,-0.5069,-0.493,-0.4851,-0.476,-0.4773,-0.4826,-0.476,-0.4779,-0.494,-0.4937,-0.5007,-0.5126,-0.5056,-0.5084,-0.5104,-0.5067,-0.4968,-0.4894,-0.4807,-0.4739,-0.4616,-0.4236,-0.3889,-0.3825,-0.3892,-0.3961,-0.3961,-0.3894,-0.3816,-0.3862,-0.3868,-0.3821,-0.3887,-0.3882,-0.3936,-0.401,-0.394,-0.392,-0.3863,-0.3801,-0.3837,-0.3919,-0.4021,-0.4076,-0.4132,-0.4018,-0.3799,-0.3747,-0.391,-0.3938,-0.3969,-0.3924,-0.3869,-0.3763,-0.3593,-0.3459,-0.3357,-0.3259,-0.3146,-0.301,-0.2948,-0.2907,-0.2821,-0.2732,-0.264,-0.2551,-0.2464,-0.2373,-0.2281,-0.1969,-0.1701,-0.1569,-0.1435,-0.1256,-0.1076,-0.0942,-0.0718,-0.6637,-0.6537,-0.6537,-0.6337,-0.5839,-0.6037,-0.6007,-0.5823,-0.5889,-0.5947,-0.5808,-0.5897,-0.5897,-0.5808,-0.5897,-0.5899,-0.5899,-0.5897,-0.5808,-0.5899,-0.5899,-0.5897,-0.5897,-0.5897,-0.5988,-0.5988,-0.608,-0.6169,-0.6169,-0.608,-0.608,-0.5811,-0.5547,-0.5547,-0.5636,-0.5722,-0.5778,-0.5739,-0.5762,-0.5692,-0.5732,-0.5613,-0.551,-0.5505,-0.5482,-0.5393,-0.5422,-0.5407,-0.5404,-0.5467,-0.5419,-0.5478,-0.5606,-0.5489,-0.5475,-0.5384,-0.5277,-0.5155,-0.5005,-0.4675,-0.4428,-0.4428,-0.4428,-0.4361,-0.4361,-0.4361,-0.4428,-0.4408,-0.432,-0.4279,-0.4404,-0.444,-0.4418,-0.4451,-0.4442,-0.4395,-0.4376,-0.4311,-0.4276,-0.4363,-0.4376,-0.4408,-0.4463,-0.457,-0.4353,-0.4193,-0.4301,-0.4405,-0.4378,-0.4409,-0.4287,-0.4217,-0.4043,-0.3896,-0.3784,-0.3685,-0.3537,-0.3401,-0.3274,-0.3182,-0.3143,-0.3084,-0.2993,-0.2862,-0.2773,-0.2684,-0.2551,-0.2326,-0.2103,-0.1927,-0.1703,-0.1569,-0.139,-0.1211,-0.0987,-0.7235,-0.7235,-0.7235,-0.6836,-0.6439,-0.6537,-0.6496,-0.63,-0.6461,-0.6498,-0.6435,-0.6428,-0.6428,-0.6428,-0.6428,-0.634,-0.634,-0.634,-0.634,-0.634,-0.634,-0.6428,-0.6428,-0.634,-0.634,-0.6428,-0.6428,-0.634,-0.634,-0.6428,-0.634,-0.6254,-0.608,-0.6083,-0.6169,-0.6346,-0.6428,-0.6401,-0.6358,-0.6297,-0.6279,-0.6166,-0.6077,-0.5952,-0.5885,-0.579,-0.5632,-0.5596,-0.5637,-0.5634,-0.5702,-0.5709,-0.5832,-0.5781,-0.5783,-0.5677,-0.5633,-0.5544,-0.5362,-0.5051,-0.4834,-0.4694,-0.4761,-0.4761,-0.4827,-0.4827,-0.4694,-0.4761,-0.4758,-0.4827,-0.4891,-0.4863,-0.488,-0.498,-0.4998,-0.4948,-0.4887,-0.4816,-0.4742,-0.4759,-0.478,-0.4755,-0.4739,-0.4794,-0.4739,-0.4574,-0.4574,-0.4684,-0.4728,-0.4707,-0.474,-0.4663,-0.4561,-0.4412,-0.4277,-0.41,-0.3968,-0.3813,-0.3673,-0.3526,-0.3427,-0.3366,-0.3262,-0.3129,-0.304,-0.2954,-0.2818,-0.2682,-0.246,-0.2194,-0.2016,-0.1839,-0.166,-0.1524,-0.13,-0.7235,-0.7235,-0.7235,-0.7235,-0.7135,-0.7135,-0.6988,-0.6756,-0.6714,-0.6664,-0.6444,-0.6428,-0.6428,-0.6435,-0.6536,-0.6554,-0.656,-0.6557,-0.6567,-0.6582,-0.6659,-0.6542,-0.6438,-0.6532,-0.6517,-0.6428,-0.652,-0.6609,-0.6517,-0.6694,-0.6605,-0.6605,-0.6609,-0.6435,-0.6428,-0.6428,-0.6428,-0.6425,-0.6416,-0.6495,-0.6464,-0.6371,-0.6395,-0.6298,-0.6166,-0.6056,-0.5946,-0.5874,-0.5908,-0.5944,-0.6018,-0.6096,-0.6244,-0.6391,-0.6391,-0.6271,-0.6392,-0.6367,-0.6106,-0.5319,-0.4989,-0.4967,-0.5027,-0.5027,-0.4894,-0.4894,-0.496,-0.5093,-0.4964,-0.5024,-0.5087,-0.5282,-0.5394,-0.5418,-0.5492,-0.5431,-0.5303,-0.5276,-0.5199,-0.5107,-0.5128,-0.5148,-0.5031,-0.5014,-0.5066,-0.4956,-0.4901,-0.4956,-0.5011,-0.5062,-0.5097,-0.512,-0.5038,-0.4927,-0.4735,-0.4561,-0.4417,-0.4241,-0.404,-0.3883,-0.3726,-0.3646,-0.3544,-0.3398,-0.3306,-0.3262,-0.317,-0.3078,-0.2815,-0.2551,-0.2286,-0.2107,-0.1973,-0.1794,-0.1614,-0.7736,-0.7739,-0.7935,-0.8031,-0.7935,-0.7434,-0.7085,-0.6838,-0.6844,-0.6789,-0.689,-0.6874,-0.6874,-0.6897,-0.6982,-0.7115,-0.7034,-0.7148,-0.7168,-0.7145,-0.7158,-0.7121,-0.7001,-0.6933,-0.6884,-0.6874,-0.6966,-0.7058,-0.7146,-0.7143,-0.7319,-0.7408,-0.7231,-0.7146,-0.6877,-0.6786,-0.6871,-0.6874,-0.6871,-0.6871,-0.6868,-0.6822,-0.676,-0.6767,-0.6557,-0.6509,-0.6351,-0.6351,-0.6356,-0.6359,-0.6423,-0.6556,-0.6641,-0.6791,-0.6762,-0.6673,-0.6708,-0.6481,-0.6239,-0.5798,-0.5666,-0.561,-0.5428,-0.5428,-0.5491,-0.5491,-0.5557,-0.5495,-0.5428,-0.5491,-0.5624,-0.569,-0.5745,-0.5745,-0.5745,-0.5672,-0.5618,-0.5568,-0.5559,-0.5512,-0.5479,-0.551,-0.5493,-0.5397,-0.5389,-0.5403,-0.5344,-0.5399,-0.5458,-0.5513,-0.5559,-0.5559,-0.5504,-0.5411,-0.5261,-0.5031,-0.4867,-0.4673,-0.4395,-0.4101,-0.3985,-0.3961,-0.3817,-0.3714,-0.3619,-0.3524,-0.3435,-0.3303,-0.3173,-0.2951,-0.2687,-0.242,-0.2239,-0.2107,-0.1975,-0.8233,-0.8333,-0.8432,-0.8499,-0.8357,-0.7861,-0.7498,-0.732,-0.7168,-0.7234,-0.733,-0.746,-0.7492,-0.7541,-0.764,-0.7721,-0.7735,-0.7819,-0.7875,-0.7865,-0.7777,-0.7731,-0.7675,-0.7576,-0.7524,-0.7478,-0.7521,-0.7595,-0.7591,-0.7768,-0.7856,-0.7856,-0.7944,-0.7588,-0.7323,-0.7319,-0.7408,-0.7408,-0.7408,-0.7408,-0.7408,-0.7386,-0.7355,-0.7281,-0.7182,-0.7077,-0.6905,-0.6862,-0.6846,-0.6831,-0.6843,-0.6953,-0.6945,-0.6945,-0.7022,-0.6977,-0.693,-0.6745,-0.6666,-0.6592,-0.6502,-0.6415,-0.6136,-0.5896,-0.5892,-0.5822,-0.5822,-0.5826,-0.5892,-0.5892,-0.5954,-0.5958,-0.6024,-0.6024,-0.6086,-0.6075,-0.6113,-0.6049,-0.6101,-0.5986,-0.5988,-0.5976,-0.5888,-0.5853,-0.5785,-0.5784,-0.5786,-0.5786,-0.5791,-0.5791,-0.5845,-0.5845,-0.5791,-0.5662,-0.5552,-0.5473,-0.5288,-0.5128,-0.4849,-0.4538,-0.4388,-0.4359,-0.4194,-0.4031,-0.3888,-0.3748,-0.3663,-0.353,-0.3394,-0.3217,-0.304,-0.2771,-0.2549,-0.2373,-0.2288,-0.8825,-0.8825,-0.8825,-0.8739,-0.8612,-0.8575,-0.8385,-0.8102,-0.7927,-0.7856,-0.7863,-0.793,-0.7978,-0.8033,-0.827,-0.8344,-0.8273,-0.8385,-0.8411,-0.8393,-0.8284,-0.8265,-0.8296,-0.8099,-0.792,-0.7948,-0.7975,-0.7901,-0.7952,-0.8032,-0.8032,-0.7944,-0.8032,-0.7944,-0.7856,-0.7856,-0.7856,-0.7764,-0.7764,-0.7764,-0.7676,-0.7764,-0.7749,-0.7694,-0.762,-0.7536,-0.7388,-0.7338,-0.7215,-0.7103,-0.6999,-0.6991,-0.7026,-0.7103,-0.7184,-0.7218,-0.7246,-0.7319,-0.7289,-0.722,-0.7232,-0.7052,-0.6503,-0.6148,-0.6024,-0.609,-0.6156,-0.6152,-0.6152,-0.6086,-0.6024,-0.6156,-0.6288,-0.6354,-0.6486,-0.6544,-0.6609,-0.6677,-0.6681,-0.6641,-0.6559,-0.6497,-0.6276,-0.6178,-0.6215,-0.6174,-0.617,-0.6109,-0.6059,-0.5905,-0.5905,-0.59,-0.5905,-0.585,-0.576,-0.5725,-0.5672,-0.5457,-0.537,-0.5098,-0.4965,-0.4739,-0.4546,-0.4333,-0.4087,-0.3928,-0.3843,-0.3755,-0.3619,-0.3486,-0.3306,-0.3084,-0.286,-0.2637,-0.2509,-0.8825,-0.8825,-0.9031,-0.9033,-0.8856,-0.8804,-0.8455,-0.8087,-0.793,-0.7944,-0.7863,-0.8031,-0.8121,-0.8128,-0.8393,-0.8497,-0.856,-0.862,-0.8676,-0.8646,-0.8653,-0.8626,-0.8555,-0.8449,-0.8232,-0.8219,-0.8227,-0.822,-0.8224,-0.8292,-0.8388,-0.8388,-0.8388,-0.8388,-0.8388,-0.8392,-0.8208,-0.8032,-0.8032,-0.7944,-0.7944,-0.7944,-0.7944,-0.791,-0.7891,-0.7805,-0.7673,-0.7682,-0.7544,-0.7408,-0.7497,-0.7481,-0.7326,-0.7488,-0.7646,-0.7872,-0.7799,-0.7815,-0.776,-0.7681,-0.764,-0.7562,-0.7237,-0.698,-0.6726,-0.6577,-0.6573,-0.649,-0.6482,-0.6416,-0.6416,-0.6486,-0.6548,-0.6679,-0.6745,-0.6811,-0.6872,-0.692,-0.6932,-0.6974,-0.6958,-0.692,-0.6699,-0.6653,-0.6687,-0.6558,-0.6512,-0.6449,-0.6337,-0.6187,-0.6119,-0.6119,-0.6119,-0.6119,-0.6064,-0.6032,-0.591,-0.5864,-0.576,-0.5596,-0.538,-0.5145,-0.4867,-0.4633,-0.4353,-0.4172,-0.4064,-0.3932,-0.384,-0.3751,-0.3619,-0.3398,-0.3176,-0.2951,-0.2729,-0.9122,-0.9118,-0.9253,-0.9184,-0.8933,-0.875,-0.8543,-0.8345,-0.8255,-0.8208,-0.8239,-0.8375,-0.8479,-0.854,-0.8818,-0.8983,-0.8987,-0.9143,-0.9091,-0.9162,-0.9018,-0.9092,-0.8922,-0.8898,-0.8738,-0.8613,-0.8568,-0.8539,-0.8508,-0.8736,-0.8915,-0.8915,-0.8915,-0.8915,-0.8915,-0.8823,-0.874,-0.856,-0.83,-0.8212,-0.8212,-0.8208,-0.8208,-0.8208,-0.8208,-0.8134,-0.8135,-0.8181,-0.8098,-0.7996,-0.8118,-0.7965,-0.7819,-0.7944,-0.7957,-0.8025,-0.8012,-0.8036,-0.8027,-0.801,-0.7959,-0.792,-0.7924,-0.7685,-0.7413,-0.7216,-0.6985,-0.6841,-0.6889,-0.6881,-0.6881,-0.6876,-0.6876,-0.6872,-0.6937,-0.7003,-0.7068,-0.7134,-0.719,-0.7246,-0.7278,-0.7264,-0.7206,-0.7156,-0.7071,-0.6977,-0.6862,-0.6753,-0.6668,-0.6549,-0.6465,-0.644,-0.644,-0.6386,-0.6327,-0.6273,-0.6263,-0.6244,-0.625,-0.6082,-0.5808,-0.5512,-0.5318,-0.4952,-0.4606,-0.4434,-0.4313,-0.4152,-0.4056,-0.3972,-0.384,-0.3663,-0.3439,-0.3173,-0.304,-0.9628,-0.9612,-0.9514,-0.9243,-0.8824,-0.8738,-0.8664,-0.8652,-0.8656,-0.8652,-0.8629,-0.8913,-0.9047,-0.9108,-0.938,-0.9551,-0.9571,-0.9616,-0.962,-0.9624,-0.96,-0.9682,-0.9641,-0.955,-0.9378,-0.9202,-0.9029,-0.8968,-0.8966,-0.9087,-0.9174,-0.9349,-0.9262,-0.9174,-0.9174,-0.9174,-0.9087,-0.8999,-0.8823,-0.8652,-0.8652,-0.8652,-0.8652,-0.8652,-0.8652,-0.8719,-0.8769,-0.8793,-0.8794,-0.8802,-0.873,-0.8426,-0.8357,-0.8225,-0.8132,-0.8178,-0.825,-0.8313,-0.8362,-0.8424,-0.8435,-0.8412,-0.8498,-0.8355,-0.8094,-0.7679,-0.7414,-0.7207,-0.7247,-0.7188,-0.717,-0.7213,-0.7204,-0.7265,-0.733,-0.7396,-0.7396,-0.7461,-0.7521,-0.7587,-0.7623,-0.7614,-0.7598,-0.7552,-0.7481,-0.7379,-0.7295,-0.7156,-0.7064,-0.6956,-0.6788,-0.6737,-0.6598,-0.6598,-0.6598,-0.6544,-0.6598,-0.6637,-0.6568,-0.6474,-0.6197,-0.5967,-0.5737,-0.5316,-0.491,-0.4709,-0.4568,-0.4405,-0.4292,-0.4148,-0.406,-0.3924,-0.3707,-0.3496,-0.3262,-0.992,-0.9891,-0.9759,-0.9578,-0.9358,-0.9164,-0.9174,-0.9174,-0.9174,-0.8915,-0.8697,-0.8792,-0.9058,-0.9389,-0.9615,-0.9879,-1.0083,-1.0113,-1.0212,-1.0117,-1.0117,-1.0117,-1.0117,-1.0049,-1.0013,-0.9854,-0.9647,-0.938,-0.9235,-0.9262,-0.9349,-0.9349,-0.9349,-0.9345,-0.9345,-0.9345,-0.9345,-0.9345,-0.9262,-0.9174,-0.9174,-0.9174,-0.9174,-0.9087,-0.9087,-0.9087,-0.9152,-0.9139,-0.9022,-0.8994,-0.8923,-0.8773,-0.8666,-0.8453,-0.8421,-0.8551,-0.8556,-0.8556,-0.8632,-0.8784,-0.8817,-0.8888,-0.89,-0.8862,-0.8699,-0.8203,-0.7883,-0.7664,-0.7544,-0.7541,-0.7536,-0.7503,-0.7536,-0.7601,-0.7727,-0.7722,-0.7787,-0.7852,-0.7852,-0.7917,-0.7987,-0.7941,-0.7935,-0.7911,-0.785,-0.7761,-0.7719,-0.7587,-0.7576,-0.7412,-0.7118,-0.6984,-0.6776,-0.6707,-0.6761,-0.6761,-0.6815,-0.6761,-0.6691,-0.6607,-0.6577,-0.6226,-0.5892,-0.5592,-0.5245,-0.5047,-0.4848,-0.4657,-0.4542,-0.4442,-0.4321,-0.4221,-0.4096,-0.3871,-0.3605,-1.0216,-1.0164,-0.9901,-0.9675,-0.9433,-0.9306,-0.9349,-0.9349,-0.9349,-0.9174,-0.8941,-0.9101,-0.9249,-0.9587,-0.9806,-1.0058,-1.0299,-1.0382,-1.0306,-1.0413,-1.0413,-1.0413,-1.0413,-1.0408,-1.0263,-1.0101,-0.9908,-0.9719,-0.9472,-0.9602,-0.9607,-0.9607,-0.9602,-0.9602,-0.9602,-0.9602,-0.9607,-0.9607,-0.9607,-0.9607,-0.9519,-0.9437,-0.9349,-0.9349,-0.9349,-0.9349,-0.9432,-0.9432,-0.9461,-0.9424,-0.9347,-0.9069,-0.8884,-0.8774,-0.873,-0.8818,-0.8865,-0.8861,-0.8937,-0.9018,-0.9099,-0.9175,-0.917,-0.9105,-0.9105,-0.868,-0.8499,-0.8348,-0.8216,-0.8201,-0.8038,-0.7969,-0.7871,-0.7897,-0.7872,-0.7917,-0.7917,-0.7982,-0.8042,-0.8042,-0.8177,-0.8306,-0.8318,-0.8372,-0.8386,-0.84,-0.8343,-0.8149,-0.8127,-0.7946,-0.7578,-0.7327,-0.7147,-0.697,-0.6923,-0.6923,-0.6918,-0.6869,-0.6869,-0.6799,-0.6725,-0.6401,-0.6086,-0.5863,-0.5643,-0.5424,-0.5213,-0.502,-0.4941,-0.4918,-0.476,-0.4599,-0.4457,-0.4295,-0.4087,-1.0476,-1.0387,-1.0068,-0.9704,-0.9376,-0.9437,-0.9432,-0.9437,-0.9432,-0.9437,-0.945,-0.9522,-0.9516,-0.9683,-0.9872,-1.0022,-1.0254,-1.0466,-1.0538,-1.0605,-1.0605,-1.0609,-1.0609,-1.0592,-1.0435,-1.0324,-1.0145,-0.9871,-0.9703,-0.9777,-0.9951,-1.0038,-1.0038,-1.0038,-1.0038,-1.0033,-1.0038,-1.0038,-1.0038,-1.0038,-0.9864,-0.9694,-0.9519,-0.9432,-0.9437,-0.9519,-0.9607,-0.9689,-0.9777,-0.9784,-0.9738,-0.9542,-0.929,-0.9183,-0.9024,-0.9086,-0.9022,-0.9094,-0.9246,-0.9322,-0.9327,-0.9327,-0.9322,-0.9392,-0.9382,-0.929,-0.9102,-0.8985,-0.8852,-0.8684,-0.8516,-0.8353,-0.8246,-0.8209,-0.8173,-0.8117,-0.8182,-0.8242,-0.8236,-0.8296,-0.8436,-0.8641,-0.87,-0.8759,-0.8871,-0.896,-0.8897,-0.8845,-0.8651,-0.8419,-0.8091,-0.7844,-0.7659,-0.7466,-0.7258,-0.7155,-0.716,-0.7139,-0.7139,-0.709,-0.6928,-0.6647,-0.6479,-0.633,-0.6126,-0.5828,-0.5653,-0.5475,-0.5415,-0.5327,-0.5114,-0.4914,-0.4786,-0.4634,-0.4617,-1.0706,-1.059,-1.051,-1.0243,-0.9897,-0.9864,-0.9864,-0.9864,-0.9868,-0.9864,-0.9878,-0.9814,-0.9916,-0.9822,-0.9876,-1.0145,-1.0522,-1.0646,-1.0886,-1.1077,-1.089,-1.0998,-1.1002,-1.0984,-1.0761,-1.0627,-1.0412,-1.021,-1.0008,-1.0038,-1.0038,-1.0038,-1.0038,-1.0125,-1.0207,-1.0294,-1.0294,-1.0381,-1.0472,-1.0472,-1.0386,-1.0125,-0.9951,-0.9868,-0.9868,-0.9868,-0.9956,-0.9951,-0.9951,-0.9976,-0.9942,-0.9873,-0.974,-0.9612,-0.9433,-0.9346,-0.9281,-0.9327,-0.9402,-0.9473,-0.9549,-0.9549,-0.9625,-0.9695,-0.969,-0.976,-0.9633,-0.9537,-0.9385,-0.9042,-0.886,-0.8732,-0.8596,-0.8615,-0.8612,-0.8571,-0.8576,-0.8641,-0.8635,-0.8694,-0.8823,-0.8894,-0.8958,-0.8952,-0.9017,-0.9058,-0.9058,-0.896,-0.9,-0.8776,-0.8604,-0.8431,-0.82,-0.783,-0.7509,-0.7421,-0.741,-0.7436,-0.7359,-0.7306,-0.7144,-0.6987,-0.6801,-0.6717,-0.6467,-0.6181,-0.6015,-0.593,-0.5708,-0.5589,-0.5417,-0.5278,-0.5125,-0.4981,-0.4958]},{"header":{"parameterUnit":"m.s-1","parameterCategory":1,"la1":31.0,"la2":29.5877,"lo1":-88.7671,"lo2":-86.6584,"dy":0.0162,"dx":0.0185,"nx":115,"ny":88,"refTime":"2023-04-04T00:00:00:Z","depth":0,"parameterNumber":3,"parameterNumberName":"V-component_of_WINDS"},"data":[0.0,0.0,0.0,0.0,0.0,0.0,0.0,0.0,0.0,0.0,0.0,0.0,0.0,0.0,0.0,0.0,0.0,0.0,0.0,0.0,0.0,0.0,0.0,0.0,0.0,0.0,0.0,0.0,0.0,0.0,0.0,0.0,0.0,0.0,0.0,0.0,0.0,0.0,0.0,0.0,0.0,0.0,0.0,0.0,0.0,0.0,0.0,0.0,0.0,0.0,0.0,0.0,0.0,0.0,0.0,0.0,0.0,0.0,0.0,0.0,0.0,0.0,0.0,0.0,0.0,0.0,0.0,0.0,0.0,0.0,0.0,0.0,0.0,0.0,0.0,0.0,0.0,0.0,0.0,0.0,0.0,0.0,0.0,0.0,0.0,0.0,0.0,0.0,0.0,0.0,0.0,0.0,0.0,0.0,0.0,0.0,0.0,0.0,0.0,0.0,0.0,0.0,0.0,0.0,0.0,0.0,0.0,0.0,0.0,0.0,0.0,0.0,0.0,0.0,0.0,0.0,0.0,0.0,0.0,0.0,0.0,0.0,0.0,0.0,0.0,0.0,0.0,0.0,0.0,0.0,0.0,0.0,0.0,0.0,0.0,0.0,0.0,0.0,0.0,0.0,0.0,0.0,0.0,0.0,0.0,0.0,0.0,0.0,0.0,0.0,0.0,0.0,0.0,0.0,0.0,0.0,0.0,0.0,0.0,0.0,0.0,0.0,0.0,0.0,0.0,0.0,0.0,0.0,0.0,0.0,0.0,0.0,0.0,0.0,0.0,0.0,0.0,0.0,0.0,0.0,0.0,0.0,0.0,0.0,0.0,0.0,0.0,0.0,0.0,0.0,0.0,0.0,0.0,0.0,0.0,0.0,0.0,0.0,0.0,0.0,0.0,0.0,0.0,0.0,0.0,0.0,0.0,0.0,0.0,0.0,0.0,0.0,0.0,0.0,0.0,0.0,0.0,0.0,0.0,0.0,0.0,0.0,0.0,0.0,0.0,0.0,0.0,0.0,0.0,0.0,0.0,0.0,0.0,0.0,0.0,0.0,0.0,0.0,0.0,0.0,0.0,0.0,0.0,0.0,0.0,0.0,0.0,0.0,0.0,0.0,0.0,0.0,0.0,0.0,0.0,0.0,0.0,0.0,0.0,0.0,0.0,0.0,0.0,0.0,0.0,0.0,0.0,0.0,0.0,0.0,0.0,0.0,0.0,0.0,0.0,0.0,0.0,0.0,0.0,0.0,0.0,0.0,0.0,0.0,0.0,0.0,0.0,0.0,0.0,0.0,0.0,0.0,0.0,0.0,0.0,0.0,0.0,0.0,0.0,0.0,0.0,0.0,0.0,0.0,0.0,0.0,0.0,0.0,0.0,0.0,0.0,0.0,0.0,0.0,0.0,0.0,0.0,0.0,0.0,0.0,0.0,0.0,0.0,0.0,0.0,0.0,0.0,0.0,0.0,0.0,0.0,0.0,0.0,0.0,0.0,0.0,0.0,0.0,0.0,0.0,0.0,0.0,0.0,0.0,0.0,0.0,0.0,0.0,0.0,0.0,0.0,0.0,0.0,0.0,0.0,0.0,0.0,0.0,0.0,0.0,0.0,0.0,0.0,0.0,0.0,0.0,0.0,0.0,0.0,0.0,0.0,0.0,0.0,0.0,0.0,0.0,0.0,0.0,0.0,0.0,0.0,0.0,0.0,0.0,0.0,0.0,0.0,0.0,0.0,0.0,0.0,0.0,0.0,0.0,0.0,0.0,0.0,0.0,0.0,0.0,0.0,0.0,0.0,0.0,0.0,0.0,0.0,0.0,0.0,0.0,0.0,0.0,0.0,0.0,0.0,0.0,0.0,0.0,0.0,0.0,0.0,0.0,0.0,0.0,0.0,0.0,0.0,0.0,0.0,0.0,0.0,0.0,0.0,0.0,0.0,0.0,0.0,0.0,0.0,0.0,0.0,0.0,0.0,0.0,0.0,0.0,0.0,0.0,0.0,0.0,0.0,0.0,0.0,0.0,0.0,0.0,0.0,0.0,0.0,0.0,0.0,0.0,0.0,0.0,0.0,0.0,0.0,0.0,0.0,0.0,0.0,0.0,0.0,0.0,0.0,0.0,0.0,0.0,0.0,0.0,0.0,0.0,0.0,0.0,0.0,0.0,0.0,0.0,0.0,0.0,0.0,0.0,0.0,0.0,0.0,0.0,0.0,0.0,0.0,0.0,0.0,0.0,0.0,0.0,0.0,0.0,0.0,0.0,0.0,0.0,0.0,0.0,0.0,0.0,0.0,0.0,0.0,0.0,0.0,0.0,0.0,0.0,0.0,0.0,0.0,0.0,0.0,0.0,0.0,0.0,0.0,0.0,0.0,0.0,0.0,0.0,0.0,0.0,0.0,0.0,0.0,0.0,0.0,0.0,0.0,0.0,0.0,0.0,0.0,0.0,0.0,0.0,0.0,0.0,0.0,0.0,0.0,0.0,0.0,0.0,0.0,0.0,0.0,0.0,0.0,0.0,0.0,0.0,0.0,0.0,0.0,0.0,0.0,0.0,0.0,0.0,0.0,0.0,0.0,0.0,0.0,0.0,0.0,0.0,0.0,0.0,0.0,0.0,0.0,0.0,0.0,0.0,0.0,0.0,0.0,0.0,0.0,0.0,0.0,0.0,0.0,0.0,0.0,0.0,0.0,0.0,0.0,0.0,0.0,0.0,0.0,0.0,0.0,0.0,0.0,0.0,0.0,0.0,0.0,0.0,0.0,0.0,0.0,0.0,0.0,0.0,0.0,0.0,0.0,0.0,0.0,0.0,0.0,0.0,0.0,0.0,0.0,0.0,0.0,0.0,0.0,0.0,0.0,0.0,0.0,0.0,0.0,0.0,0.0,0.0,0.0,0.0,0.0,0.0,0.0,0.0,0.0,0.0,0.0,0.0,0.0,0.0,0.0,0.0,0.0,0.0,0.0,0.0,0.0,0.0,0.0,0.0,0.0,0.0,0.0,0.0,0.0,0.0,0.0,0.0,0.0,0.0,0.0,0.0,0.0,0.0,0.0,0.0,0.0,0.0,0.0,0.0,0.0,0.0,0.0,0.0,0.0,0.0,0.0,0.0,0.0,0.0,0.0,0.0,0.0,0.0,0.0,0.0,0.0,0.0,0.0,0.0,0.0,0.0,0.0,0.0,0.0,0.0,0.0,0.0,0.0,0.0,0.0,0.0,0.0,0.0,0.0,0.0,0.0,0.0,0.0,0.0,0.0,0.0,0.0,0.0,0.0,0.0,0.0,0.0,0.0,0.0,0.0,0.0,0.0,0.0,0.0,0.0,0.0,0.0,0.0,0.0,0.0,0.0,0.0,0.0,0.0,0.0,0.0,0.0,0.0,0.0,0.0,0.0,0.0,0.0,0.0,0.0,0.0,0.0,0.0,0.0,0.0,0.0,0.0,0.0,0.0,0.0,0.0,0.0,0.0,0.0,0.0,0.0,0.0,0.0,0.0,0.0,0.0,0.0,0.0,0.0,0.0,0.0,0.0,0.0,0.0,0.0,0.0,0.0,0.0,0.0,0.0,0.0,0.0,0.0,0.0,0.0,0.0,0.0,0.0,0.0,0.0,0.0,0.0,0.0,0.0,0.0,0.0,0.0,0.0,0.0,0.0,0.0,0.0,0.0,0.0,0.0,0.0,0.0,0.0,0.0,0.0,0.0,0.0,0.0,0.0,0.0,0.0,0.0,0.0,0.0,0.0,0.0,0.0,0.0,0.0,0.0,0.0,0.0,0.0,0.0,0.0,0.0,0.0,0.0,0.0,0.0,0.0,0.0,0.0,0.0,0.0,0.0,0.0,0.0,0.0,0.0,0.0,0.0,0.0,0.0,0.0,0.0,0.0,0.0,0.0,0.0,0.0,0.0,0.0,0.0,0.0,0.0,0.0,0.0,0.0,0.0,0.0,0.0,0.0,0.0,0.0,0.0,0.0,0.0,0.0,0.0,0.0,0.0,0.0,0.0,0.0,0.0,0.0,0.0,0.0,0.0,0.0,0.0,0.0,0.0,0.0,0.0,0.0,0.0,0.0,0.0,0.0,0.0,0.0,0.0,0.0,0.0,0.0,0.0,0.0,0.0,0.0,0.0,0.0,0.0,0.0,0.0,0.0,0.0,0.0,0.0,0.0,0.0,0.0,0.0,0.0,0.0,0.0,0.0,0.0,0.0,0.0,0.0,0.0,0.0,0.0,0.0,0.0,0.0,0.0,0.0,0.0,0.0,0.0,0.0,0.0,0.0,0.0,0.0,0.8439,0.0,0.0,0.0,0.0,0.0,0.0,0.0,0.0,0.0,0.0,0.0,0.0,0.0,0.0,0.0,0.0,0.0,0.0,0.0,0.0,0.0,0.0,0.0,0.0,0.0,0.0,0.0,0.0,0.0,0.0,0.0,0.0,0.0,0.0,0.0,0.0,0.0,0.0,0.0,0.0,0.0,0.0,0.0,0.0,0.0,0.0,0.0,0.0,0.0,0.0,0.0,0.0,0.0,0.0,0.0,0.0,0.0,0.0,0.0,0.0,0.0,0.0,0.0,0.0,0.0,0.0,0.0,0.0,0.0,0.0,0.0,0.0,0.0,0.0,0.0,0.0,0.0,0.0,0.0,0.0,0.0,0.0,0.0,0.0,0.0,0.0,0.0,0.0,0.0,0.0,0.0,0.0,0.0,0.0,0.0,0.0,0.0,0.0,0.0,0.0,0.0,0.0,0.0,0.0,0.0,0.0,0.0,0.0,0.0,0.0,0.9056,0.8967,0.8846,0.8732,0.87,0.0,0.0,0.0,0.0,0.0,0.0,0.0,0.0,0.0,0.0,0.0,0.0,0.0,0.0,0.0,0.0,0.0,0.0,0.0,0.0,0.0,0.0,0.0,0.0,0.0,0.0,0.0,0.0,0.0,0.0,0.0,0.0,0.0,0.0,0.0,0.0,0.0,0.0,0.0,0.0,0.0,0.0,0.0,0.0,0.0,0.0,0.0,0.0,0.0,0.0,0.0,0.0,0.0,0.0,0.0,0.0,0.0,0.0,0.0,0.0,0.0,0.0,0.0,0.0,0.0,0.0,0.0,0.0,0.0,0.0,0.0,0.0,0.0,0.0,0.0,0.0,0.0,0.0,0.0,0.0,0.0,0.0,0.0,0.0,0.0,0.0,0.0,0.0,0.0,0.0,0.0,0.0,0.0,0.0,0.0,0.0,0.0,0.0,0.0,0.0,0.0,0.0,0.0,0.0,0.0,0.0,0.0,0.0,0.0,0.0,0.0,0.0,0.9136,0.9016,0.8952,0.0,0.0,0.0,0.0,0.0,0.0,0.0,0.0,0.0,0.0,0.0,0.0,0.0,0.0,0.0,0.0,0.0,0.0,0.0,0.0,0.0,0.0,0.0,0.0,0.0,0.0,0.0,0.0,0.0,0.0,0.0,0.0,0.0,0.0,0.0,0.0,0.0,0.0,0.0,0.0,0.0,0.0,0.0,0.0,0.0,0.0,0.0,0.0,0.0,0.0,0.0,0.0,0.0,0.0,0.0,0.0,0.0,0.0,0.0,0.0,0.0,0.0,0.0,0.0,0.0,0.0,0.0,0.0,0.0,0.0,0.0,0.0,0.0,0.0,0.0,0.0,0.0,0.0,0.0,0.0,0.0,0.0,0.0,0.0,0.0,0.0,0.0,0.0,0.0,0.0,0.0,0.0,0.0,0.0,0.0,0.0,0.0,0.0,0.0,0.0,0.0,0.0,0.0,0.0,0.0,0.0,0.0,0.0,0.0,0.0,0.9634,0.9487,0.9319,0.0,0.9177,0.0,0.0,0.0,0.0,0.0,0.0,0.0,0.0,0.0,0.0,0.0,0.0,0.0,0.0,0.0,0.0,0.0,0.0,0.0,0.0,0.0,0.0,0.0,0.0,0.0,0.0,0.0,0.0,0.0,0.0,0.0,0.0,0.0,0.0,0.0,0.0,0.0,0.0,0.0,0.0,0.0,0.0,0.0,0.0,0.0,0.0,0.0,0.0,0.0,0.0,0.0,0.0,0.0,0.0,0.0,0.0,0.0,0.0,0.0,0.0,0.0,0.0,0.0,0.0,0.0,0.0,0.0,0.0,0.0,0.0,0.0,0.0,0.0,0.0,0.0,0.0,0.0,0.0,0.0,0.0,0.0,0.0,0.0,0.0,0.0,0.0,0.0,0.0,0.0,0.0,0.0,0.0,0.0,0.0,0.0,0.0,0.0,0.0,0.0,0.0,0.0,0.0,0.0,0.0,0.0,0.0,0.0,0.0,0.0,0.0,0.9862,0.9813,0.9616,0.9457,0.0,0.0,0.0,0.0,0.0,0.0,0.0,0.0,0.0,0.0,0.0,0.0,0.0,0.0,0.0,0.0,0.0,0.0,0.0,0.0,0.0,0.0,0.0,0.0,0.0,0.0,0.0,0.0,0.0,0.0,0.0,0.0,0.0,0.0,0.0,0.0,0.0,0.0,0.0,0.0,0.0,0.0,0.0,0.0,0.0,0.0,0.0,0.0,0.0,0.0,0.0,0.0,0.0,0.0,0.0,0.0,0.0,0.0,0.0,0.0,0.0,0.0,0.0,0.0,0.0,0.0,0.0,0.0,0.0,0.0,0.0,0.0,0.0,0.0,0.0,0.0,0.0,0.0,0.0,0.0,0.0,0.0,0.0,0.0,0.0,0.0,0.0,0.0,0.0,0.0,0.0,0.0,0.0,0.0,0.0,0.0,0.0,0.0,0.0,0.0,0.0,0.0,0.0,0.0,0.0,0.0,0.0,0.0,0.0,0.0,1.0166,1.0088,1.0019,0.9902,0.9744,0.9655,0.0,0.0,0.0,0.0,0.0,0.0,0.0,0.0,0.0,0.0,0.0,0.0,0.0,0.0,0.0,0.0,0.0,0.0,0.0,0.0,0.0,0.0,0.0,0.0,0.0,0.0,0.0,0.0,0.0,0.0,0.0,0.0,0.0,0.0,0.0,0.0,0.0,0.0,0.0,0.0,0.0,0.0,0.0,0.0,0.0,0.0,0.0,0.0,0.0,0.0,0.0,0.0,0.0,0.0,0.0,0.0,0.0,0.0,0.0,0.0,0.0,0.0,0.0,0.0,0.0,0.0,0.0,0.0,0.0,0.0,0.0,0.0,0.0,0.0,0.0,0.0,0.0,0.0,0.0,0.0,0.0,0.0,0.0,0.0,0.0,0.0,0.0,0.0,0.0,0.0,0.0,0.0,0.0,0.0,0.0,0.0,0.0,0.0,0.0,0.0,0.0,0.0,0.0,0.0,0.0,0.0,0.0,0.0,1.0582,1.0467,1.0312,1.0127,1.0079,1.0059,0.0,0.0,0.0,0.0,0.0,0.0,0.0,0.0,0.0,0.0,0.0,0.0,0.0,0.0,0.0,0.0,0.0,0.0,0.0,0.0,0.0,0.0,0.0,0.0,0.0,0.0,0.0,0.0,0.0,0.0,0.0,0.0,0.0,0.0,0.0,0.0,0.0,0.0,0.0,0.0,0.0,0.0,0.0,0.0,0.0,0.0,0.0,0.0,0.0,0.0,0.0,0.0,0.0,0.0,0.0,0.0,0.0,0.0,0.0,0.0,0.0,0.0,0.0,0.0,0.0,0.0,0.0,0.0,0.0,0.0,0.0,0.0,0.0,0.0,0.0,0.0,0.0,0.0,0.0,0.0,0.0,0.0,0.0,0.0,0.0,0.0,0.0,0.0,0.0,0.0,0.0,0.0,0.0,0.0,0.0,0.0,0.0,0.0,0.0,0.0,0.0,0.0,0.0,0.0,0.0,0.0,0.0,0.0,0.0,1.0926,1.0687,1.0562,1.0495,1.0341,1.0273,0.0,0.0,0.0,0.0,0.0,0.0,0.0,0.0,0.0,0.0,0.0,0.0,0.0,0.0,0.0,0.0,0.0,0.0,0.0,0.0,0.0,0.0,0.0,0.0,0.0,0.0,0.0,0.0,0.0,0.0,0.0,0.0,0.0,0.0,0.0,0.0,0.0,0.0,0.0,0.0,0.0,0.0,0.0,0.0,0.0,0.0,0.0,0.0,0.0,0.0,0.0,0.0,0.0,0.0,0.0,0.0,0.0,0.0,0.0,0.0,0.0,0.0,0.0,0.0,0.0,0.0,0.0,0.0,0.0,0.0,0.0,0.0,0.0,0.0,0.0,0.0,0.0,0.0,0.0,0.0,0.0,0.0,0.0,0.0,0.0,0.0,0.0,0.0,0.0,0.0,0.0,0.0,0.0,0.0,0.0,0.0,0.0,0.0,0.0,0.0,0.0,0.0,0.0,0.0,0.0,0.0,0.0,0.0,0.0,1.1212,0.0,1.0916,1.084,1.0697,1.0582,0.0,0.0,0.0,0.0,0.0,0.0,0.0,0.0,0.0,0.0,0.0,0.0,0.0,0.0,0.0,0.0,0.0,0.0,0.0,0.0,0.0,0.0,0.0,0.0,0.0,0.0,0.0,0.0,0.0,0.0,0.0,0.0,0.0,0.0,0.0,0.0,0.0,0.0,0.0,0.0,0.0,0.0,0.0,0.0,0.0,0.0,0.0,0.0,0.0,0.0,0.0,0.0,0.0,0.0,0.0,0.0,0.0,0.0,0.0,0.0,0.0,0.0,0.0,0.0,0.0,0.0,0.0,0.0,0.0,0.0,0.0,0.0,0.0,0.0,0.0,0.0,0.0,0.0,0.0,0.0,0.0,0.0,0.0,0.0,0.0,0.0,0.0,0.0,0.0,0.0,0.0,0.0,0.0,0.0,0.0,0.0,0.0,0.0,0.0,0.0,0.0,0.0,0.0,0.0,0.0,0.0,0.0,0.0,1.1608,1.1421,1.1384,1.1298,1.1126,1.1088,1.0964,0.0,0.0,0.0,0.0,0.0,0.0,0.0,0.0,0.0,0.0,0.0,0.0,0.0,0.0,0.0,0.0,0.0,0.0,0.0,0.0,0.0,0.0,0.0,0.0,0.0,0.0,0.0,0.0,0.0,0.0,0.0,0.0,0.0,0.0,0.0,0.0,0.0,0.0,0.0,0.0,0.0,0.0,0.0,0.0,0.0,0.0,0.0,0.0,0.0,0.0,0.0,0.0,0.0,0.0,0.0,0.0,0.0,0.0,0.0,0.0,0.0,0.0,0.0,0.0,0.0,0.0,0.0,0.0,0.0,0.0,0.0,0.0,0.0,0.0,0.0,0.0,0.0,0.0,0.0,0.0,0.0,0.0,0.0,0.0,0.0,0.0,0.0,0.0,0.0,0.0,0.0,0.0,0.0,0.0,0.0,0.0,0.0,0.0,0.0,0.0,0.0,0.0,0.0,0.0,0.0,0.0,0.0,0.0,0.0,1.1748,1.1634,1.156,1.1522,1.1373,1.125,0.0,0.0,0.0,0.0,0.0,0.0,0.0,0.0,0.0,0.0,0.0,0.0,0.0,0.0,0.0,0.0,0.0,0.0,0.0,0.0,0.0,0.0,0.0,0.0,0.0,0.0,0.0,0.0,0.0,0.0,0.0,0.0,0.0,0.0,0.0,0.0,0.0,0.0,0.0,0.0,0.0,0.0,0.0,0.0,0.0,0.0,0.0,0.0,0.0,0.0,0.0,0.0,0.0,0.0,0.0,0.0,0.0,0.0,0.0,0.0,0.0,0.0,0.0,0.0,0.0,0.0,0.0,0.0,0.0,0.0,0.0,0.0,0.0,0.0,0.0,0.0,0.0,0.0,0.0,0.0,0.0,0.0,0.0,0.0,0.0,0.0,0.0,0.0,0.0,0.0,0.0,0.0,0.0,0.0,0.0,0.0,0.0,0.0,0.0,0.0,0.0,0.0,0.0,0.0,0.0,0.0,0.0,0.0,0.0,1.2246,1.2016,1.1881,1.1844,1.1697,1.1538,1.1442,0.0,0.0,0.0,0.0,0.0,0.0,0.0,0.0,0.0,0.0,0.0,0.0,0.0,0.0,0.0,0.0,0.0,0.0,0.0,0.0,0.0,0.0,0.0,0.0,0.0,0.0,0.0,0.0,0.0,0.0,0.0,0.0,0.0,0.0,0.0,0.0,0.0,0.0,0.0,0.0,0.0,0.0,0.0,0.0,0.0,0.0,0.0,0.0,0.0,0.0,0.0,0.0,0.0,0.0,0.0,0.0,0.0,0.0,0.0,0.0,0.0,0.0,0.0,0.0,0.0,0.0,0.0,0.0,0.0,0.0,0.0,0.0,0.0,0.0,0.0,0.0,0.0,0.0,0.0,0.0,0.0,0.0,0.0,0.0,0.0,0.0,0.0,0.0,0.0,0.0,0.0,0.0,0.0,0.0,0.0,0.0,0.0,0.0,0.0,0.0,0.0,0.0,0.0,0.0,0.0,0.0,0.0,0.0,1.2838,1.2473,1.221,1.2102,1.1993,1.1872,0.0,0.0,0.0,0.0,0.0,0.0,0.0,0.0,0.0,0.0,0.0,0.0,0.0,0.0,0.0,0.0,0.0,0.0,0.0,0.0,0.0,0.0,0.0,0.0,0.0,0.0,0.0,0.0,0.0,0.0,0.0,0.0,0.0,0.0,0.0,0.0,0.0,0.0,0.0,0.0,0.0,0.0,0.0,0.0,0.0,0.0,0.0,0.0,0.0,0.0,0.0,0.0,0.0,0.0,0.0,0.0,0.0,0.0,0.0,0.0,0.0,0.0,0.0,0.0,0.0,0.0,0.0,0.0,0.0,0.0,0.0,0.0,0.0,0.0,0.0,0.0,0.0,0.0,0.0,0.0,0.0,0.0,0.0,0.0,0.0,0.0,0.0,0.0,0.0,0.0,0.0,0.0,0.0,0.0,0.0,0.0,0.0,0.0,0.0,0.0,0.0,0.0,0.0,0.0,0.0,0.0,0.0,0.0,0.0,1.3254,1.3047,1.2756,1.2401,1.2294,1.221,0.0,0.0,0.0,0.0,0.0,0.0,0.0,0.0,0.0,0.0,0.0,0.0,0.0,0.0,0.0,0.0,0.0,0.0,0.0,0.0,0.0,0.0,0.0,0.0,0.0,0.0,0.0,0.0,0.0,0.0,0.0,0.0,0.0,0.0,0.0,0.0,0.0,0.0,0.0,0.0,0.0,0.0,0.0,0.0,0.0,0.0,0.0,0.0,0.0,0.0,0.0,0.0,0.0,0.0,0.0,0.0,0.0,0.0,0.0,0.0,0.0,0.0,0.0,0.0,0.0,0.0,0.0,0.0,0.0,0.0,0.0,0.0,0.0,0.0,0.0,0.0,0.0,0.0,0.0,0.0,0.0,0.0,0.0,0.0,0.0,0.0,0.0,0.0,0.0,0.0,0.0,0.0,0.0,0.0,0.0,0.0,0.0,0.0,0.0,0.0,0.0,0.0,0.0,0.0,0.0,0.0,0.0,0.0,1.3661,1.356,1.3506,1.3288,1.2931,1.272,1.2579,0.0,0.0,0.0,0.0,0.0,0.0,0.0,0.0,0.0,0.0,0.0,0.0,0.0,0.0,0.0,0.0,0.0,0.0,0.0,0.0,0.0,0.0,0.0,0.0,0.0,0.0,0.0,0.0,0.0,0.0,0.0,0.0,0.0,0.0,0.0,0.0,0.0,0.0,0.0,0.0,0.0,0.0,0.0,0.0,0.0,0.0,0.0,0.0,0.0,0.0,0.0,0.0,0.0,0.0,0.0,0.0,0.0,0.0,0.0,0.0,0.0,0.0,0.0,0.0,0.0,0.0,0.0,0.0,0.0,0.0,0.0,0.0,0.0,0.0,0.0,0.0,0.0,0.0,0.0,0.0,0.0,0.0,0.0,0.0,0.0,0.0,0.0,0.0,0.0,0.0,0.0,0.0,0.0,0.0,0.0,0.0,0.0,0.0,0.0,0.0,0.0,0.0,0.0,0.0,0.0,0.0,0.0,0.0,1.3967,1.3854,1.3841,1.3741,1.3547,1.3185,1.2896,0.0,0.0,0.0,0.0,0.0,0.0,0.0,0.0,0.0,0.0,0.0,0.0,0.0,0.0,0.0,0.0,0.0,0.0,0.0,0.0,0.0,0.0,0.0,0.0,0.0,0.0,0.0,0.0,0.0,0.0,0.0,0.0,0.0,0.0,0.0,0.0,0.0,0.0,0.0,0.0,0.0,0.0,0.0,0.0,0.0,0.0,0.0,0.0,0.0,0.0,0.0,0.0,0.0,0.0,0.0,0.0,0.0,0.0,0.0,0.0,0.0,0.0,0.0,0.0,0.0,0.0,0.0,0.0,0.0,0.0,0.0,0.0,0.0,0.0,0.0,0.0,0.0,0.0,0.0,0.0,0.0,0.0,0.0,0.0,0.0,0.0,0.0,0.0,0.0,0.0,0.0,0.0,0.0,0.0,0.0,0.0,0.0,0.0,0.0,0.0,0.0,0.0,0.0,0.0,0.0,0.0,0.0,0.0,1.4287,1.4203,1.4138,1.404,1.3901,1.3547,1.3254,0.0,0.0,0.0,0.0,0.0,0.0,0.0,0.0,0.0,0.0,0.0,0.0,0.0,0.0,0.0,0.0,0.0,0.0,0.0,0.0,0.0,0.0,0.0,0.0,0.0,0.0,0.0,0.0,0.0,0.0,0.0,0.0,0.0,0.0,0.0,0.0,0.0,0.0,0.0,0.0,0.0,0.0,0.0,0.0,0.0,0.0,0.0,0.0,0.3904,0.0,0.0,0.0,0.0,0.0,0.0,0.0,0.0,0.0,0.0,0.0,0.0,0.0,0.0,0.0,0.0,0.0,0.0,0.0,0.0,0.0,0.0,0.0,0.0,0.0,0.0,0.0,0.0,0.0,0.0,0.0,0.0,0.0,0.0,0.0,0.0,0.0,0.0,0.0,0.0,0.0,0.0,0.0,0.0,0.0,0.0,0.0,0.0,0.0,0.0,0.0,0.0,0.0,0.0,0.0,0.0,0.0,0.0,0.0,1.462,1.4525,1.4461,1.4369,1.4214,1.4046,1.3715,0.0,0.0,0.0,0.0,0.0,0.0,0.0,0.0,0.0,0.0,0.0,0.0,0.0,0.0,0.0,0.0,0.0,0.0,0.0,0.0,0.0,0.0,0.0,0.0,0.0,0.0,0.0,0.0,0.0,0.0,0.0,0.0,0.0,0.0,0.0,0.0,0.0,0.0,0.0,0.0,0.0,0.0,0.0,0.0,0.0,0.0,0.0,0.0,0.0,0.0,0.0,0.0,0.0,0.0,0.0,0.0,0.0,0.0,0.0,0.0,0.0,0.0,0.0,0.0,0.0,0.0,0.0,0.0,0.0,0.0,0.0,0.0,0.0,0.0,0.0,0.0,0.0,0.0,0.0,0.0,0.0,0.0,0.0,0.0,0.0,0.0,0.0,0.0,0.0,0.0,0.0,0.0,0.0,0.0,0.0,0.0,0.0,0.0,0.0,0.0,0.0,0.0,0.0,0.0,0.0,0.0,0.0,1.498,1.4918,1.4856,1.4808,1.4686,1.4596,1.4497,1.4241,1.3769,0.0,0.0,0.0,0.0,0.0,0.0,0.0,0.0,0.0,0.0,0.0,0.0,0.0,0.0,0.0,0.0,0.0,0.0,0.0,0.0,0.0,0.0,0.0,0.0,0.0,0.0,0.0,0.0,0.0,0.0,0.0,0.0,0.0,0.0,0.0,0.0,0.0,0.0,0.5737,0.5501,0.0,0.0,0.0,0.0,0.0,0.0,0.0,0.0,0.5121,0.0,0.0,0.0,0.0,0.0,0.0,0.0,0.0,0.0,0.0,0.0,0.0,0.0,0.0,0.0,0.0,0.0,0.0,0.0,0.0,0.0,0.0,0.0,0.0,0.0,0.0,0.0,0.0,0.0,0.0,0.0,0.0,0.0,0.0,0.0,0.0,0.0,0.0,0.0,0.0,0.0,0.0,0.0,0.0,0.0,0.0,0.0,0.0,0.0,0.0,0.0,0.0,0.0,0.0,0.0,0.0,1.5315,1.5254,1.5222,1.5208,1.5058,1.4951,1.4907,1.478,1.4624,1.4356,0.0,0.0,0.0,0.0,0.0,0.0,0.0,0.0,0.0,0.0,0.0,0.0,0.0,0.0,0.0,0.0,0.0,0.0,0.0,0.0,0.0,0.0,0.0,0.0,0.0,0.0,0.0,0.0,0.0,0.0,0.0,0.0,0.0,0.0,0.0,0.0,0.0,0.0,0.0,0.6557,0.6521,0.0,0.0,0.0,0.0,0.0,0.0,0.0,0.0,0.596,0.0,0.0,0.0,0.0,0.0,0.0,0.0,0.0,0.0,0.0,0.0,0.0,0.0,0.0,0.0,0.0,0.0,0.0,0.0,0.0,0.0,0.0,0.0,0.0,0.0,0.0,0.0,0.0,0.0,0.0,0.0,0.0,0.0,0.0,0.0,0.0,0.0,0.0,0.0,0.0,0.0,0.0,0.0,0.0,0.0,0.0,0.0,0.0,0.0,0.0,0.0,0.0,0.0,0.0,0.0,1.5668,1.5595,1.5581,1.5566,1.5359,1.5269,1.5255,1.5147,1.498,0.0,0.0,0.0,0.0,0.0,0.0,0.0,0.0,0.0,0.0,0.0,0.0,0.0,0.0,0.0,0.0,0.0,0.0,0.0,0.0,0.0,0.0,0.0,0.0,0.0,0.0,0.0,0.0,0.0,0.0,0.0,0.0,0.0,0.0,0.0,0.0,0.0,0.0,0.0,0.0,0.7108,0.7072,0.7044,0.0,0.0,0.0,0.0,0.0,0.0,0.6761,0.6598,0.0,0.0,0.0,0.0,0.0,0.0,0.0,0.0,0.0,0.0,0.0,0.0,0.0,0.0,0.0,0.0,0.0,0.0,0.0,0.0,0.0,0.0,0.0,0.0,0.0,0.0,0.0,0.0,0.0,0.0,0.0,0.0,0.0,0.0,0.0,0.0,0.0,0.0,0.0,0.0,0.0,0.0,0.0,0.0,0.0,0.0,0.0,0.0,0.0,0.0,0.0,0.0,0.0,0.0,0.0,1.5957,1.5913,1.5885,1.5856,1.5682,1.5595,1.5595,1.5477,1.5284,0.0,0.0,0.0,0.0,0.0,0.0,0.0,0.0,0.0,0.0,0.0,0.0,0.0,0.0,0.0,0.0,0.0,0.0,0.0,0.0,0.0,0.0,0.0,0.0,0.0,0.0,0.0,0.0,0.0,0.0,0.0,0.0,0.0,0.0,0.0,0.0,0.0,0.0,0.0,0.0,0.0,0.7715,0.7658,0.7823,0.0,0.0,0.0,0.0,0.7621,0.7363,0.0,0.0,0.0,0.0,0.0,0.0,0.0,0.0,0.0,0.0,0.0,0.0,0.0,0.0,0.0,0.0,0.0,0.0,0.0,0.0,0.0,0.0,0.0,0.0,0.0,0.0,0.0,0.0,0.0,0.0,0.0,0.0,0.0,0.0,0.0,0.0,0.0,0.0,0.0,0.0,0.0,0.0,0.0,0.0,0.0,0.0,0.0,0.0,0.0,0.0,0.0,0.0,0.0,0.0,0.0,0.0,1.6166,1.6182,1.6166,1.6166,1.5996,1.594,1.594,1.5812,1.5654,0.0,0.0,0.0,0.0,0.0,0.0,0.0,0.0,0.0,0.0,0.0,0.0,0.0,0.0,0.0,0.0,0.0,0.0,0.0,0.0,0.0,0.0,0.0,0.0,0.0,0.0,0.0,0.0,0.0,0.0,0.0,0.0,0.0,0.0,0.0,0.0,0.0,0.0,0.0,0.0,0.0,0.8967,0.8816,0.8721,0.8674,0.0,0.0,0.8357,0.8291,0.807,0.0,0.0,0.0,0.0,0.0,0.0,0.0,0.0,0.0,0.0,0.0,0.0,0.0,0.0,0.0,0.0,0.0,0.0,0.0,0.0,0.0,0.0,0.0,0.0,0.0,0.0,0.0,0.0,0.0,0.0,0.0,0.0,0.0,0.0,0.0,0.0,0.0,0.0,0.0,0.0,0.0,0.0,0.0,0.0,0.0,0.0,0.0,0.0,0.0,0.0,0.0,0.0,0.0,0.0,0.0,1.6463,1.6452,1.6409,1.6409,1.6425,1.6328,1.6274,1.6219,1.6151,1.5996,0.0,0.0,0.0,0.0,0.0,0.0,0.0,0.0,0.0,0.0,0.0,0.0,0.0,0.0,0.0,0.0,0.0,0.0,0.0,0.0,0.0,0.0,0.0,0.0,0.0,0.0,0.0,0.0,0.0,0.0,0.0,0.0,0.0,0.0,0.0,0.0,0.0,0.0,0.0,0.0,0.0,0.0,0.9576,0.9457,0.0,0.0,0.0,0.9007,0.8773,0.0,0.0,0.0,0.0,0.0,0.0,0.0,0.0,0.0,0.0,0.0,0.0,0.0,0.0,0.0,0.0,0.0,0.0,0.0,0.0,0.0,0.0,0.0,0.0,0.0,0.0,0.0,0.0,0.0,0.0,0.0,0.0,0.0,0.0,0.0,0.0,0.0,0.0,0.0,0.0,0.0,0.0,0.0,0.0,0.0,0.0,0.0,0.0,0.0,0.0,0.0,0.0,0.0,0.0,0.0,0.0,0.0,1.6701,1.6701,1.6686,1.6686,1.6617,1.6581,1.649,1.6421,0.0,0.0,0.0,0.0,0.0,0.0,0.0,0.0,0.0,0.0,0.0,0.0,0.0,0.0,0.0,0.0,0.0,0.0,0.0,0.0,0.0,0.0,0.0,0.0,0.0,0.0,0.0,1.2241,0.0,0.0,0.0,0.0,0.0,0.0,0.0,0.0,0.0,0.0,0.0,0.0,0.0,0.0,1.0166,1.0176,1.0049,0.9961,0.0,0.0,0.9607,0.9306,0.9208,0.9047,0.0,0.0,0.0,0.0,0.0,0.0,0.0,0.0,0.0,0.0,0.0,0.0,0.0,0.0,0.0,0.0,0.0,0.0,0.0,0.0,0.0,0.0,0.0,0.0,0.0,0.0,0.0,0.0,0.0,0.0,0.0,0.0,0.0,0.0,0.0,0.0,0.0,0.0,0.0,0.0,0.0,0.0,0.0,0.0,0.0,0.0,0.0,0.0,0.0,0.0,0.0,0.0,0.0,0.0,0.0,1.7,1.6968,1.6968,1.6968,1.6901,1.685,1.6763,1.6696,1.6581,0.0,0.0,0.0,0.0,0.0,0.0,0.0,0.0,0.0,0.0,0.0,0.0,0.0,0.0,0.0,0.0,0.0,0.0,0.0,0.0,0.0,0.0,0.0,0.0,0.0,0.0,0.0,0.0,0.0,0.0,0.0,0.0,0.0,0.0,0.0,0.0,0.0,0.0,0.0,0.0,0.0,1.0639,1.0582,1.0544,1.0505,0.0,0.0,1.0166,0.998,0.9716,0.95,0.9279,0.0,0.0,0.0,0.0,0.0,0.0,0.0,0.0,0.0,0.0,0.0,0.0,0.0,0.0,0.0,0.0,0.0,0.0,0.0,0.0,0.0,0.0,0.0,0.0,0.0,0.0,0.0,0.0,0.0,0.0,0.0,0.0,0.0,0.0,0.0,0.0,0.0,0.0,0.0,0.0,0.0,0.0,0.0,0.0,0.0,0.0,0.0,0.0,0.0,0.0,0.0,0.0,0.0,1.8275,1.7963,1.7494,1.724,1.7224,1.7199,1.7167,1.7043,1.7027,1.6901,0.0,0.0,0.0,0.0,0.0,0.0,0.0,0.0,0.0,0.0,0.0,0.0,0.0,0.0,0.0,0.0,0.0,0.0,0.0,0.0,0.0,0.0,0.0,0.0,0.0,0.0,0.0,0.0,1.3242,1.3138,1.292,0.0,0.0,0.0,0.0,0.0,0.0,0.0,0.0,0.0,0.0,1.1319,1.1244,1.118,0.0,0.0,1.0829,1.0687,1.0582,1.038,1.0147,0.9961,0.9695,0.0,0.0,0.0,0.0,0.0,0.0,0.0,0.0,0.0,0.0,0.0,0.0,0.0,0.0,0.0,0.0,0.0,0.0,0.0,0.0,0.0,0.0,0.0,0.0,0.0,0.0,0.0,0.0,0.0,0.0,0.0,0.0,0.0,0.0,0.0,0.0,0.0,0.0,0.0,0.0,0.0,0.0,0.0,0.0,0.0,0.0,0.0,0.0,0.0,0.0,0.0,0.0,1.9161,1.8684,1.8143,1.7719,1.7502,1.7519,1.7455,1.7337,1.7329,1.7199,0.0,0.0,0.0,0.0,0.0,0.0,0.0,0.0,0.0,0.0,0.0,0.0,0.0,0.0,0.0,0.0,0.0,0.0,0.0,0.0,0.0,0.0,0.0,0.0,0.0,0.0,0.0,0.0,1.3674,1.3527,1.3254,0.0,0.0,0.0,0.0,0.0,0.0,0.0,0.0,0.0,0.0,1.1957,1.1872,1.1811,1.1737,1.1579,1.1431,1.1282,1.1105,1.0954,1.0774,1.0505,0.0,0.0,0.0,0.0,0.0,0.0,0.0,0.0,0.0,0.0,0.0,0.0,0.0,0.0,0.0,0.0,0.0,0.0,0.0,0.0,0.0,0.0,0.0,0.0,0.0,0.0,0.0,0.0,0.0,0.0,2.5052,0.0,0.0,0.0,0.0,0.0,0.0,0.0,0.0,0.0,0.0,0.0,0.0,0.0,0.0,0.0,0.0,0.0,0.0,0.0,0.0,0.0,0.0,2.0399,1.8944,1.8894,1.8521,1.7822,1.7789,1.7743,1.7612,1.7589,1.7479,1.7296,0.0,0.0,0.0,0.0,0.0,0.0,0.0,0.0,0.0,0.0,0.0,0.0,0.0,0.0,0.0,0.0,0.0,0.0,0.0,0.0,0.0,0.0,0.0,0.0,0.0,0.0,1.4203,1.4007,1.3808,0.0,0.0,0.0,0.0,0.0,0.0,0.0,0.0,0.0,0.0,1.2377,1.2413,1.2365,1.2365,1.2294,1.209,1.2054,1.192,1.1531,1.1468,1.1367,0.0,0.0,0.0,0.0,0.0,0.0,0.0,0.0,0.0,0.0,0.0,0.0,0.0,0.0,0.0,0.0,0.0,0.0,0.0,0.0,0.0,0.0,0.0,0.0,0.0,0.0,0.0,2.7395,2.7168,0.0,0.0,0.0,0.0,0.0,0.0,0.0,0.0,0.0,0.0,0.0,2.3378,2.336,0.0,0.0,0.0,0.0,0.0,0.0,0.0,0.0,0.0,0.0,0.0,0.0,2.129,2.0756,1.9711,1.907,1.879,1.8305,1.8027,1.7927,1.7878,1.7766,1.7502,0.0,0.0,0.0,0.0,0.0,0.0,0.0,0.0,0.0,0.0,0.0,0.0,0.0,0.0,0.0,0.0,0.0,0.0,0.0,0.0,0.0,0.0,0.0,0.0,0.0,1.4637,0.0,0.0,0.0,0.0,0.0,0.0,0.0,0.0,0.0,0.0,0.0,1.3104,1.3069,1.3082,1.3012,1.2873,1.2885,1.2681,0.0,0.0,0.0,0.0,0.0,0.0,0.0,0.0,0.0,0.0,0.0,0.0,0.0,0.0,0.954,0.8886,0.8521,0.8308,0.8267,0.0,0.0,0.0,0.0,0.0,0.0,0.0,0.0,0.0,0.0,0.0,0.0,0.0,0.0,2.7876,0.0,2.7876,0.0,0.0,0.0,0.0,0.0,0.0,0.0,0.0,2.4949,2.4531,2.4028,2.3737,2.3594,0.0,2.3594,2.3526,0.0,0.0,0.0,0.0,0.0,0.0,0.0,0.0,2.2104,2.1825,2.0779,1.9991,1.9452,1.8961,1.8558,1.8218,1.8134,1.7966,1.7743,1.7675,1.7526,0.0,0.0,0.0,0.0,0.0,0.0,0.0,0.0,0.0,0.0,0.0,0.0,0.0,0.0,0.0,0.0,0.0,0.0,0.0,0.0,0.0,0.0,0.0,1.4994,0.0,0.0,0.0,0.0,0.0,0.0,0.0,0.0,0.0,1.3702,1.3669,1.3635,1.3615,1.3615,1.3581,1.3425,0.0,0.0,0.0,0.0,0.0,0.0,0.0,1.1449,1.1709,1.1538,1.1409,1.1447,1.1421,1.1282,1.1067,0.0,0.0,0.9774,0.9377,0.9168,0.9168,0.895,0.8715,0.855,0.8218,0.7821,0.0,0.0,0.0,0.0,0.0,0.0,0.0,0.0,2.8219,2.8201,0.0,2.8219,0.0,0.0,0.0,0.0,0.0,2.7393,0.0,0.0,2.5502,2.5081,2.4972,2.4251,2.3871,2.3871,2.3834,2.3816,2.3795,2.3634,0.0,0.0,0.0,0.0,0.0,0.0,2.287,2.2182,2.2025,2.1264,1.9861,1.9759,1.9348,1.8493,1.8304,1.8142,1.8027,1.8005,1.7922,1.7732,1.7641,0.0,0.0,0.0,0.0,0.0,0.0,0.0,0.0,0.0,0.0,0.0,0.0,0.0,0.0,0.0,0.0,0.0,0.0,0.0,0.0,1.5388,0.0,0.0,0.0,0.0,0.0,0.0,0.0,0.0,0.0,0.0,1.413,1.4019,1.4019,1.4019,0.0,0.0,0.0,0.0,1.2979,1.2891,1.226,1.1721,1.1533,1.1502,1.1424,1.1204,0.0,0.0,1.1361,1.1757,1.1949,1.1802,1.1637,1.1313,1.0484,1.0108,0.9981,0.9981,0.973,0.9435,0.9114,0.8774,0.8405,3.1872,0.0,0.0,0.0,0.0,2.9575,2.934,2.9304,2.8701,2.8484,2.8484,2.8484,0.0,0.0,0.0,0.0,0.0,0.0,2.8118,2.7368,2.7112,2.6691,2.6146,2.5319,2.4953,2.4917,2.435,2.4094,2.4094,2.4032,2.3894,2.3728,0.0,0.0,0.0,0.0,2.3441,2.3227,2.2567,2.2003,2.1562,2.1049,2.0329,1.9412,1.8808,1.8428,1.8284,1.8225,1.8146,1.7984,1.7927,0.0,0.0,0.0,0.0,0.0,0.0,0.0,0.0,0.0,0.0,0.0,0.0,0.0,0.0,0.0,0.0,0.0,0.0,0.0,1.5854,1.5784,1.5712,0.0,0.0,0.0,0.0,0.0,0.0,0.0,0.0,0.0,1.5074,1.4766,1.456,0.0,0.0,1.4465,1.4374,1.3819,1.3228,1.2765,1.2113,0.0,1.145,1.1339,1.1381,1.1632,1.1545,1.1455,1.1542,1.1519,1.1487,1.1402,1.1305,1.113,1.081,1.0502,1.0308,1.0272,0.9848,0.9457,0.9318,0.8926,0.8492,3.314,3.2153,3.1755,3.1419,3.1073,3.0626,3.0425,3.0352,2.9587,2.9241,2.9223,2.8907,2.8761,2.8761,2.8785,0.0,0.0,0.0,2.8854,2.8381,2.8067,2.7643,2.7163,2.6351,2.5816,2.5484,2.5023,2.4635,2.4266,2.4284,2.4192,2.404,0.0,0.0,2.3955,2.3873,2.381,2.3792,2.3217,2.2758,2.2434,2.17,2.1012,2.0412,1.9626,1.914,1.8984,1.8625,1.8373,1.8293,1.8205,1.8117,0.0,0.0,0.0,0.0,0.0,0.0,0.0,0.0,0.0,0.0,0.0,1.6738,1.667,0.0,0.0,0.0,1.6382,1.6274,1.6219,1.6123,0.0,0.0,0.0,0.0,0.0,0.0,0.0,1.574,1.5711,1.5682,1.5697,1.5448,1.5209,1.4996,1.4966,1.4949,1.4842,0.0,1.3347,1.2954,1.2092,1.1449,1.1298,1.1197,1.124,1.1428,1.1525,1.1567,1.151,1.156,1.155,1.1533,1.1442,1.1394,1.129,1.0896,1.0573,1.0542,1.0145,0.9755,0.9563,0.9172,0.8828,3.4005,3.3924,3.3007,3.2214,3.1517,3.1501,3.1513,3.1477,3.0686,3.0336,3.0281,2.9462,2.9095,2.904,2.9089,0.0,2.9222,2.9283,2.9307,2.9295,2.8572,2.8237,2.82,2.74,2.6619,2.5912,2.5856,2.5372,2.4572,2.4535,2.4498,2.4407,2.4303,2.4228,2.4227,2.4094,2.4016,2.4016,2.3896,2.351,2.2841,2.2024,2.1568,2.1416,2.0641,2.0152,2.0,1.9246,1.8799,1.8797,1.8628,1.8493,1.8418,0.0,0.0,0.0,0.0,0.0,0.0,0.0,0.0,0.0,0.0,0.0,0.0,0.0,0.0,0.0,1.6617,0.0,1.6512,1.6474,0.0,0.0,0.0,1.6316,1.6234,1.6179,1.6151,1.6151,0.0,0.0,1.6067,1.6052,1.5911,1.5521,1.5477,1.5433,1.5358,1.421,1.3342,1.3327,1.2182,1.1322,1.1226,1.1151,1.1108,1.1021,1.1216,1.1453,1.1415,1.1654,1.1898,1.1843,1.1864,1.1793,1.1732,1.1212,1.0865,1.0725,1.0506,1.0221,0.9786,0.9555,0.9321,3.4167,3.413,3.3944,3.3667,3.332,3.2761,3.2551,3.2477,3.1751,3.1422,3.1366,3.0583,2.986,2.9228,2.931,2.933,2.9351,2.9431,2.9491,2.9512,2.9344,2.9269,2.9289,2.8464,2.7959,2.7715,2.7133,2.6439,2.5635,2.5616,2.5279,2.4663,2.4599,2.45,2.4339,2.4284,2.4192,2.4154,2.4133,2.4002,2.3839,2.2995,2.2538,2.2444,2.1661,2.1206,2.1113,2.0819,2.0671,2.0634,1.9963,1.9507,1.9429,1.8823,0.0,0.0,0.0,0.0,0.0,0.0,0.0,0.0,0.0,1.7344,1.7288,0.0,1.7199,0.0,1.701,1.691,1.6825,1.6799,0.0,0.0,1.6686,1.6686,1.6675,1.6607,1.6565,1.6581,1.6501,1.6463,1.6448,1.6463,1.6409,1.6243,1.6037,1.5839,1.5796,1.4644,1.374,1.3585,1.2532,1.1586,1.1505,1.1437,1.1407,1.133,1.139,1.1391,1.1334,1.1374,1.1374,1.1325,1.125,1.1214,1.1141,1.094,1.0838,1.0755,1.0389,0.9988,0.9788,0.9617,0.9488,3.4694,3.434,3.4404,3.4363,3.4232,3.378,3.3576,3.352,3.2747,3.2434,3.2378,3.1616,3.0798,3.0015,3.0035,2.9868,2.9551,2.957,2.9626,2.9701,2.9682,2.9701,2.9737,2.9248,2.8815,2.8491,2.8041,2.7401,2.666,2.6591,2.6161,2.5333,2.5321,2.507,2.4584,2.4464,2.4356,2.4338,2.4284,2.4284,2.4266,2.3824,2.3529,2.3456,2.2667,2.2191,2.2173,2.1716,2.1461,2.1405,2.0913,2.062,2.0507,2.0055,1.9623,0.0,0.0,0.0,0.0,0.0,0.0,0.0,0.0,0.0,0.0,0.0,1.7549,1.7486,1.7368,1.7248,1.7175,1.7134,1.7101,1.7027,1.7043,1.7002,1.6993,1.6926,1.6926,1.6926,1.6876,1.6866,1.6825,1.6825,1.6815,1.6738,1.6538,1.6336,1.6157,1.5516,1.4937,1.4541,1.3336,1.2279,1.19,1.1768,1.1718,1.1711,1.1667,1.1608,1.1564,1.1497,1.1407,1.137,1.1316,1.1256,1.1187,1.1141,1.1108,1.1038,1.0811,1.0496,1.0211,1.0034,0.9906,3.5477,3.4689,3.4752,3.4698,3.4604,3.4495,3.4431,3.4394,3.3724,3.335,3.32,3.257,3.1842,3.1073,3.1092,3.0659,2.9905,2.9886,2.9866,2.9825,2.9806,2.9842,2.9842,2.9842,2.9481,2.8812,2.8799,2.8364,2.7597,2.7532,2.71,2.6329,2.6291,2.5846,2.5043,2.481,2.4655,2.4528,2.4458,2.4459,2.4424,2.4446,2.4412,2.4302,2.3583,2.3179,2.3161,2.2446,2.2025,2.1953,2.1826,2.1735,2.1587,2.1438,2.1057,0.0,2.0077,0.0,0.0,0.0,0.0,0.0,0.0,0.0,0.0,1.7949,1.7883,1.7755,1.7641,1.7595,1.7555,1.7486,1.7455,1.7392,1.7351,1.7344,1.7305,1.7264,1.7248,1.7264,1.7264,1.724,1.7158,1.7158,1.7134,1.7076,1.6994,1.6853,1.6617,1.6515,1.6198,1.5578,1.4303,1.3077,1.2505,1.222,1.206,1.2054,1.2012,1.1955,1.1949,1.1869,1.1768,1.1768,1.1725,1.1645,1.1579,1.1593,1.1549,1.1474,1.1429,1.1247,1.0801,1.0559,1.0474,3.6503,3.5708,3.573,3.5371,3.4749,3.4747,3.4687,3.4626,3.4536,3.4105,3.3446,3.3296,3.2769,3.2053,3.209,3.1655,3.0842,3.0913,3.0568,2.9975,2.9956,2.9991,3.0041,3.0022,2.9962,2.981,2.981,2.9372,2.8531,2.8536,2.8099,2.7319,2.7272,2.6807,2.6053,0.0,0.0,0.0,2.466,2.4645,2.4631,2.4582,2.4549,2.4461,2.4259,0.0,2.4132,2.3987,2.386,2.3768,2.3106,0.0,0.0,0.0,0.0,0.0,0.0,0.0,0.0,0.0,0.0,0.0,1.8769,1.8582,1.8249,1.8166,1.8121,1.8031,1.8027,1.7966,1.7917,1.7839,1.7777,1.7794,1.771,1.7704,1.7698,1.7658,1.7618,1.7618,1.7566,1.7502,1.7519,1.7502,1.7502,1.7479,1.7399,1.7318,1.7296,1.7109,1.6702,1.5863,1.4623,1.3658,1.343,1.2875,1.2514,1.2423,1.2399,1.2359,1.2262,1.2205,1.2164,1.2123,1.2102,1.206,1.1991,1.2006,1.197,1.1906,1.1826,1.1674,1.1178,1.1015,1.0944,3.7522,0.0,3.6765,3.631,0.0,3.5533,3.5287,3.4888,3.4811,3.4604,3.4264,3.4245,3.379,3.305,3.3067,3.2648,3.1851,3.1887,3.1464,3.0712,3.0677,3.0498,3.0161,3.0161,3.0142,3.0157,3.0161,2.9932,2.9508,2.9494,2.9074,2.8235,2.8202,2.7807,2.7007,2.6523,2.5815,2.4808,2.4794,2.4817,2.4806,2.4726,2.4679,2.4645,2.4594,0.0,0.0,0.0,0.0,0.0,0.0,0.0,0.0,0.0,0.0,2.2373,2.1897,2.1258,2.0423,1.9987,1.9538,1.9089,1.9019,1.8843,1.8545,1.843,1.8388,1.8363,1.8284,1.8239,1.8218,1.8125,1.8082,1.81,1.8018,1.7992,1.7992,1.7988,1.7944,1.7961,1.79,1.7878,1.7856,1.7856,1.7816,1.7794,1.7732,1.7715,1.7726,1.7526,1.7073,1.6298,1.556,1.4723,1.4023,1.3596,1.3116,1.2829,1.2697,1.2678,1.2623,1.2565,1.2546,1.2506,1.2451,1.2392,1.2368,1.2347,1.2312,1.2262,1.2216,1.2117,1.1805,1.1549,1.1347,3.8516,3.7737,3.7776,3.7338,3.6539,3.6557,3.6081,3.5337,0.0,0.0,0.0,3.5001,3.4675,3.4025,3.4061,3.3604,3.2877,3.2877,3.2432,3.166,3.166,3.1217,3.048,3.0442,3.0379,3.0221,3.0213,3.0226,3.0221,3.0213,2.9868,2.9199,2.9142,2.874,2.7918,2.7077,2.6155,2.5234,2.5029,2.4945,2.4912,2.4861,2.4817,2.4817,2.4749,2.4753,2.4753,2.4734,2.4707,2.4647,2.4629,2.4596,2.4459,2.4462,2.4113,2.3429,2.3174,2.2439,2.1097,2.0698,2.0173,1.9287,1.9204,1.9053,1.877,1.8678,1.8658,1.8639,1.8524,1.8483,1.8465,1.8408,1.8353,1.8353,1.831,1.827,1.827,1.8263,1.8277,1.8256,1.8256,1.8236,1.8159,1.8159,1.8155,1.8113,1.8091,1.807,1.8027,1.7839,1.7449,1.6859,1.6437,1.5899,1.4931,1.4413,1.4007,1.3343,1.3211,1.3129,1.2977,1.2906,1.2885,1.285,1.2778,1.2706,1.2703,1.2684,1.2665,1.2581,1.2558,1.2522,1.2407,1.2128,1.1839,3.9412,3.8613,3.8632,3.8156,3.7414,3.747,3.7047,3.6255,3.5413,3.5075,3.5092,3.5089,3.503,3.4916,3.5018,3.4611,3.3842,3.3853,3.3422,3.2617,3.2598,3.2158,3.1424,3.141,3.1008,3.0318,3.0279,3.0299,3.0279,3.0279,3.0222,3.0107,3.0107,2.9666,2.8835,2.7999,2.7163,2.627,2.548,2.5032,2.498,2.4966,2.4953,2.4907,2.4874,2.4874,2.4874,2.4874,2.4851,2.4764,2.4764,2.4753,2.4657,2.4642,2.457,2.4353,2.3724,2.3207,2.288,2.1566,2.0356,1.949,1.9357,1.9251,1.8984,1.8896,1.8861,1.8861,1.8788,1.8751,1.8751,1.8696,1.8605,1.857,1.8548,1.8547,1.8547,1.8544,1.8524,1.8542,1.8502,1.8463,1.8445,1.8445,1.8443,1.8426,1.8365,1.8325,1.8263,1.8091,1.7905,1.7696,1.7186,1.6689,1.6265,1.5784,1.5119,1.4338,1.4185,1.3983,1.3376,1.3275,1.3224,1.314,1.3123,1.3087,1.3031,1.303,1.2977,1.2887,1.285,1.2832,1.2724,1.2649,1.2475,4.0024,3.9679,3.966,3.9182,3.8379,3.7993,3.7589,3.7236,3.6807,3.6067,3.5229,3.5223,3.5203,3.5203,3.527,3.5109,3.4759,3.4774,3.4356,3.359,3.357,3.3122,3.2403,3.2346,3.1922,3.1153,3.1114,3.0864,3.046,3.0421,3.0402,3.0421,3.0421,2.9979,2.9132,2.8747,2.8151,2.7274,2.6339,2.5619,2.5125,2.5075,2.505,2.5,2.5,2.5019,2.5,2.5013,2.4974,2.4902,2.4907,2.4865,2.4823,2.4823,2.4808,2.4764,2.4381,2.3938,2.3439,2.2256,2.1171,2.0313,2.0196,1.9956,1.9381,1.92,1.9102,1.907,1.9001,1.8948,1.8967,1.8931,1.8914,1.8878,1.8843,1.8807,1.8807,1.8771,1.877,1.8752,1.8733,1.8714,1.8714,1.8695,1.8657,1.8676,1.862,1.8601,1.8582,1.8505,1.8365,1.8187,1.7814,1.7452,1.711,1.6745,1.6157,1.5451,1.5312,1.495,1.4281,1.4076,1.3854,1.3464,1.3362,1.3362,1.3329,1.3311,1.326,1.3158,1.314,1.3088,1.3035,1.2982,1.2818,4.0415,4.0413,4.0413,4.001,3.941,3.8777,3.8408,3.8235,3.8216,3.7371,3.6032,3.5729,3.5518,3.5345,3.536,3.5393,3.5441,3.5441,3.5097,3.4552,3.4513,3.4063,3.3354,3.3288,3.2883,3.218,3.2083,3.1639,3.0897,3.079,3.0674,3.0519,3.0481,3.0172,2.9516,2.9496,2.9081,2.8232,2.7505,2.6606,2.5576,2.5458,2.5359,2.5149,2.5149,2.5138,2.5138,2.5141,2.5118,2.505,2.5038,2.5032,2.4955,2.4955,2.4961,2.494,2.4879,2.4459,2.3606,2.2924,2.2168,2.132,2.1054,2.0658,1.9992,1.9586,1.9375,1.9264,1.9198,1.9166,1.9135,1.9135,1.9135,1.9153,1.9102,1.9069,1.9087,1.9035,1.8982,1.8982,1.9002,1.8985,1.8949,1.8932,1.8896,1.8896,1.8861,1.8878,1.8878,1.8878,1.8752,1.8565,1.8448,1.8181,1.7622,1.7533,1.7201,1.6554,1.6361,1.6011,1.5435,1.5036,1.4622,1.4035,1.3693,1.3609,1.3576,1.3577,1.3528,1.3428,1.3395,1.3395,1.3295,1.3244,1.3088,4.0394,4.0408,4.0425,4.0419,4.0419,4.0342,3.9875,3.9301,3.9262,3.8742,3.7764,3.6944,3.6175,3.5528,3.5586,3.5618,3.5579,3.5579,3.5534,3.5456,3.5476,3.5013,3.4214,3.4179,3.3746,3.3081,3.2986,3.2532,3.1719,3.1642,3.1275,3.0588,3.0492,3.0472,3.0376,3.0356,2.995,2.9177,2.9071,2.8203,2.6573,2.6467,2.6091,2.5312,2.5293,2.5283,2.5282,2.5282,2.525,2.5187,2.5176,2.5184,2.518,2.5111,2.5099,2.5088,2.5013,2.4594,2.3784,2.3619,2.3196,2.2331,2.1582,2.1092,2.0877,2.0182,1.9641,1.9493,1.9405,1.9357,1.9274,1.9292,1.9292,1.9292,1.9292,1.9311,1.9332,1.9319,1.9269,1.9266,1.9219,1.9168,1.9186,1.9152,1.917,1.9135,1.9101,1.9084,1.9066,1.9086,1.9052,1.8984,1.8825,1.8661,1.8483,1.848,1.8108,1.7524,1.7365,1.7029,1.6408,1.5735,1.5084,1.502,1.437,1.3991,1.3878,1.3778,1.3746,1.37,1.3667,1.3652,1.3573,1.3509,1.3362,4.0519,4.0534,4.0515,4.0549,4.0612,4.0646,4.0467,4.0185,4.0159,3.9702,3.8941,3.853,3.7585,3.6293,3.6318,3.6091,3.5612,3.5643,3.5646,3.5657,3.5657,3.5474,3.5164,3.5136,3.469,3.3984,3.3916,3.3499,3.2666,3.2124,3.1669,3.1301,3.0828,3.0557,3.0557,3.0557,3.0382,3.0081,3.0062,2.9483,2.8345,2.771,2.7007,2.6235,2.6121,2.5851,2.5418,2.537,2.5351,2.5312,2.5273,2.5271,2.5241,2.5231,2.5209,2.5198,2.5153,2.4946,2.4555,2.453,2.4163,2.3303,2.2899,2.2483,2.1897,2.1109,2.057,2.0427,1.994,1.9546,1.9504,1.9475,1.9479,1.9479,1.9479,1.9493,1.9497,1.9483,1.9483,1.9468,1.9416,1.9387,1.9372,1.9338,1.9323,1.9323,1.9289,1.9289,1.9289,1.9274,1.9277,1.9277,1.918,1.9066,1.8984,1.8932,1.8734,1.8537,1.843,1.8125,1.7389,1.705,1.6606,1.6087,1.5321,1.4824,1.4798,1.4257,1.3977,1.392,1.3894,1.3865,1.3836,1.3774,1.3667,4.0635,4.0648,4.0662,4.0655,4.0655,4.0707,4.072,4.072,4.0725,4.0401,3.9882,3.9874,3.9027,3.7684,3.7375,3.6817,3.6065,3.6017,3.5921,3.5728,3.5718,3.5737,3.5718,3.5717,3.5426,3.495,3.4881,3.4434,3.358,3.2707,3.2163,3.1872,3.1282,3.0855,3.0661,3.0622,3.0622,3.0622,3.0642,3.035,2.9729,2.909,2.8225,2.7221,2.7089,2.6685,2.5826,2.579,2.5665,2.5444,2.5379,2.5351,2.5341,2.5322,2.5332,2.5312,2.5271,2.5209,2.5168,2.5134,2.4881,2.4266,2.3995,2.3572,2.2882,2.2072,2.1624,2.1514,2.0708,2.007,1.9681,1.9679,1.9652,1.9652,1.9652,1.967,1.9652,1.967,1.9638,1.9638,1.9601,1.9587,1.9574,1.9541,1.9513,1.9527,1.9495,1.9481,1.9481,1.9481,1.9467,1.9485,1.9485,1.9398,1.9232,1.9186,1.9186,1.917,1.9064,1.883,1.8265,1.8107,1.7822,1.6983,1.628,1.5673,1.5334,1.4801,1.4342,1.4199,1.4091,1.405,1.4037,1.3991,1.3963,4.072,4.0788,4.0784,4.0776,4.0796,4.0807,4.0807,4.0787,4.0807,4.0749,4.0701,4.0761,4.0315,3.9384,3.8626,3.7802,3.7007,3.6939,3.6532,3.5854,3.5833,3.5823,3.5803,3.5788,3.5764,3.5648,3.5682,3.5327,3.4529,3.3673,3.2817,3.2059,3.1975,3.1534,3.0885,3.0769,3.0716,3.071,3.0691,3.0658,3.0613,3.0542,2.9673,2.8272,2.8051,2.7636,2.6866,2.6742,2.6386,2.5569,2.5542,2.5495,2.5401,2.5393,2.5395,2.5379,2.5322,2.5293,2.5292,2.5282,2.5222,2.5026,2.4383,2.3913,2.3815,2.3051,2.2562,2.253,2.1736,2.0861,2.0137,1.9895,1.9795,1.9795,1.9795,1.9795,1.9795,1.9795,1.9795,1.9795,1.9776,1.9763,1.9795,1.9795,1.9782,1.9782,1.9732,1.9682,1.9688,1.9694,1.9686,1.9686,1.9686,1.9633,1.9442,1.9387,1.939,1.9375,1.9323,1.9271,1.8996,1.8687,1.8306,1.7921,1.7298,1.6625,1.5903,1.5366,1.4994,1.4689,1.433,1.4219,1.4232,1.418,1.4154,4.1277,4.0815,4.0856,4.0867,4.0858,4.0849,4.0869,4.0869,4.0926,4.0926,4.0926,4.0954,4.0788,4.0477,4.0177,3.9235,3.7964,3.7894,3.7455,3.6736,3.6686,3.6394,3.5889,3.5864,3.5852,3.5872,3.5898,3.5749,3.5379,3.4555,3.3972,3.3621,3.3077,3.2402,3.1688,3.1538,3.1304,3.0823,3.075,3.0764,3.0759,3.0753,3.0425,2.9797,2.9214,2.854,2.7653,2.764,2.7239,2.6364,2.6326,2.6067,2.5541,2.5468,2.5464,2.5459,2.5451,2.5415,2.535,2.536,2.5361,2.5303,2.5033,2.4773,2.4648,2.4053,2.3525,2.3352,2.27,2.1999,2.1537,2.0649,1.9945,1.9945,1.9926,1.9926,1.9945,1.9926,1.9926,1.9926,1.9926,1.9926,1.9908,1.9926,1.9926,1.9926,1.9915,1.9896,1.9877,1.9903,1.9892,1.9892,1.9892,1.9861,1.9806,1.9655,1.9592,1.956,1.9527,1.9462,1.9295,1.9249,1.8957,1.8828,1.8286,1.7749,1.7039,1.6017,1.5624,1.4878,1.4538,1.4386,1.4398,1.4368,1.4326,4.1655,4.0937,4.0917,4.0927,4.0927,4.0943,4.0921,4.0941,4.0976,4.0984,4.1011,4.1018,4.1025,4.1045,4.1025,4.0441,3.9286,3.8974,3.8383,3.7663,3.7618,3.7157,3.6436,3.632,3.6189,3.5969,3.593,3.593,3.5872,3.5326,3.4917,3.4592,3.4008,3.3312,3.2557,3.2187,3.1724,3.128,3.0969,3.0793,3.0784,3.0784,3.0779,3.0653,3.015,2.9452,2.8592,2.8553,2.8145,2.7375,2.7006,2.6436,2.5635,2.5538,2.5536,2.5522,2.5522,2.5488,2.5445,2.5429,2.5432,2.5434,2.5388,2.536,2.5312,2.4839,2.4532,2.4283,2.3668,2.315,2.2882,2.1789,2.0802,2.0505,2.0218,2.0047,2.0028,2.0028,2.0047,2.0047,2.0028,2.0028,2.0019,2.0019,2.0048,2.0058,2.0077,2.0058,2.0029,2.0038,2.0038,2.0028,2.0017,2.0017,1.9977,1.9881,1.9775,1.9751,1.9682,1.965,1.9638,1.9649,1.9623,1.9548,1.9287,1.8821,1.8018,1.6888,1.5997,1.5195,1.4725,1.4555,1.4545,1.4541,1.4508,4.1793,4.1093,4.1015,4.0996,4.0996,4.1003,4.0996,4.1003,4.1006,4.1013,4.1039,4.1064,4.1089,4.1095,4.11,4.1033,4.073,4.0045,3.9286,3.8565,3.8511,3.8034,3.7235,3.7206,3.6801,3.6114,3.602,3.6001,3.5981,3.588,3.549,3.4874,3.4753,3.4246,3.3415,3.2728,3.2221,3.1971,3.1347,3.0898,3.0798,3.0837,3.0798,3.0778,3.0716,3.031,2.9541,2.9502,2.9094,2.8257,2.7459,2.6554,2.5876,2.5704,2.5615,2.5525,2.5518,2.5518,2.551,2.5503,2.5515,2.5499,2.5492,2.5484,2.5445,2.5352,2.5277,2.5144,2.4606,2.4098,2.3984,2.3225,2.2315,2.1503,2.0776,2.027,2.0212,2.0136,2.0117,2.0117,2.0117,2.0107,2.0106,2.0115,2.0143,2.018,2.018,2.0161,2.0124,2.0134,2.0125,2.0107,2.0107,2.0135,2.0126,2.0108,2.002,1.9928,1.9855,1.9809,1.9809,1.9804,1.9811,1.9762,1.9738,1.9287,1.8505,1.7452,1.6605,1.5853,1.5336,1.4811,1.4698,1.4678,1.4666,4.2135,4.1838,4.1286,4.1071,4.1058,4.1064,4.107,4.1089,4.1075,4.1075,4.1075,4.1086,4.1106,4.1111,4.11,4.1109,4.107,4.0762,4.0227,3.9502,3.939,3.8926,3.8229,3.8073,3.7644,3.6824,3.6239,3.6005,3.6025,3.6025,3.5834,3.5642,3.5568,3.5126,3.4334,3.4005,3.3634,3.2957,3.2137,3.1706,3.1643,3.1094,3.0799,3.0796,3.0794,3.0651,3.0427,3.0396,2.9979,2.9137,2.8844,2.8017,2.6807,2.6486,2.6208,2.5648,2.5571,2.5579,2.5576,2.557,2.5564,2.5551,2.5518,2.5511,2.5511,2.5498,2.5476,2.548,2.5213,2.505,2.4919,2.4281,2.3419,2.2468,2.1585,2.1039,2.0924,2.0559,2.0271,2.023,2.0249,2.0246,2.0242,2.0231,2.025,2.0265,2.0265,2.0258,2.0231,2.025,2.025,2.0242,2.0235,2.0227,2.0219,2.023,2.0197,2.0116,2.0041,1.9991,1.9981,1.9941,1.995,1.9966,1.9963,1.9639,1.8863,1.8134,1.7311,1.6546,1.5989,1.547,1.4991,1.4813,1.4804,4.3091,4.2733,4.1939,4.1593,4.1535,4.1271,4.11,4.1105,4.1109,4.1113,4.1113,4.1097,4.1101,4.1101,4.1108,4.1108,4.1111,4.1099,4.0804,4.0343,4.0281,3.9813,3.9032,3.8661,3.8291,3.7669,3.6866,3.6476,3.6456,3.6163,3.601,3.6013,3.6013,3.5745,3.5166,3.4855,3.4388,3.3824,3.3023,3.2417,3.2064,3.1574,3.1143,3.0905,3.0827,3.0827,3.0827,3.0841,3.0576,3.004,2.9702,2.8798,2.7558,2.7106,2.6673,2.6197,2.5803,2.5619,2.5605,2.5605,2.56,2.559,2.5579,2.5554,2.5549,2.555,2.5531,2.5544,2.5511,2.5543,2.5439,2.5091,2.445,2.3918,2.274,2.1945,2.156,2.0827,2.039,2.0327,2.0353,2.0328,2.0341,2.0328,2.0347,2.0353,2.0372,2.0353,2.0347,2.0347,2.0347,2.0341,2.0334,2.034,2.0334,2.0346,2.0339,2.0289,2.0214,2.0171,2.0144,2.0097,2.0079,2.0069,2.0069,2.0021,1.9345,1.8897,1.8203,1.7461,1.6711,1.6086,1.5548,1.506,1.494,4.4436,4.37,4.2817,4.2412,4.2256,4.1562,4.1195,4.1101,4.1111,4.1119,4.1099,4.1103,4.1105,4.1107,4.1107,4.1107,4.1108,4.111,4.1071,4.1011,4.0952,4.058,3.9932,3.919,3.8762,3.8547,3.7786,3.7377,3.7336,3.6594,3.6089,3.6186,3.6089,3.5992,3.5759,3.5152,3.4841,3.4685,3.3904,3.3103,3.242,3.2087,3.1735,3.1052,3.0935,3.0896,3.0896,3.0895,3.087,3.0679,3.0049,2.9325,2.8424,2.7582,2.7248,2.6871,2.6165,2.5808,2.5664,2.5621,2.5617,2.5628,2.5604,2.5604,2.561,2.5595,2.5585,2.5604,2.5593,2.5607,2.5587,2.551,2.5426,2.5329,2.3922,2.2727,2.1791,2.1023,2.0687,2.0571,2.0485,2.0385,2.04,2.0405,2.043,2.0458,2.0478,2.0454,2.043,2.0425,2.0415,2.0415,2.0415,2.0404,2.0404,2.0418,2.0408,2.0398,2.0334,2.0318,2.0281,2.0238,2.0192,2.0186,2.0169,2.0095,1.9943,1.9475,1.9045,1.8434,1.7641,1.6774,1.6101,1.5602,1.5171,4.4842,4.4574,4.3735,4.2993,4.2427,4.2136,4.1668,4.114,4.1123,4.1107,4.1107,4.1107,4.111,4.1111,4.1112,4.1113,4.1113,4.1112,4.1112,4.1112,4.1112,4.1015,4.0659,3.9955,3.9546,3.9429,3.8688,3.8257,3.8199,3.7381,3.6932,3.6933,3.6328,3.6035,3.5937,3.5741,3.5663,3.5545,3.4784,3.4256,3.3827,3.2714,3.2029,3.1796,3.1249,3.0956,3.0917,3.0918,3.0879,3.0871,3.0694,3.0146,2.9342,2.8951,2.8283,2.7264,2.683,2.6337,2.5846,2.5707,2.5701,2.5678,2.5652,2.5668,2.5683,2.5632,2.5609,2.5609,2.5604,2.5604,2.5604,2.5604,2.56,2.5459,2.4574,2.3589,2.2716,2.1905,2.1391,2.1361,2.0904,2.0605,2.0535,2.048,2.0499,2.0503,2.0506,2.0503,2.048,2.048,2.0476,2.048,2.048,2.0472,2.0469,2.0465,2.0472,2.0454,2.0448,2.0427,2.0386,2.0353,2.032,2.0294,2.0265,2.0212,2.0215,2.0007,1.9615,1.9204,1.8628,1.7821,1.6802,1.6129,1.568,4.5538,4.5462,4.4604,4.3961,4.3395,4.2713,4.2108,4.164,4.125,4.1113,4.1113,4.1113,4.1113,4.1113,4.1112,4.1112,4.111,4.1108,4.1107,4.1107,4.1108,4.1092,4.0957,4.0547,4.041,4.0312,3.9551,3.918,3.9004,3.8262,3.7695,3.7264,3.6814,3.6382,3.6011,3.601,3.601,3.5912,3.5463,3.5112,3.4604,3.3745,3.3061,3.2612,3.1851,3.1304,3.0992,3.0915,3.0898,3.0917,3.0896,3.066,3.0189,2.9758,2.9134,2.8115,2.7762,2.7155,2.6452,2.6236,2.6056,2.5779,2.5696,2.5693,2.569,2.5665,2.5645,2.5645,2.5645,2.5645,2.5642,2.5642,2.5645,2.5584,2.518,2.4518,2.3683,2.2812,2.2395,2.2133,2.1614,2.1038,2.1023,2.077,2.0575,2.0536,2.0558,2.0555,2.0536,2.0536,2.0538,2.0538,2.0538,2.0533,2.0531,2.0525,2.05,2.0506,2.0492,2.0491,2.0483,2.0452,2.0421,2.0396,2.0353,2.0334,2.034,2.032,2.0133,1.9728,1.9361,1.8815,1.7819,1.6862,1.6375,4.6305,4.6226,4.5467,4.5077,4.4687,4.3281,4.2498,4.2224,4.1461,4.1108,4.1108,4.1107,4.1107,4.1105,4.1105,4.1105,4.1103,4.1101,4.1101,4.1101,4.1101,4.1103,4.1084,4.1011,4.0973,4.0895,4.0326,4.0073,3.98,3.9135,3.8391,3.7823,3.7491,3.6866,3.6335,3.6103,3.6007,3.6005,3.5927,3.5554,3.5047,3.4578,3.409,3.3465,3.245,3.1727,3.1221,3.0969,3.0896,3.0879,3.0878,3.0859,3.074,3.0095,2.9665,2.9392,2.8748,2.8045,2.7322,2.7107,2.6793,2.6205,2.5949,2.5753,2.575,2.5691,2.5691,2.5689,2.5689,2.5691,2.5691,2.5691,2.5691,2.567,2.5631,2.5291,2.4612,2.377,2.3232,2.3179,2.2461,2.2018,2.1649,2.1221,2.0713,2.0576,2.0576,2.0576,2.0576,2.0576,2.0576,2.0576,2.0576,2.0596,2.0575,2.0554,2.0549,2.0521,2.0531,2.0516,2.0519,2.05,2.0511,2.0478,2.0439,2.0404,2.0418,2.0383,2.0346,2.0224,1.9823,1.9444,1.8904,1.7932,1.7263,4.6306,4.6286,4.611,4.5642,4.4898,4.3862,4.304,4.2357,4.1497,4.1164,4.1105,4.1103,4.1099,4.1114,4.1108,4.1097,4.1113,4.1113,4.1109,4.1109,4.1109,4.1109,4.1097,4.1116,4.1107,4.1047,4.0951,4.0814,4.0598,3.9984,3.9454,3.91,3.7978,3.7129,3.6879,3.6336,3.6017,3.602,3.602,3.5923,3.5591,3.5048,3.4638,3.4225,3.2976,3.2137,3.1763,3.1178,3.0836,3.0825,3.0855,3.0897,3.0819,3.0682,3.0292,2.9784,2.9511,2.8945,2.8222,2.7988,2.7734,2.7109,2.6699,2.6425,2.5742,2.5702,2.5702,2.5702,2.5702,2.5702,2.5702,2.5702,2.5703,2.5702,2.5683,2.5624,2.5309,2.4641,2.4168,2.3937,2.3374,2.2596,2.2029,2.1835,2.1327,2.082,2.0625,2.0625,2.0605,2.0605,2.0605,2.0605,2.0605,2.0605,2.0605,2.0585,2.0563,2.0559,2.0554,2.0549,2.0558,2.0547,2.0539,2.0526,2.0508,2.048,2.0472,2.0478,2.0439,2.0342,2.0264,1.9886,1.9371,1.8649,1.8149,4.63,4.6297,4.6295,4.6019,4.5467,4.4624,4.3801,4.2942,4.2084,4.1459,4.1166,4.1101,4.1097,4.1113,4.1109,4.11,4.1115,4.1115,4.1115,4.1115,4.1115,4.1115,4.1115,4.1117,4.1108,4.1108,4.1088,4.1108,4.0948,4.0633,4.0176,3.9806,3.8818,3.7975,3.7288,3.6742,3.6376,3.6064,3.6005,3.6005,3.5888,3.5596,3.501,3.4737,3.3743,3.3041,3.2104,3.1695,3.123,3.0944,3.0838,3.0845,3.0849,3.0852,3.0579,3.0287,3.0192,2.9783,2.9158,2.8865,2.8593,2.7889,2.7343,2.6561,2.5956,2.5702,2.5703,2.5703,2.5703,2.5703,2.5703,2.5702,2.5701,2.5701,2.57,2.57,2.5623,2.5273,2.4998,2.4843,2.4238,2.3672,2.3164,2.2655,2.201,2.1482,2.1247,2.1169,2.0603,2.0603,2.0603,2.0603,2.0603,2.0603,2.0604,2.0604,2.0586,2.0586,2.0585,2.0583,2.0581,2.0576,2.0572,2.054,2.0525,2.0516,2.049,2.0499,2.0508,2.0449,2.0329,2.0145,1.9826,1.9258,1.8876,4.6293,4.6287,4.628,4.6253,4.6065,4.5236,4.4392,4.3612,4.2773,4.1822,4.1213,4.1111,4.1115,4.1111,4.1106,4.1106,4.11,4.1075,4.107,4.107,4.107,4.107,4.1075,4.1081,4.1081,4.1081,4.1096,4.11,4.11,4.1072,4.0667,4.0077,3.978,3.8995,3.7883,3.7225,3.6845,3.6377,3.6085,3.5987,3.5987,3.5909,3.5519,3.5091,3.4564,3.3921,3.2868,3.2244,3.1722,3.1044,3.0868,3.0798,3.0788,3.0801,3.0786,3.0767,3.0732,3.0419,2.9951,2.9737,2.9464,2.8664,2.7941,2.716,2.6573,2.6184,2.6028,2.5912,2.5871,2.5697,2.5697,2.5694,2.5691,2.5691,2.5687,2.5705,2.5707,2.5697,2.5602,2.5526,2.5017,2.4487,2.4056,2.3584,2.286,2.2215,2.1977,2.1624,2.1058,2.0609,2.0611,2.057,2.057,2.0572,2.0572,2.0558,2.058,2.0582,2.0585,2.0585,2.0586,2.0586,2.0584,2.0578,2.0551,2.0545,2.0538,2.0531,2.0547,2.0525,2.0461,2.0318,2.0097,1.9818,1.9574,4.6201,4.6216,4.6216,4.6211,4.6075,4.5289,4.4484,4.3631,4.2807,4.1915,4.1169,4.1106,4.1095,4.1114,4.1103,4.1071,4.1046,4.1013,4.1006,4.1006,4.1006,4.1025,4.1025,4.1032,4.1006,4.1013,4.1064,4.1086,4.1106,4.1086,4.0959,4.0705,4.0187,3.9493,3.8864,3.802,3.726,3.6761,3.6333,3.606,3.595,3.5911,3.5866,3.5521,3.5073,3.4503,3.3918,3.2783,3.1946,3.1752,3.1109,3.0817,3.074,3.0767,3.0781,3.0804,3.0807,3.0674,3.0498,3.0515,3.0534,3.0222,2.9422,2.8873,2.8252,2.7432,2.683,2.6498,2.6108,2.5737,2.5698,2.5696,2.5696,2.5693,2.5693,2.569,2.5684,2.5687,2.5679,2.5646,2.5432,2.5236,2.4744,2.431,2.3762,2.3074,2.2623,2.2132,2.1528,2.0982,2.0628,2.0567,2.0528,2.0509,2.0511,2.0523,2.0529,2.0531,2.0534,2.0576,2.0579,2.0601,2.0585,2.0566,2.0564,2.058,2.0576,2.0573,2.057,2.0568,2.0545,2.0521,2.0341,2.0158,2.0227,4.6209,4.6203,4.6157,4.6144,4.6059,4.5728,4.4812,4.3682,4.3176,4.2279,4.1357,4.1039,4.1059,4.1052,4.1052,4.1038,4.1011,4.0984,4.0996,4.0996,4.0996,4.0996,4.0996,4.0996,4.0996,4.1003,4.1032,4.1046,4.1046,4.1039,4.1059,4.0954,4.0578,4.0201,3.9687,3.8967,3.7948,3.7338,3.6735,3.6287,3.5937,3.5898,3.5898,3.5742,3.5489,3.5081,3.4478,3.3972,3.2882,3.2123,3.1598,3.115,3.0864,3.0745,3.0765,3.0774,3.0798,3.0802,3.0802,3.0802,3.0763,3.0685,2.9998,2.9394,2.8946,2.8166,2.7484,2.6981,2.6708,2.6104,2.5714,2.5671,2.5648,2.5648,2.5644,2.566,2.5652,2.5671,2.566,2.5636,2.5522,2.5386,2.5288,2.4875,2.4537,2.3988,2.3357,2.2714,2.2087,2.1558,2.1087,2.0659,2.0597,2.0483,2.0487,2.05,2.0511,2.0511,2.0514,2.0538,2.0562,2.0566,2.0554,2.0521,2.0546,2.0586,2.0605,2.0584,2.0603,2.0601,2.058,2.0558,2.0554,2.0549,2.0543,4.6183,4.6169,4.6107,4.6111,4.6122,4.6113,4.5129,4.3817,4.3583,4.2599,4.1151,4.0996,4.0996,4.0996,4.0996,4.0988,4.0988,4.0988,4.096,4.098,4.096,4.096,4.098,4.098,4.0991,4.0963,4.0943,4.098,4.1003,4.1003,4.0996,4.0964,4.0976,4.0696,4.0054,3.9645,3.8731,3.8043,3.7168,3.6701,3.6086,3.5872,3.5884,3.5884,3.5884,3.5488,3.4955,3.4528,3.3801,3.2868,3.2175,3.1631,3.1048,3.0776,3.071,3.0742,3.0778,3.0769,3.0774,3.0774,3.0774,3.0735,3.0151,2.9703,2.9353,2.89,2.814,2.7385,2.6898,2.6626,2.61,2.5721,2.5619,2.5615,2.561,2.56,2.5595,2.5595,2.5571,2.5566,2.5576,2.5522,2.541,2.5366,2.5026,2.4715,2.4083,2.3592,2.297,2.2382,2.1813,2.1074,2.0705,2.0515,2.0465,2.0488,2.0499,2.0503,2.0506,2.0529,2.0516,2.0522,2.0514,2.0504,2.0531,2.0559,2.0582,2.0604,2.0605,2.0605,2.0605,2.0605,2.0583,2.0581,2.0578,4.6102,4.6102,4.6102,4.6122,4.6113,4.6113,4.514,4.37,4.3594,4.2611,4.098,4.0968,4.0968,4.098,4.0991,4.0991,4.0963,4.0926,4.0917,4.0917,4.0917,4.0897,4.0917,4.0908,4.0908,4.0908,4.0849,4.0888,4.0943,4.096,4.0988,4.0988,4.096,4.091,4.0632,4.0138,3.9613,3.911,3.7866,3.6701,3.6021,3.5865,3.581,3.5821,3.5801,3.5715,3.5396,3.4969,3.4359,3.402,3.2682,3.1984,3.1654,3.0995,3.0696,3.063,3.0665,3.0703,3.0722,3.0722,3.0722,3.0716,3.0528,3.0528,3.0197,2.9685,2.8966,2.8115,2.7473,2.702,2.669,2.6062,2.5765,2.5638,2.5651,2.5582,2.5537,2.5543,2.5537,2.5525,2.5537,2.5549,2.5496,2.5535,2.551,2.5199,2.4844,2.4333,2.3725,2.3021,2.2258,2.1443,2.0939,2.073,2.043,2.0458,2.0463,2.0487,2.0491,2.05,2.0488,2.0476,2.0483,2.0497,2.0509,2.0538,2.0549,2.0575,2.0599,2.0583,2.0564,2.0585,2.0605,2.0605,2.0604,4.6037,4.6095,4.6047,4.6056,4.6026,4.5997,4.5034,4.3714,4.3481,4.251,4.1112,4.0898,4.0898,4.0898,4.0888,4.0878,4.0878,4.0868,4.0849,4.0849,4.0849,4.0829,4.0839,4.0828,4.0828,4.0837,4.0837,4.0809,4.0869,4.0898,4.0898,4.0898,4.0878,4.0888,4.0908,4.0519,4.0053,3.9267,3.8026,3.692,3.6454,3.6027,3.5756,3.5747,3.5747,3.5737,3.5611,3.5456,3.4904,3.4536,3.3595,3.3149,3.2587,3.1889,3.1347,3.1316,3.0855,3.0656,3.0637,3.0644,3.0644,3.0664,3.0664,3.0598,3.0559,3.0314,2.9751,2.8948,2.8579,2.8133,2.7537,2.6786,2.6437,2.6198,2.5919,2.5687,2.5602,2.5525,2.5525,2.5505,2.551,2.5505,2.5499,2.5506,2.5525,2.5389,2.513,2.4794,2.409,2.3282,2.2501,2.1662,2.1281,2.1016,2.064,2.0438,2.0424,2.0429,2.0434,2.0425,2.0434,2.0443,2.0452,2.048,2.0515,2.0529,2.0525,2.0536,2.0547,2.0552,2.0536,2.0558,2.058,2.0602,2.0605,4.5972,4.6046,4.6003,4.596,4.598,4.5937,4.4936,4.3482,4.3416,4.2416,4.1156,4.0807,4.0807,4.0807,4.0798,4.0818,4.0807,4.0807,4.0807,4.0807,4.0807,4.0807,4.0807,4.0807,4.0796,4.0796,4.0804,4.0804,4.0804,4.0815,4.0815,4.0807,4.0828,4.0818,4.0807,4.0701,4.0372,3.9527,3.8461,3.7705,3.724,3.6484,3.6164,3.5989,3.5854,3.5708,3.5708,3.5689,3.5291,3.4933,3.4449,3.3935,3.3422,3.2668,3.199,3.1739,3.1225,3.0838,3.0701,3.0593,3.0602,3.0602,3.0602,3.0618,3.061,3.0582,3.0455,2.9726,2.9338,2.8943,2.8423,2.7609,2.7214,2.6808,2.6393,2.6045,2.5742,2.5677,2.5534,2.5461,2.5445,2.5456,2.5453,2.5449,2.5456,2.5483,2.534,2.5132,2.4517,2.3717,2.3168,2.2446,2.17,2.1397,2.1017,2.0701,2.0597,2.0371,2.0377,2.0383,2.0394,2.0404,2.0439,2.0468,2.0497,2.0487,2.0469,2.0487,2.0506,2.0514,2.0521,2.0527,2.0551,2.0575,2.0599,4.5898,4.5898,4.5917,4.5886,4.5898,4.5905,4.4936,4.3431,4.3385,4.2385,4.0901,4.0796,4.0776,4.0796,4.0784,4.0796,4.0807,4.0807,4.0796,4.0796,4.0807,4.0796,4.0784,4.0761,4.0769,4.0788,4.0776,4.0784,4.0784,4.0764,4.0781,4.0796,4.0784,4.0796,4.0796,4.0734,4.0444,3.9824,3.9165,3.875,3.813,3.7413,3.688,3.6656,3.6153,3.5697,3.5715,3.5695,3.5626,3.5353,3.487,3.453,3.4152,3.3407,3.275,3.2268,3.1688,3.1244,3.0887,3.0626,3.0574,3.0602,3.0593,3.0604,3.0604,3.0613,3.0524,3.0361,2.9887,2.9519,2.9038,2.8526,2.8006,2.766,2.7177,2.6627,2.6241,2.5815,2.5672,2.5462,2.5387,2.5378,2.5369,2.5367,2.5421,2.5448,2.5404,2.5222,2.5059,2.4433,2.4086,2.343,2.2369,2.1837,2.1497,2.1176,2.0739,2.0444,2.0334,2.036,2.0392,2.0404,2.0396,2.0408,2.0438,2.0429,2.042,2.0452,2.0476,2.0506,2.0516,2.0528,2.0538,2.0545,2.0573,4.5771,4.5786,4.5786,4.5814,4.5899,4.5854,4.4873,4.3499,4.3273,4.2318,4.0681,4.0668,4.0668,4.0681,4.0668,4.0688,4.0688,4.0668,4.0681,4.0688,4.0688,4.0668,4.0668,4.0668,4.0675,4.0675,4.0681,4.0668,4.0668,4.0681,4.0681,4.07,4.0757,4.0757,4.0745,4.0713,4.0468,4.0198,3.9741,3.9257,3.8936,3.8124,3.7429,3.6837,3.6682,3.6084,3.5743,3.5647,3.5628,3.5519,3.521,3.5083,3.4904,3.4171,3.3619,3.306,3.2405,3.1653,3.1163,3.0819,3.054,3.054,3.054,3.055,3.055,3.055,3.054,3.0405,3.026,2.9969,2.9912,2.9274,2.8705,2.8502,2.8049,2.7364,2.6872,2.6468,2.5899,2.5726,2.5467,2.5322,2.5313,2.5274,2.5332,2.5398,2.5361,2.5303,2.5149,2.5005,2.463,2.4225,2.3225,2.2378,2.2021,2.1443,2.0855,2.06,2.0383,2.0378,2.0424,2.0334,2.0328,2.0366,2.0379,2.039,2.0408,2.0415,2.0439,2.0476,2.0496,2.0506,2.0519,2.0531,2.0543,4.568,4.568,4.568,4.5742,4.5819,4.5786,4.4805,4.3452,4.3231,4.2218,4.0626,4.0588,4.0588,4.0588,4.0588,4.0602,4.0602,4.0602,4.0602,4.0602,4.0602,4.0588,4.0588,4.0602,4.0602,4.0588,4.0588,4.0602,4.0602,4.0588,4.0602,4.0635,4.0681,4.07,4.0668,4.064,4.0588,4.0414,4.0144,3.9758,3.9642,3.8929,3.8369,3.7578,3.7154,3.6556,3.6067,3.5835,3.5591,3.5572,3.5502,3.554,3.5323,3.5014,3.4558,3.3923,3.3217,3.2261,3.1619,3.1017,3.0518,3.05,3.049,3.049,3.0479,3.0479,3.05,3.049,3.0471,3.0479,3.0449,2.986,2.9561,2.9366,2.8709,2.8063,2.7717,2.7313,2.6553,2.5994,2.5791,2.5657,2.5262,2.5252,2.5262,2.5293,2.5293,2.5273,2.5205,2.509,2.4964,2.4561,2.4024,2.3237,2.2527,2.2123,2.1671,2.1084,2.0831,2.052,2.0477,2.0388,2.0306,2.0327,2.034,2.0373,2.0372,2.0371,2.0399,2.0449,2.0467,2.0504,2.0519,2.051,2.0525,4.568,4.568,4.568,4.568,4.5696,4.5696,4.4751,4.3265,4.2995,4.2073,4.0684,4.0588,4.0588,4.0626,4.0689,4.0805,4.0844,4.0824,4.0882,4.0979,4.0887,4.0728,4.0646,4.067,4.0574,4.0588,4.0593,4.0579,4.0574,4.0545,4.0559,4.0559,4.0579,4.0626,4.0588,4.0588,4.0588,4.0568,4.0511,4.0439,4.0246,3.9667,3.9268,3.867,3.786,3.7186,3.6511,3.6068,3.5785,3.5522,3.5489,3.5476,3.5411,3.5345,3.4908,3.4255,3.4074,3.3144,3.1782,3.0953,3.0632,3.0497,3.0447,3.0447,3.0469,3.0469,3.0458,3.0436,3.0477,3.0428,3.0398,3.0344,3.0206,2.9963,2.9274,2.8948,2.8614,2.8123,2.7382,2.6584,2.6381,2.6178,2.5584,2.5209,2.5179,2.5201,2.5212,2.5201,2.519,2.516,2.5053,2.4889,2.4487,2.3951,2.3273,2.293,2.246,2.1818,2.128,2.0952,2.0603,2.0419,2.0358,2.0304,2.0299,2.0306,2.0301,2.0295,2.0353,2.0408,2.0459,2.0478,2.0491,2.0508,2.0503,4.5618,4.5637,4.5584,4.5547,4.5584,4.5648,4.4735,4.3173,4.2024,4.1123,4.0631,4.0534,4.0534,4.0669,4.117,4.1405,4.1478,4.2152,4.2268,4.2133,4.1655,4.1443,4.1285,4.0881,4.0592,4.0534,4.0539,4.0543,4.0527,4.0508,4.0476,4.046,4.0492,4.0527,4.0554,4.0549,4.0515,4.0534,4.0515,4.0515,4.0496,4.0226,3.986,3.9384,3.8667,3.7882,3.6958,3.6483,3.6045,3.5608,3.5518,3.5374,3.5398,3.535,3.5196,3.4736,3.451,3.3341,3.2095,3.1284,3.095,3.0643,3.0398,3.0398,3.0367,3.0367,3.0355,3.0386,3.0398,3.0367,3.0343,3.033,3.026,3.026,2.9902,2.9876,2.9589,2.8982,2.8267,2.74,2.6929,2.6204,2.5569,2.539,2.5352,2.5149,2.5141,2.513,2.5137,2.5125,2.5075,2.5075,2.4827,2.4407,2.398,2.367,2.3146,2.2468,2.1847,2.1348,2.0992,2.0619,2.0348,2.0288,2.0265,2.0242,2.0258,2.028,2.032,2.0354,2.041,2.0443,2.0444,2.0478,2.0511,4.5531,4.5513,4.5495,4.5303,4.5091,4.5161,4.4212,4.2598,4.1178,4.0511,4.0534,4.0748,4.0921,4.119,4.1728,4.217,4.2247,4.2708,4.3015,4.2958,4.2477,4.2228,4.192,4.1382,4.1094,4.0844,4.0578,4.0485,4.0466,4.0432,4.0415,4.0415,4.0398,4.0447,4.0495,4.0476,4.046,4.046,4.046,4.046,4.046,4.0345,4.0172,3.9769,3.9231,3.8654,3.7713,3.7026,3.6492,3.5978,3.5618,3.5358,3.532,3.532,3.5304,3.5074,3.4446,3.3527,3.2766,3.2044,3.1604,3.0844,3.0502,3.0331,3.0312,3.0305,3.0305,3.0324,3.0312,3.0312,3.0279,3.0299,3.0286,3.0286,3.0253,3.0196,3.0048,2.9404,2.9014,2.816,2.758,2.6683,2.5761,2.5609,2.5565,2.5304,2.5063,2.5063,2.5082,2.5082,2.507,2.507,2.5082,2.4771,2.4536,2.4434,2.3854,2.313,2.2571,2.2058,2.1331,2.0958,2.0613,2.0267,2.0235,2.0222,2.0257,2.0281,2.0284,2.0313,2.034,2.0359,2.0388,2.0429,2.0478,4.54,4.54,4.54,4.4959,4.4307,4.4116,4.3138,4.1681,4.078,4.0415,4.0454,4.1276,4.1526,4.1813,4.2543,4.2927,4.306,4.3138,4.3272,4.3176,4.3118,4.3022,4.2678,4.2159,4.1716,4.1372,4.1029,4.0645,4.0436,4.0381,4.0381,4.0398,4.0381,4.0398,4.0415,4.0415,4.0415,4.0413,4.0413,4.0413,4.043,4.0413,4.0336,4.0049,3.9665,3.9224,3.8457,3.775,3.7118,3.6543,3.6006,3.555,3.5324,3.5308,3.5312,3.5085,3.4461,3.4066,3.3573,3.2909,3.2286,3.1485,3.0925,3.056,3.0286,3.0272,3.0259,3.024,3.024,3.0253,3.0286,3.0259,3.0232,3.0218,3.019,3.0138,3.0123,2.9808,2.9527,2.9055,2.8694,2.7866,2.6654,2.6236,2.5885,2.5473,2.5213,2.4966,2.4999,2.5076,2.5076,2.5057,2.5076,2.5089,2.4949,2.4797,2.4569,2.3876,2.3496,2.2996,2.2166,2.1375,2.0938,2.0604,2.0316,2.0208,2.0244,2.026,2.0265,2.0289,2.0299,2.0334,2.0347,2.0377,2.0432,4.54,4.54,4.54,4.4901,4.402,4.2795,4.2029,4.1604,4.0799,4.0398,4.0454,4.1316,4.1777,4.1815,4.3176,4.3713,4.4039,4.4346,4.4633,4.448,4.4001,4.3867,4.3503,4.2966,4.2352,4.1797,4.1358,4.0861,4.0422,4.0308,4.0328,4.0328,4.0328,4.0328,4.0328,4.0347,4.0345,4.0381,4.0381,4.0398,4.0398,4.0398,4.0398,4.0226,4.013,3.9689,3.9018,3.8618,3.7929,3.6821,3.6444,3.5968,3.5223,3.5229,3.5215,3.5145,3.4821,3.4537,3.3949,3.3606,3.3094,3.2431,3.1984,3.1161,3.0657,3.029,3.0271,3.0209,3.0171,3.0185,3.0185,3.019,3.0157,3.0128,3.0113,3.0098,3.0064,2.9973,2.973,2.962,2.9262,2.8548,2.7376,2.6683,2.6332,2.5821,2.5409,2.5163,2.495,2.5048,2.5004,2.5004,2.5004,2.5004,2.5018,2.4885,2.4854,2.4664,2.4227,2.3764,2.3072,2.2285,2.1507,2.0899,2.048,2.0278,2.0201,2.0227,2.0225,2.0241,2.0265,2.0304,2.0339,2.0354,2.0385,4.5341,4.5322,4.4976,4.4153,4.2948,4.1609,4.1074,4.1015,4.0575,4.0345,4.0498,4.1627,4.2144,4.245,4.3829,4.4652,4.4671,4.4939,4.5188,4.5034,4.4824,4.469,4.4346,4.3733,4.2948,4.2336,4.1647,4.1055,4.0463,4.0234,4.0215,4.0215,4.0215,4.0215,4.0215,4.0215,4.0253,4.0272,4.0346,4.0364,4.0364,4.0345,4.0345,4.0345,4.0345,3.9982,3.9543,3.9334,3.8513,3.7617,3.739,3.6304,3.5637,3.5469,3.5166,3.511,3.5053,3.4807,3.4428,3.4352,3.3802,3.331,3.3007,3.2321,3.1483,3.0947,3.0559,3.0232,3.0141,3.0102,3.0102,3.0083,3.0083,3.0064,3.0049,3.0034,3.0019,3.0003,2.995,2.9896,2.9466,2.8866,2.8115,2.7422,2.6858,2.6499,2.6065,2.5649,2.5328,2.5097,2.4998,2.4903,2.4903,2.4917,2.4912,2.4926,2.4888,2.4812,2.4609,2.4168,2.3733,2.3182,2.2365,2.1448,2.0565,2.0423,2.0289,2.0183,2.0162,2.0199,2.0225,2.0257,2.0277,2.032,2.034,4.5297,4.522,4.4282,4.3022,4.1514,4.0673,4.033,4.0272,4.0291,4.0272,4.0597,4.1934,4.2565,4.2851,4.4131,4.4934,4.5029,4.5239,4.5258,4.5277,4.5163,4.5065,4.4874,4.4454,4.3652,4.2831,4.2029,4.1303,4.0444,4.0157,4.0137,4.0096,4.0117,4.0137,4.0137,4.0137,4.0157,4.0176,4.0215,4.0272,4.0272,4.0272,4.0272,4.0272,4.0272,4.0158,3.9967,3.9662,3.9261,3.8899,3.8195,3.6862,3.6196,3.5625,3.5226,3.5075,3.5038,3.4963,3.4831,3.4755,3.4471,3.4055,3.3771,3.3203,3.2463,3.168,3.1181,3.0608,3.0478,3.0231,3.0155,3.0045,3.0007,2.9972,2.9956,2.994,2.994,2.9924,2.9888,2.9872,2.9742,2.9179,2.886,2.8185,2.7679,2.7301,2.6758,2.6249,2.591,2.5514,2.5114,2.4926,2.4842,2.4842,2.4842,2.4856,2.4842,2.4771,2.4728,2.4592,2.4179,2.3714,2.3228,2.2144,2.1056,2.0601,2.0393,2.0289,2.0193,2.0164,2.0182,2.0188,2.0249,2.0346,2.0306,4.5213,4.508,4.3569,4.2328,4.1357,4.0499,4.0137,4.0137,4.0137,4.0215,4.0482,4.1361,4.2163,4.2791,4.3821,4.4562,4.5017,4.5151,4.5129,4.517,4.517,4.517,4.517,4.4865,4.4252,4.3547,4.2633,4.1452,4.0403,4.0117,4.0096,4.0096,4.0096,4.0077,4.0077,4.0077,4.0077,4.0077,4.0117,4.0137,4.0137,4.0137,4.0137,4.0157,4.0157,4.0157,4.0041,3.9984,3.947,3.8956,3.8651,3.7624,3.6445,3.5552,3.5077,3.4945,3.4964,3.4964,3.4946,3.4908,3.4718,3.468,3.4415,3.396,3.3337,3.2597,3.1912,3.1322,3.0829,3.0528,3.0227,3.0094,2.9945,2.9929,2.9876,2.9857,2.9841,2.9823,2.9823,2.9806,2.9808,2.9638,2.9357,2.9019,2.855,2.7987,2.737,2.69,2.6639,2.6279,2.5449,2.5182,2.4855,2.4813,2.4798,2.4798,2.4783,2.4798,2.4756,2.4657,2.4544,2.4293,2.3853,2.264,2.1639,2.1225,2.079,2.0373,2.0279,2.0461,2.0547,2.0747,2.0593,2.0636,2.0446,4.5148,4.4919,4.3316,4.1905,4.0859,4.0307,4.0096,4.0096,4.0096,4.0137,4.0329,4.1054,4.1721,4.2366,4.3338,4.4002,4.4608,4.4969,4.5087,4.5103,4.5103,4.5103,4.5103,4.5084,4.4456,4.3751,4.2493,4.1273,4.0228,3.9996,4.0015,4.0015,3.9996,3.9996,3.9996,3.9996,4.0015,4.0015,4.0015,4.0015,4.0036,4.0076,4.0096,4.0096,4.0096,4.0096,4.0057,4.0057,3.9789,3.9256,3.8933,3.7774,3.6653,3.5856,3.5344,3.504,3.4907,3.4888,3.4869,3.4868,3.4868,3.4848,3.4829,3.428,3.428,3.3564,3.2864,3.2278,3.1767,3.1428,3.0804,3.054,3.0162,2.9993,2.9899,2.9806,2.9806,2.9789,2.9753,2.9753,2.9736,2.97,2.9494,2.9438,2.9007,2.882,2.8165,2.7734,2.7435,2.704,2.6212,2.5552,2.534,2.4922,2.4753,2.4753,2.4734,2.4768,2.4768,2.4727,2.4666,2.4752,2.4409,2.3297,2.2426,2.1957,2.1506,2.1111,2.1189,2.1515,2.1471,2.1406,2.1197,2.111,2.1271,4.4928,4.4547,4.3178,4.1618,4.021,4.0076,4.0057,4.0076,4.0057,4.0076,4.0133,4.0838,4.122,4.1943,4.2762,4.3409,4.3977,4.4448,4.4753,4.5038,4.5038,4.5057,4.5057,4.4981,4.4315,4.3418,4.2256,4.1117,4.0032,3.9954,3.9911,3.9889,3.9889,3.9889,3.9889,3.987,3.9889,3.9889,3.9889,3.9889,3.9933,3.9994,4.0036,4.0057,4.0076,4.0036,4.0015,3.9975,3.9954,3.961,3.9058,3.7919,3.6915,3.6157,3.5532,3.5133,3.4887,3.4849,3.4809,3.4788,3.4807,3.4807,3.4788,3.4749,3.4711,3.4372,3.3674,3.3241,3.275,3.2128,3.1506,3.0903,3.0507,3.0112,2.998,2.9773,2.9755,2.9718,2.9699,2.9662,2.9664,2.9645,2.9608,2.957,2.9475,2.9305,2.91,2.8707,2.8297,2.7755,2.7099,2.648,2.6066,2.5614,2.4901,2.4748,2.4767,2.4692,2.4692,2.4726,2.4772,2.4808,2.4611,2.4044,2.3269,2.2741,2.2464,2.2166,2.2341,2.2403,2.2152,2.1937,2.2045,2.2038,2.244,4.417,4.2872,4.2549,4.1468,4.0065,3.9933,3.9933,3.9933,3.9951,3.9933,3.9989,4.0106,4.0523,4.1309,4.1537,4.2256,4.3411,4.3923,4.4488,4.4843,4.4929,4.4943,4.4962,4.4887,4.3976,4.3023,4.2151,4.1336,4.0138,3.9889,3.9889,3.9889,3.9889,3.9867,3.9826,3.9804,3.9804,3.9781,3.9777,3.9777,3.98,3.9867,3.9911,3.9951,3.9951,3.9951,3.993,3.9911,3.9911,3.9643,3.9148,3.8177,3.7324,3.651,3.583,3.5186,3.4941,3.4807,3.4787,3.4747,3.4727,3.4727,3.4706,3.4666,3.4647,3.4607,3.4156,3.4101,3.3556,3.2881,3.2222,3.1487,3.0998,3.0547,3.0284,2.9889,2.9664,2.9645,2.9626,2.9589,2.9551,2.955,2.9531,2.9512,2.9492,2.9398,2.9398,2.9081,2.8986,2.8483,2.7923,2.7363,2.6821,2.5811,2.4949,2.4853,2.4816,2.4706,2.4647,2.4663,2.4711,2.4776,2.4524,2.4222,2.3927,2.3477,2.3258,2.3139,2.2893,2.2842,2.2562,2.2414,2.265,2.2942,2.3326]}]]